GFSNW_250_rhum_003.txt.gz
RH
28 45 59 56 58 68 54 35 62 77 51 60 66 76 65 66 62 45 37 28 30 32 40 53 62 60 46 36 28 26 44 51 46 46 50 55 58 58 56 56 59 63 61 56
24 42 48 45 68 88 59 36 72 72 61 79 82 86 72 65 57 36 33 31 32 36 56 72 73 56 44 31 40 62 57 52 51 59 65 67 69 65 63 64 63 67 65 60
21 30 38 49 88 76 50 36 68 55 71 73 87 85 78 68 50 30 33 35 33 40 56 64 66 49 45 49 62 66 58 57 63 70 74 76 74 66 64 65 65 62 59 66
20 24 35 75 76 57 43 53 77 82 88 79 96 79 74 61 34 32 36 36 36 48 61 70 64 73 79 78 68 73 63 60 66 73 76 76 75 72 69 73 70 70 63 68
20 29 62 68 73 52 49 73 94 100 90 85 95 74 70 68 38 33 36 35 40 53 64 67 71 70 83 81 75 69 69 75 80 83 83 86 93 88 75 73 68 68 75 83
20 29 53 88 62 53 70 100 99 100 86 80 88 72 70 79 43 45 44 36 41 61 68 82 85 87 91 86 84 82 84 90 93 94 98 92 100 76 81 76 77 75 89 79
25 36 63 69 53 65 92 100 100 100 79 82 82 77 76 75 47 51 48 37 51 65 75 89 93 98 97 95 99 99 98 96 90 96 86 89 98 99 80 71 71 71 84 74
37 42 63 58 58 71 100 100 98 98 81 96 80 79 75 80 52 49 47 44 58 69 80 88 88 87 92 92 96 100 99 91 84 82 87 76 99 100 96 77 78 72 70 92
47 56 60 59 65 96 100 100 99 96 91 92 90 94 99 81 58 58 56 52 52 60 60 64 70 82 81 95 99 95 91 91 85 84 70 77 100 99 92 87 93 94 100 91
44 50 56 70 78 100 100 100 100 94 96 90 87 99 100 85 75 63 56 63 65 66 65 58 61 74 74 84 81 78 79 78 80 82 84 92 91 83 83 83 94 100 100 100
69 64 64 84 98 100 98 100 100 96 98 84 88 100 100 98 88 75 63 58 57 62 69 64 58 62 66 72 73 84 88 97 100 100 100 87 85 81 85 94 95 88 83 76
77 64 76 96 100 95 96 100 100 97 100 85 88 99 96 100 89 80 78 79 78 71 64 62 60 67 74 83 92 87 92 94 85 90 81 61 66 87 92 84 78 87 89 82
78 70 98 100 95 97 100 100 100 100 100 90 96 98 96 100 86 79 89 98 89 85 91 87 82 80 87 86 83 89 99 95 92 87 100 95 96 96 86 86 92 89 73 72
85 93 100 98 92 93 100 100 100 98 93 92 100 100 99 100 99 97 100 99 91 82 88 98 96 90 94 99 94 100 100 100 100 100 100 100 100 90 75 78 77 70 75 83
98 100 100 96 94 96 94 100 100 86 89 90 100 98 91 96 100 100 100 100 99 99 100 100 100 100 100 99 99 100 100 92 79 94 95 83 87 83 83 84 76 74 82 82
98 100 100 100 96 100 100 100 99 90 91 93 99 100 100 100 100 100 97 94 90 90 87 82 82 86 76 71 74 100 98 90 91 68 65 64 65 67 71 73 76 67 64 72
99 96 96 100 96 87 92 96 100 100 100 99 98 98 96 99 100 100 100 100 99 93 87 90 92 100 100 100 100 100 100 99 77 73 66 70 71 68 62 63 64 73 84 82
97 97 100 95 96 92 99 100 100 100 96 90 89 93 95 99 98 99 100 100 96 91 98 100 100 100 100 100 100 100 100 91 80 78 72 63 55 65 74 78 83 77 72 72
100 100 97 95 99 96 91 100 100 100 100 100 100 100 100 100 100 100 100 99 100 100 100 100 94 93 86 89 98 96 90 89 87 78 66 71 75 84 89 84 80 82 82 83
100 100 100 97 100 100 98 89 89 100 100 100 100 100 100 100 100 100 92 81 82 80 90 80 83 90 97 95 84 84 90 87 70 77 90 100 100 96 85 76 76 79 80 82
100 100 99 99 98 97 98 95 97 99 100 100 100 100 100 100 100 97 77 77 77 74 85 97 97 100 100 98 93 85 82 87 89 88 87 84 78 74 79 78 78 77 81 80
100 100 100 96 88 93 100 100 95 97 100 99 100 100 96 82 71 74 75 70 65 66 75 77 82 98 90 88 85 82 83 84 84 86 89 90 88 80 83 77 81 82 79 93
96 93 95 97 89 79 70 82 95 99 100 100 96 89 85 85 82 77 75 77 80 86 86 91 97 91 88 86 87 92 96 93 90 88 81 72 70 74 80 83 92 94 84 79
100 98 95 90 93 98 100 100 100 100 93 90 86 79 78 83 85 87 95 98 97 94 93 90 87 88 89 91 92 93 90 86 81 74 72 76 82 82 96 81 67 63 55 38
97 95 94 99 100 100 100 100 100 100 96 94 94 94 94 94 92 86 79 75 76 79 78 74 78 83 84 82 78 76 74 71 72 76 74 72 79 77 72 50 41 38 32 24
100 96 93 94 91 94 98 100 99 96 95 91 90 89 90 94 94 94 92 93 92 90 89 86 81 83 83 81 70 64 70 75 72 82 74 76 72 62 37 28 23 20 16 13
97 97 92 95 93 90 83 84 90 89 89 92 92 93 94 95 95 98 97 94 92 94 94 88 78 70 65 64 65 66 60 53 53 52 50 42 33 31 24 17 13 11 11 12

GFSNW_250_rhum_006.txt.gz
RH
19 36 100 80 62 29 44 33 45 56 41 37 17 40 74 64 62 67 61 64 47 34 26 23 27 28 33 37 35 31 33 27 34 71 68 60 54 52 61 71 72 72 72 74
18 23 32 36 28 29 39 42 53 61 34 42 28 70 84 78 63 63 60 45 27 28 34 43 48 51 48 39 33 30 34 58 68 57 48 50 58 68 71 75 79 79 74 67
14 16 22 23 25 34 44 35 57 50 52 38 45 85 91 81 60 62 51 31 27 38 52 55 58 55 46 36 27 34 67 69 54 56 67 72 75 76 78 75 75 72 66 66
11 13 17 20 29 37 39 43 67 48 83 47 80 91 87 73 64 55 42 30 30 35 45 53 68 59 47 30 56 82 69 60 62 74 78 81 84 82 78 73 72 72 68 70
8 14 17 22 23 32 39 53 57 69 98 61 96 89 93 74 65 54 36 31 30 31 43 58 74 62 59 59 83 84 70 69 79 83 81 80 85 94 80 81 72 72 70 77
9 12 16 20 22 32 36 65 71 86 89 68 85 91 95 77 71 56 31 32 33 33 45 60 75 74 87 83 82 84 86 74 80 85 83 93 100 77 80 68 60 57 65 69
11 14 15 19 29 39 45 64 95 96 80 81 95 87 97 80 68 53 34 35 34 34 44 63 72 80 81 88 78 73 70 72 80 82 86 99 100 90 71 60 66 65 73 80
13 17 22 24 33 34 59 77 93 98 73 93 91 89 91 79 69 63 35 42 38 36 41 60 76 79 72 83 82 81 84 87 90 95 86 95 100 99 91 77 77 71 84 82
16 20 25 29 29 54 68 90 89 88 85 100 91 91 89 73 68 76 49 55 49 39 41 60 66 83 88 86 82 74 68 70 75 80 74 91 96 89 83 86 94 100 98 91
17 20 26 28 41 74 76 89 93 85 96 99 92 93 91 77 82 84 61 65 59 47 45 66 70 73 79 81 81 80 83 84 83 74 73 79 76 79 92 99 97 94 97 100
19 22 26 40 72 71 74 86 93 99 100 99 92 92 85 82 88 91 72 59 65 59 51 61 58 61 63 68 69 68 70 71 68 67 68 61 76 83 99 93 88 86 89 97
24 26 39 78 72 70 77 94 100 100 97 100 100 93 87 86 84 84 68 57 64 78 67 60 67 73 73 66 67 66 70 67 68 79 86 76 76 80 82 84 94 97 92 74
33 42 69 84 81 74 84 99 100 100 93 100 100 93 91 97 87 84 76 77 74 69 66 62 62 60 65 65 66 66 70 70 80 80 81 73 72 84 87 81 91 84 69 60
77 81 78 73 79 85 94 100 100 100 97 100 100 94 97 100 94 94 94 97 96 79 75 82 76 80 94 91 88 90 97 77 68 84 99 94 100 86 65 71 76 62 56 57
82 80 82 81 84 95 100 100 100 100 98 100 100 100 94 100 100 98 100 100 94 90 92 98 99 97 93 98 100 100 100 98 96 94 91 84 82 83 98 97 76 55 68 83
88 91 100 97 98 100 100 100 100 100 97 94 97 97 91 99 100 100 100 99 95 100 100 99 100 100 95 91 96 100 100 97 84 88 100 100 90 78 67 62 82 96 94 84
100 100 100 100 100 100 100 100 100 100 90 99 99 92 91 88 90 94 97 96 100 100 100 100 100 98 86 82 78 94 100 100 100 100 86 72 64 70 79 88 89 75 69 63
100 100 98 99 100 100 100 100 100 99 94 96 100 100 99 99 100 100 100 100 100 98 93 90 89 90 99 100 100 100 100 100 95 76 68 72 74 74 77 74 68 68 73 84
94 94 99 92 97 100 96 98 94 93 98 100 98 99 99 98 98 94 93 96 88 85 88 94 95 99 100 100 100 98 98 94 86 85 83 77 77 78 75 75 86 89 90 85
82 86 98 100 100 100 98 100 98 100 100 100 100 100 100 97 95 92 88 86 86 88 92 96 96 100 100 100 100 90 79 82 85 85 85 86 85 91 100 98 88 86 85 70
87 86 100 100 100 98 94 92 100 100 99 100 100 100 100 100 100 98 92 92 93 94 100 98 98 100 100 100 89 83 79 81 81 80 81 87 98 100 95 86 78 68 72 76
89 100 97 100 100 100 100 97 98 99 99 99 100 100 100 100 100 100 100 100 100 90 99 94 94 100 91 82 76 75 76 82 90 98 100 96 90 85 79 76 78 82 80 76
87 98 100 100 97 93 99 100 100 100 100 100 100 100 100 100 94 86 76 71 73 76 73 83 99 89 82 80 78 82 92 98 100 98 90 86 85 82 83 87 90 89 81 76
78 94 96 96 99 100 100 100 100 96 96 98 95 93 92 92 88 85 86 80 80 82 85 88 86 84 83 80 80 90 91 86 80 86 92 90 92 90 90 89 73 64 64 52
84 83 75 77 83 88 95 98 91 79 77 84 90 96 95 94 91 90 84 81 82 89 91 89 85 81 84 89 87 82 83 94 100 95 88 85 79 66 56 55 62 50 38 32
85 84 76 82 88 94 98 100 100 100 100 100 96 86 84 84 85 85 86 79 73 75 76 77 83 87 86 86 90 97 99 92 82 74 68 62 58 56 52 42 35 29 25 22
89 95 100 100 98 92 91 92 93 96 99 96 94 91 91 87 81 81 84 84 80 80 82 86 95 99 96 91 87 79 71 63 57 52 48 46 42 34 30 23 22 19 16 13

GFSNW_250_rhum_009.txt.gz
RH
20 23 30 34 39 36 35 41 60 81 99 84 79 93 96 75 36 22 45 57 59 64 65 59 53 37 35 35 32 38 44 39 35 31 34 35 56 78 78 71 63 62 64 70
16 20 51 51 66 47 46 64 98 100 100 81 93 98 100 49 28 40 69 64 63 61 59 46 29 23 21 22 26 29 28 29 34 38 51 69 75 75 74 73 73 76 71 74
10 15 28 54 47 39 42 76 63 74 79 88 93 92 73 44 28 65 70 69 62 49 33 29 29 35 41 46 45 39 44 42 47 56 72 81 78 76 77 78 78 77 67 62
6 8 14 19 22 24 38 49 75 75 93 98 92 84 48 36 51 81 69 60 56 37 28 43 49 52 55 45 41 36 35 38 68 77 72 71 78 83 81 78 76 76 61 62
5 5 9 12 17 25 30 42 55 72 77 75 68 55 44 50 79 84 63 53 43 31 42 47 54 57 54 44 36 31 38 72 75 66 73 77 92 93 76 74 76 79 71 80
4 5 6 10 14 17 25 37 36 49 48 57 54 46 53 74 96 74 57 50 38 33 43 47 54 58 55 45 33 39 73 76 66 66 72 82 89 76 75 69 69 62 69 69
3 5 6 8 10 25 34 30 37 40 48 72 58 52 66 82 92 70 54 49 36 35 36 38 48 58 56 41 46 66 75 71 65 67 74 82 85 69 75 76 72 56 69 70
4 5 7 8 16 22 25 33 47 52 73 71 57 65 95 93 82 70 61 53 33 36 39 36 46 58 62 60 59 69 71 77 81 74 74 76 80 89 84 79 73 63 81 74
4 7 8 11 16 23 33 52 44 70 76 64 76 79 98 90 88 77 65 62 29 38 44 36 42 59 64 65 70 70 74 74 74 72 69 76 83 85 92 82 69 88 78 70
7 9 11 15 18 20 44 64 55 80 69 68 89 90 99 97 91 81 73 70 40 37 46 38 39 52 65 72 76 80 88 84 82 81 82 85 88 82 79 75 76 69 73 80
11 12 16 18 21 27 32 49 56 78 63 74 93 94 99 91 93 83 80 75 53 55 56 50 44 45 69 72 77 86 95 99 94 82 77 77 76 75 80 76 72 75 80 79
11 14 17 22 29 33 39 50 67 70 65 82 97 100 98 89 93 85 82 86 70 53 71 69 63 54 70 81 84 81 86 86 88 85 67 61 65 75 66 68 82 85 79 91
16 19 20 26 35 44 48 62 65 83 82 96 100 94 100 88 90 85 76 82 85 80 86 71 70 72 68 79 85 75 75 70 64 69 72 62 62 63 69 80 80 82 86 87
22 23 24 27 37 54 61 74 82 83 99 100 100 100 97 95 96 83 78 95 100 100 90 76 71 84 89 91 84 82 71 63 59 68 73 75 90 79 77 68 70 84 97 87
25 25 29 36 48 46 52 90 97 100 98 100 100 100 99 100 99 84 80 96 100 100 96 84 76 86 86 80 75 75 77 81 90 96 99 100 90 78 81 82 98 97 92 78
28 32 37 41 48 78 93 100 100 100 100 100 99 99 98 100 100 86 85 98 100 100 97 89 88 89 84 88 94 96 100 100 100 100 98 81 84 73 81 91 100 100 87 67
37 43 48 71 93 100 100 100 100 100 100 100 100 100 98 99 100 94 92 100 100 99 100 100 95 91 95 98 100 100 100 100 100 85 77 71 78 77 84 85 84 80 76 81
64 89 100 100 100 100 99 99 100 100 100 100 100 93 99 92 89 96 100 98 97 90 93 99 100 100 100 100 100 100 100 94 89 86 82 77 80 93 91 84 75 68 73 73
92 99 100 100 100 100 100 100 100 100 100 100 100 100 93 92 88 86 89 89 95 98 99 98 98 100 100 100 100 99 95 93 85 79 82 98 95 88 74 68 75 72 69 75
100 100 95 100 100 100 100 99 97 100 89 100 100 97 100 94 99 100 91 86 84 80 86 91 94 100 100 100 93 86 86 82 80 86 100 98 87 81 80 69 73 76 86 97
100 99 100 100 100 100 100 94 81 99 85 93 100 100 100 100 99 97 90 91 83 77 80 85 89 95 100 94 92 87 80 84 92 85 74 76 78 75 76 82 86 91 99 93
91 97 96 100 100 100 98 99 91 99 99 100 100 100 100 100 100 100 98 92 89 88 91 89 88 100 100 100 100 99 87 78 79 81 80 82 87 94 92 94 98 100 97 95
96 92 89 82 93 94 93 88 87 92 100 100 100 100 100 100 99 99 98 92 90 89 83 84 95 100 100 92 82 77 80 87 90 95 97 100 99 99 100 100 99 97 94 91
94 92 91 87 91 92 100 100 100 100 100 100 100 100 100 100 100 94 92 85 88 78 73 83 94 89 81 77 77 80 90 96 94 93 93 99 100 100 99 98 95 89 79 78
78 75 68 76 89 98 98 98 98 100 100 100 100 100 100 98 89 87 87 91 92 91 90 92 89 88 89 90 94 95 89 84 89 96 99 99 95 93 90 80 76 76 68 60
56 63 63 65 89 99 100 99 97 91 83 74 70 71 74 81 89 93 92 89 84 84 86 90 93 93 90 86 81 78 80 88 98 99 93 86 79 73 73 69 63 58 41 35
53 57 66 71 79 90 92 89 86 86 94 99 99 100 100 100 100 96 88 83 82 79 74 70 69 72 74 78 87 96 99 94 90 85 78 71 71 63 59 60 40 31 28 26

GFSNW_250_rhum_012.txt.gz
RH
20 21 22 22 25 27 34 40 65 53 73 71 73 71 74 59 46 54 55 45 46 34 48 56 55 52 46 46 36 32 39 41 54 62 96 97 98 66 34 36 56 70 70 65
14 17 20 21 24 24 34 41 65 64 70 55 85 100 74 60 63 68 60 53 54 51 64 71 65 59 61 60 63 69 80 88 89 100 84 60 43 31 55 78 75 67 58 55
10 12 14 16 17 21 25 29 37 44 46 76 74 71 66 67 75 75 67 58 64 66 72 71 65 52 48 38 38 37 38 50 61 44 30 35 38 78 85 81 66 60 49 52
8 10 11 11 14 13 16 28 32 40 39 69 95 86 97 96 77 92 78 57 51 73 79 61 42 42 31 22 21 22 26 28 27 30 37 42 80 88 84 80 61 65 52 63
4 7 7 10 14 12 14 20 30 43 74 100 94 93 98 97 75 78 60 62 58 74 72 47 41 32 28 36 43 44 39 35 36 39 49 82 82 82 79 62 60 71 71 70
3 4 6 7 11 11 11 18 30 40 72 80 77 100 100 100 86 54 57 48 65 71 62 42 40 38 42 50 45 47 41 31 33 42 89 80 79 67 64 69 72 71 76 74
3 4 5 5 8 8 21 24 22 31 59 69 98 100 100 88 99 83 52 60 86 68 55 38 41 44 59 57 51 44 32 25 34 59 79 79 62 59 67 75 72 62 82 85
3 4 3 5 5 10 16 19 26 31 42 51 85 86 41 67 75 49 50 60 95 60 51 37 41 50 62 58 60 47 30 32 62 78 76 67 66 68 67 71 62 76 91 82
3 3 3 4 6 12 12 20 22 28 46 58 67 61 76 70 40 48 65 88 88 53 46 37 38 45 49 53 60 54 40 52 77 81 69 67 70 74 71 68 62 82 81 85
2 3 3 4 11 10 15 22 32 51 65 55 54 60 89 70 57 84 94 94 71 51 45 42 44 39 40 46 58 64 49 52 71 75 81 82 87 85 81 78 85 85 94 94
2 3 4 9 10 11 20 31 64 100 88 86 84 92 98 71 90 96 90 90 67 53 53 45 39 51 42 42 57 74 73 75 74 75 82 82 78 82 91 94 90 96 98 91
3 4 8 10 10 17 23 32 99 100 99 99 71 98 96 90 94 94 94 90 73 60 66 52 47 59 52 42 50 70 87 88 92 87 85 100 100 100 96 94 100 89 79 78
5 7 9 11 15 19 33 41 84 82 80 93 99 100 99 100 100 100 100 96 81 69 71 72 56 60 63 56 51 50 68 86 93 100 90 88 95 96 75 82 81 78 85 99
7 9 12 17 18 23 25 45 90 99 90 98 100 100 100 97 98 100 87 95 95 81 75 73 68 71 75 79 73 70 65 78 84 100 91 84 82 78 73 69 80 100 100 98
9 14 18 20 24 26 44 76 100 100 94 89 100 100 99 99 100 97 92 99 96 82 83 85 90 93 86 86 80 80 78 80 88 99 94 87 69 62 72 96 100 100 95 74
12 16 21 23 35 63 99 100 100 99 82 100 100 100 99 100 100 100 95 98 89 87 85 98 100 100 89 86 86 80 85 98 89 88 85 75 76 100 100 100 100 90 73 74
19 22 23 31 40 73 98 81 100 95 100 100 99 100 93 100 100 99 100 99 91 92 89 97 100 100 100 98 95 93 100 94 90 85 87 88 100 100 100 100 90 77 79 87
22 23 25 29 36 76 90 92 94 100 100 96 98 99 100 99 100 99 98 96 92 95 94 90 96 98 96 94 97 99 100 91 98 97 100 97 94 89 80 74 75 86 95 91
28 29 33 46 66 90 94 80 96 100 96 99 100 100 100 100 100 100 100 97 97 93 93 88 90 96 90 99 100 100 100 95 99 100 100 100 97 84 82 86 90 91 81 77
46 49 65 93 94 100 88 93 100 100 100 95 98 100 100 100 100 100 100 100 99 95 84 80 83 94 100 100 100 100 98 94 89 86 87 87 88 94 97 97 94 89 69 69
78 94 98 95 97 92 100 100 100 100 91 97 96 97 100 100 100 100 97 91 80 76 78 83 92 99 100 99 92 86 84 80 72 72 76 85 89 90 87 79 68 65 70 72
78 90 86 96 100 100 100 100 97 90 91 82 84 95 100 100 100 100 100 95 86 78 90 93 89 95 99 94 92 86 83 82 82 84 86 83 80 74 70 68 74 76 82 93
92 99 99 93 92 90 97 95 100 100 92 82 84 89 100 100 100 100 100 100 88 91 92 89 96 100 100 97 87 85 88 88 88 84 77 73 74 82 85 86 93 98 99 96
99 99 97 98 100 100 100 100 97 88 93 98 100 100 100 100 100 100 100 100 93 83 83 88 100 100 99 92 78 76 78 81 87 93 98 100 100 100 99 97 99 98 93 85
96 89 81 90 87 90 99 99 93 88 96 96 98 98 91 88 88 91 93 91 85 81 85 88 87 89 87 89 98 97 93 92 94 92 93 92 87 88 94 92 86 86 85 84
79 80 78 74 84 90 89 96 100 100 100 99 99 97 94 90 87 89 88 84 76 74 76 74 76 80 87 85 80 78 83 82 78 76 78 81 79 77 80 82 82 82 83 79
89 88 86 83 80 86 90 84 93 100 100 100 100 100 99 93 87 86 81 76 76 77 83 88 90 91 88 88 87 85 86 86 84 82 84 86 86 83 78 76 75 73 68 60

GFSNW_250_rhum_015.txt.gz
RH
41 36 42 72 65 57 56 55 74 61 41 42 56 70 62 54 37 50 60 77 70 73 47 32 42 24 54 52 34 22 22 29 33 37 39 38 36 31 30 79 84 83 64 40
26 33 26 35 54 50 46 44 87 89 55 66 62 67 55 44 44 77 81 80 74 81 51 32 31 27 64 72 70 75 55 38 30 35 37 30 29 54 99 98 53 39 36 39
14 20 22 30 35 43 48 38 63 55 46 61 69 74 64 65 48 80 76 76 76 68 45 38 32 32 57 66 59 65 65 70 88 78 67 77 82 90 93 56 34 31 56 58
13 14 17 24 27 35 33 34 53 45 42 50 68 83 81 64 59 65 77 95 88 62 40 37 39 34 62 64 51 49 41 50 53 64 71 70 71 50 29 27 27 57 62 62
7 13 12 14 24 24 28 28 40 36 35 42 49 52 53 50 51 84 85 88 72 67 47 44 40 32 67 48 41 34 24 23 25 26 23 30 27 29 30 32 41 66 47 57
3 5 12 13 15 14 14 21 35 35 34 40 39 47 59 71 57 54 89 82 66 59 39 53 49 51 64 44 33 34 37 45 43 44 37 35 39 29 32 58 58 50 52 56
3 3 5 9 10 12 13 24 36 32 30 27 46 63 57 85 85 93 100 100 92 77 57 60 44 50 70 48 95 100 80 57 56 50 38 49 32 42 57 66 47 56 67 76
2 3 4 4 5 9 15 18 18 26 23 45 43 59 72 98 97 96 81 100 88 89 70 53 42 65 68 47 100 88 89 46 56 48 39 43 45 64 66 60 57 70 77 72
2 3 3 3 4 6 17 16 18 26 29 27 44 94 98 81 92 100 90 100 79 65 58 55 62 72 65 42 49 64 54 56 56 45 36 50 78 86 71 60 61 78 76 80
2 2 3 3 4 6 10 15 20 20 30 35 35 34 55 97 100 84 93 78 99 64 47 53 82 85 61 42 47 59 57 57 63 47 48 69 91 89 79 72 68 77 82 84
2 2 2 3 5 7 9 12 18 26 29 34 32 32 52 57 68 66 63 100 90 63 57 81 92 88 57 43 41 48 43 50 66 73 64 71 83 97 83 80 81 88 88 87
2 2 2 4 6 9 14 17 21 23 28 40 38 36 41 42 47 60 76 97 88 83 88 92 89 82 51 46 44 42 39 46 65 80 80 91 89 82 90 89 99 96 94 100
2 2 3 5 8 12 20 21 23 30 36 63 54 48 47 52 56 86 98 71 76 77 82 87 84 70 50 51 46 50 44 42 52 68 82 96 95 100 100 100 100 96 94 100
2 3 4 8 13 21 26 35 75 85 95 100 95 78 74 61 91 96 100 88 95 98 100 98 87 68 57 61 50 54 62 50 50 65 53 66 82 95 100 100 96 86 95 96
3 5 9 13 17 28 63 85 83 99 100 100 100 100 98 83 100 100 100 88 94 92 93 95 89 73 63 70 69 59 68 76 72 80 90 70 76 78 85 94 100 100 95 82
5 7 11 15 20 52 71 100 100 100 100 100 98 100 100 100 100 100 100 93 89 88 86 100 96 84 77 74 74 77 69 74 78 85 94 100 100 99 95 86 84 80 83 100
6 9 12 16 25 38 78 100 100 100 100 100 100 98 100 100 100 100 100 93 86 92 90 96 100 98 90 83 80 95 87 90 89 84 83 93 96 97 94 93 91 98 100 100
8 12 19 30 78 97 93 86 100 100 100 100 100 86 100 100 100 100 98 100 100 89 100 99 96 97 92 87 92 96 97 92 92 92 88 83 84 87 88 94 100 100 97 98
11 15 25 57 100 100 100 100 100 100 100 100 100 100 100 100 100 100 100 100 99 95 93 95 97 96 93 92 94 99 93 100 100 100 97 91 89 90 92 91 83 82 85 89
15 22 22 25 24 46 52 76 76 65 90 100 98 100 100 100 99 100 100 100 95 82 88 93 94 89 93 98 99 98 93 98 100 100 100 98 90 84 84 88 94 95 94 95
19 22 24 25 33 51 59 61 90 100 100 100 100 100 100 99 100 100 99 91 84 76 78 90 88 94 94 93 99 99 100 100 96 89 82 82 86 88 93 97 99 95 84 78
25 30 41 57 56 50 63 60 81 96 100 100 100 100 100 100 100 99 96 96 94 85 84 86 89 100 100 100 100 100 97 87 82 77 78 84 90 92 89 79 73 74 74 73
53 62 86 87 73 68 69 100 100 100 100 100 100 100 100 100 100 100 100 94 84 80 77 77 94 100 100 100 98 87 87 85 78 82 84 78 75 76 76 78 76 74 70 70
60 71 80 75 69 75 95 100 100 100 100 100 100 98 100 94 96 97 94 86 92 91 76 68 96 100 100 100 95 88 84 85 83 86 83 84 91 95 91 81 73 74 77 77
95 86 95 95 99 94 97 98 99 100 100 100 100 98 99 96 90 85 81 84 90 94 99 100 100 87 78 81 87 84 84 90 94 88 91 91 91 85 80 77 76 76 76 75
93 96 99 98 100 100 100 98 98 92 95 98 94 91 88 79 71 68 65 67 82 100 100 97 94 94 93 89 89 90 91 90 89 86 81 79 75 70 71 72 77 81 82 81
96 95 97 99 95 95 94 95 93 88 86 83 78 74 73 77 72 70 76 81 84 85 93 93 95 100 100 99 96 93 87 79 75 73 73 74 80 83 81 79 82 81 74 72

GFSNW_250_rhum_018.txt.gz
RH
20 27 62 63 91 100 100 90 63 96 71 70 78 81 71 86 66 62 60 51 53 58 39 34 51 53 44 35 28 25 23 20 21 24 31 34 66 74 54 79 53 41 29 25
17 19 28 40 74 88 100 100 88 84 46 65 75 59 64 87 66 71 59 58 62 55 38 46 42 53 47 34 30 28 28 43 31 22 28 24 30 32 35 41 37 48 51 52
11 16 18 29 51 80 88 99 68 99 35 92 93 61 80 98 68 57 54 55 50 49 39 49 44 69 51 33 33 26 41 50 55 61 46 40 54 51 48 55 77 79 81 62
4 12 17 19 25 44 69 60 52 66 94 99 99 76 99 100 53 56 59 61 60 52 45 54 70 83 34 29 33 33 55 62 54 55 62 70 96 92 94 90 92 86 61 40
3 6 14 14 20 21 36 36 55 66 99 100 93 84 88 89 82 91 82 88 77 61 70 78 91 60 30 36 36 48 59 62 43 30 38 47 54 61 67 58 52 33 25 27
3 3 7 13 14 19 14 17 49 81 100 100 90 100 100 100 100 91 72 87 72 62 56 54 91 60 42 48 39 60 60 53 40 24 22 23 29 26 23 25 24 33 32 50
3 3 4 6 12 11 15 20 35 66 68 59 99 98 100 100 95 93 79 72 77 76 65 79 56 44 51 50 50 73 57 43 39 36 33 43 42 33 33 34 38 41 70 84
3 3 4 3 5 8 12 17 30 66 71 96 90 87 96 99 76 72 65 78 93 95 68 71 58 54 55 62 53 73 61 59 48 52 53 63 57 45 30 28 41 71 88 82
2 3 3 3 3 5 10 17 27 36 63 58 90 100 100 100 82 64 63 77 73 100 80 100 90 76 53 57 60 72 64 65 61 72 55 62 66 60 27 30 60 94 93 86
2 2 3 3 3 4 7 12 26 38 49 95 78 69 85 98 73 57 55 64 75 92 69 91 90 57 47 52 63 75 61 78 77 84 59 65 69 40 38 37 84 96 96 95
1 2 2 2 3 4 4 8 23 26 45 63 51 73 80 64 57 55 54 57 65 78 100 97 100 61 58 53 63 78 70 54 45 49 54 56 70 62 53 84 98 100 94 88
1 2 2 2 3 4 5 7 19 28 35 40 42 59 81 75 84 91 76 91 97 74 97 92 88 62 62 65 62 78 77 59 42 42 48 47 63 94 98 89 89 96 99 100
1 2 2 3 3 4 6 9 17 28 30 31 42 53 49 49 54 51 50 78 79 89 96 96 76 44 64 72 89 81 78 65 47 42 45 47 54 81 100 100 100 98 93 92
2 2 2 3 4 6 8 10 16 28 33 33 36 39 47 58 60 49 61 91 64 54 81 100 59 62 71 100 98 87 82 66 48 48 56 55 49 56 79 96 96 94 92 92
2 2 3 4 5 8 12 15 20 27 32 36 40 45 50 57 70 46 45 50 46 88 58 65 67 64 96 100 99 92 84 66 53 54 52 62 60 50 51 61 75 95 100 100
3 3 3 5 8 12 16 18 21 24 30 41 50 69 96 87 99 64 52 68 100 100 100 99 84 83 99 93 93 96 86 72 64 75 70 62 67 72 72 73 76 86 93 96
3 4 6 10 17 26 32 40 42 45 52 100 100 100 88 98 100 87 100 100 100 95 100 100 100 100 99 100 100 97 87 78 70 72 86 96 89 85 84 80 79 79 80 85
6 8 14 34 72 83 89 87 99 100 100 99 99 100 100 100 86 99 100 100 100 100 100 100 100 100 95 98 100 97 89 88 86 86 90 93 100 100 99 100 100 99 96 93
9 12 42 66 100 91 100 100 100 100 100 100 96 100 100 95 91 94 100 100 100 100 100 94 99 95 85 96 100 100 100 95 92 93 93 95 90 87 93 96 98 94 83 80
17 31 48 60 100 100 100 100 100 100 100 100 100 100 100 100 100 100 100 100 100 100 100 100 100 97 99 100 100 100 100 97 92 90 88 83 82 88 94 93 86 78 79 85
22 30 46 44 85 100 100 100 92 100 100 100 100 100 100 100 100 100 100 100 100 100 100 97 100 100 100 100 98 100 100 100 94 91 92 93 91 90 89 87 84 89 90 90
30 39 58 96 100 100 97 100 100 97 100 100 97 100 100 100 100 100 100 100 100 100 99 97 100 100 96 94 96 89 86 97 100 100 100 100 100 98 92 92 95 95 96 93
99 100 99 96 76 93 98 100 92 82 87 91 96 100 100 100 100 100 100 100 95 94 93 100 100 100 93 86 82 84 82 77 86 90 93 92 89 86 86 86 90 94 90 85
27 39 31 38 41 54 77 100 90 93 72 84 100 100 100 100 100 100 100 100 95 96 100 100 100 96 93 90 89 83 81 76 69 66 67 63 66 73 82 90 88 88 89 81
26 29 26 51 64 74 80 100 95 82 84 88 84 83 86 96 100 89 96 92 86 99 100 99 94 96 91 82 83 82 80 78 78 74 77 78 77 85 92 98 95 83 75 73
43 43 49 65 66 91 100 100 100 100 100 95 80 93 98 100 100 100 98 91 98 97 96 94 89 80 76 77 80 84 94 98 94 90 96 99 100 95 82 76 75 78 83 82
57 60 60 81 87 100 100 100 99 96 97 100 100 97 93 92 93 93 97 96 96 94 87 78 74 72 70 67 66 73 82 91 97 96 93 90 88 90 93 97 93 87 86 80

GFSNW_250_rhum_024.txt.gz
RH
3 4 5 7 6 7 8 12 18 28 36 31 45 58 99 100 100 100 100 100 100 100 100 100 100 100 99 93 72 58 42 34 26 26 26 24 29 23 45 63 89 100 98 98
2 3 4 6 6 6 7 8 16 27 37 17 51 80 91 100 100 100 100 100 100 100 100 100 100 100 100 90 73 58 45 38 26 29 26 24 39 39 22 45 57 64 61 65
2 2 4 5 6 6 7 7 12 24 25 26 54 99 100 100 100 100 100 100 100 100 100 100 100 100 100 85 71 50 51 42 28 30 26 29 48 52 37 22 26 31 35 28
2 2 3 4 6 6 5 5 8 19 22 24 66 100 100 100 90 98 100 100 100 100 100 100 100 100 99 80 64 58 54 42 31 29 25 28 62 58 58 50 38 38 37 48
2 2 3 4 5 5 4 4 8 13 27 31 53 100 100 100 88 97 100 100 100 100 100 100 100 100 97 78 69 64 58 46 30 35 26 28 62 50 42 47 57 64 79 84
2 2 2 3 5 4 3 4 7 13 24 27 40 71 100 100 100 100 100 100 100 100 100 100 100 100 91 86 82 70 70 55 39 34 34 28 55 54 52 33 22 32 34 34
2 2 2 3 4 4 4 4 7 12 15 27 58 100 100 100 100 100 100 100 100 100 100 100 100 100 89 69 66 81 70 57 37 40 43 37 36 48 49 35 29 34 39 39
2 2 2 2 4 4 4 4 6 12 20 38 78 99 100 100 100 100 100 100 100 100 100 100 100 100 77 71 91 84 71 55 47 50 40 38 52 44 48 55 55 51 50 53
2 2 2 2 4 4 4 5 7 12 21 36 84 100 100 100 100 100 100 100 100 99 99 90 90 88 79 88 92 80 68 59 53 52 39 38 50 49 52 64 96 56 34 44
2 2 2 2 3 3 3 4 6 9 22 38 89 98 100 100 100 100 100 100 79 80 95 98 94 96 99 91 87 75 65 63 58 61 52 45 52 52 54 77 86 76 70 68
2 2 2 2 3 3 3 4 5 10 22 37 88 100 100 100 100 100 100 100 90 93 97 85 100 100 100 100 97 86 74 59 65 57 57 66 48 49 58 56 77 81 71 64
2 2 2 3 3 3 3 4 4 10 22 27 66 100 100 100 100 100 100 100 100 100 100 99 100 100 100 100 95 93 79 60 63 64 62 69 62 51 55 63 57 56 53 49
2 2 2 3 3 4 4 4 5 10 20 29 54 100 100 100 100 100 100 100 100 100 100 100 100 100 100 100 100 92 74 66 63 67 65 66 62 59 64 74 74 71 68 56
2 2 2 3 4 4 3 4 5 9 20 29 50 98 100 100 100 100 100 100 100 100 100 100 100 100 100 100 96 78 84 84 83 73 61 45 66 83 78 81 78 78 75 73
2 2 2 3 3 4 4 4 6 8 16 27 39 84 100 100 100 100 100 100 100 100 100 100 100 95 100 100 98 83 100 86 78 79 57 61 88 100 96 97 93 89 88 82
2 2 2 2 3 4 4 5 6 8 15 30 35 43 88 100 100 100 100 100 100 100 100 100 100 100 100 100 84 99 99 92 84 79 58 70 100 100 100 99 100 99 98 97
2 2 2 2 3 4 5 6 8 8 13 25 36 38 57 99 79 98 100 100 100 100 100 100 100 100 100 87 84 100 96 85 70 60 80 100 99 100 98 100 100 100 100 100
2 2 2 2 4 5 5 6 8 10 16 25 31 39 41 44 76 96 99 100 100 100 100 100 100 100 100 100 97 85 80 72 78 93 100 100 98 100 90 94 100 100 100 100
2 2 3 4 5 6 6 7 9 13 16 19 24 31 39 40 42 66 100 100 100 100 97 100 100 100 97 93 96 100 100 100 100 100 100 100 100 99 99 100 100 89 92 97
2 3 4 4 5 6 6 7 8 10 14 18 25 38 44 48 53 72 99 100 100 100 100 100 99 91 76 64 77 92 100 100 100 100 100 100 87 95 100 100 96 85 81 82
3 4 4 4 4 5 5 6 9 12 15 22 32 36 45 58 67 79 80 93 96 95 85 97 100 99 100 100 100 100 100 100 70 88 87 82 90 100 100 100 87 91 95 99
7 7 7 7 7 8 12 15 19 22 26 33 40 55 60 100 100 100 89 74 74 96 100 100 100 100 100 100 100 100 100 99 83 74 98 100 100 100 100 100 100 99 98 92
10 10 14 16 20 21 22 28 29 29 31 36 46 52 82 100 100 100 100 100 100 100 100 100 100 100 100 100 100 100 100 91 86 97 100 100 100 100 100 99 83 73 75 85
13 18 26 28 34 44 55 62 69 71 71 61 60 69 70 78 88 92 100 100 100 100 100 100 97 100 100 100 100 100 100 89 90 94 98 100 100 100 100 91 82 84 90 92
24 26 41 40 43 52 60 64 66 83 97 100 100 90 100 100 100 100 100 98 100 100 100 100 100 100 99 92 91 96 98 88 76 86 91 86 83 90 84 84 84 92 88 75
23 28 25 40 44 57 43 52 66 53 65 77 89 88 96 100 100 100 100 92 88 93 91 90 93 77 66 77 79 79 81 86 91 98 96 93 92 83 81 80 82 87 79 72
24 27 22 26 36 43 26 35 58 88 90 79 99 100 100 100 100 100 99 100 100 100 100 95 90 92 85 65 64 66 68 74 80 80 82 81 73 73 90 88 77 72 70 75

GFSNW_250_rhum_027.txt.gz
RH
4 3 3 4 5 6 6 5 4 8 10 14 14 21 28 33 33 38 44 87 100 99 100 100 95 100 95 52 86 100 83 86 58 48 36 32 29 29 30 23 46 58 82 99
4 3 3 3 3 4 5 5 7 6 7 9 10 20 29 34 36 39 53 94 100 100 93 100 98 100 83 85 100 100 99 87 65 46 35 34 30 30 29 38 41 45 76 96
3 4 3 3 3 3 3 4 5 6 4 5 9 16 32 33 45 42 73 72 99 100 100 100 95 100 87 100 100 100 99 74 61 50 39 34 30 30 33 44 50 32 44 55
3 3 3 3 3 2 2 3 4 5 4 4 8 18 29 36 51 46 84 71 100 100 100 100 100 100 92 100 100 100 93 78 69 56 39 37 34 33 30 51 53 57 42 38
2 3 3 3 3 2 2 3 4 4 6 8 9 17 26 44 68 71 64 92 100 100 100 100 100 100 100 100 100 100 99 93 77 52 39 43 39 31 37 37 52 51 54 67
2 2 2 3 2 2 2 4 4 5 7 6 8 18 31 65 100 85 88 100 100 100 100 100 100 100 100 100 100 98 90 78 64 49 39 54 41 39 40 36 52 54 35 57
2 2 2 2 2 2 2 4 4 6 6 5 13 24 35 68 100 100 100 100 100 100 100 100 100 100 100 100 100 100 100 83 64 48 42 62 42 37 37 42 50 45 34 36
2 2 2 2 2 3 3 3 4 6 6 10 16 25 48 89 100 84 100 100 100 100 100 100 100 100 99 100 100 100 96 87 57 44 54 58 49 42 44 40 56 54 56 55
2 2 2 3 3 3 2 3 5 5 7 10 19 33 77 100 100 97 100 100 100 100 100 100 100 97 100 100 100 100 82 65 59 68 61 69 51 44 40 44 64 37 59 66
2 3 3 3 4 3 3 4 5 6 6 11 21 40 82 100 100 100 100 100 100 100 100 100 100 100 100 100 100 100 88 68 77 76 76 80 59 47 43 43 50 47 50 61
3 3 4 4 3 2 3 4 6 6 7 10 24 35 55 100 100 100 100 100 100 99 85 82 100 100 100 100 100 100 100 91 83 73 74 83 60 56 47 43 40 51 57 65
3 4 3 3 2 3 3 5 6 7 6 11 24 36 52 100 100 100 100 100 100 91 96 100 100 100 100 99 100 100 100 86 60 71 95 84 76 62 57 56 50 48 60 67
3 3 3 3 2 3 4 5 6 6 6 12 24 41 58 93 100 100 100 100 97 87 100 100 98 100 100 100 100 100 94 75 68 85 98 92 79 65 72 70 58 54 66 67
3 3 3 3 3 3 5 5 6 6 8 16 31 48 66 100 100 100 100 100 100 95 99 100 93 87 93 100 100 100 96 82 91 96 100 87 70 70 78 67 62 50 87 89
3 3 3 3 3 4 5 5 6 6 9 17 29 34 39 100 100 100 100 100 100 100 98 96 100 100 100 100 100 96 100 100 84 100 96 82 75 72 88 80 66 56 87 86
2 2 2 3 3 4 5 5 5 6 10 19 28 34 58 100 100 100 100 99 100 100 100 100 100 100 100 100 98 100 100 100 100 100 99 91 75 93 96 81 66 83 94 96
2 2 3 3 4 5 5 6 6 6 10 14 21 30 49 95 100 94 93 91 100 100 100 100 100 100 100 100 100 100 100 100 100 100 91 87 95 98 93 85 86 98 95 92
2 2 3 3 5 5 5 5 6 9 14 19 30 37 60 97 99 76 84 96 100 100 100 100 100 100 100 100 100 100 100 100 100 100 100 92 87 90 87 79 94 87 83 85
3 3 3 4 5 5 5 5 5 7 13 22 35 38 72 92 91 76 80 97 100 100 100 100 100 100 100 100 100 100 100 100 100 100 100 98 88 79 77 77 72 79 100 91
3 3 4 4 5 5 5 6 7 8 12 21 27 37 57 62 71 74 85 92 100 100 100 100 100 100 100 100 100 100 100 100 100 100 100 91 84 78 78 68 92 100 100 100
3 3 4 4 5 6 6 7 7 9 14 22 28 36 47 50 62 71 81 91 98 100 100 100 100 100 100 100 100 100 100 100 100 100 87 64 68 62 65 76 83 97 100 99
3 4 4 5 6 7 8 7 8 10 13 21 31 36 39 43 54 72 80 88 96 100 100 100 100 100 100 100 100 100 100 99 92 69 71 56 65 58 85 98 95 85 75 73
4 5 5 6 7 8 10 11 12 12 14 18 25 32 38 43 52 58 64 83 100 95 96 100 100 100 100 100 100 100 96 92 96 98 83 83 90 88 88 97 100 98 97 96
7 7 7 10 11 13 15 16 15 15 16 21 28 35 44 48 55 65 74 69 72 64 87 99 100 100 100 100 100 90 85 97 100 100 100 100 100 100 99 100 100 99 100 100
15 13 15 15 16 16 17 15 16 20 22 26 28 35 43 51 64 74 78 80 74 72 75 92 94 100 100 100 100 100 100 100 100 100 100 100 100 94 91 98 94 94 97 89
18 22 28 26 25 26 26 30 30 31 34 32 34 39 45 50 47 50 55 64 77 81 88 92 100 89 82 91 89 72 86 93 100 97 97 90 92 93 92 80 72 75 80 81
23 27 28 47 41 37 38 44 58 70 73 91 94 92 92 93 100 100 99 95 100 100 100 84 83 86 99 100 98 98 93 92 90 79 70 73 86 81 62 68 72 69 85 88

GFSNW_250_rhum_030.txt.gz
RH
8 8 8 7 5 5 5 6 6 7 7 10 10 11 22 26 71 100 100 100 100 93 100 100 98 100 56 100 100 98 72 46 55 94 86 64 45 38 37 38 37 46 39 65
6 8 8 7 6 4 3 3 5 7 7 5 4 8 15 17 28 79 90 100 97 80 64 98 68 61 55 100 100 89 100 46 90 100 86 69 51 39 39 30 33 60 46 43
5 5 6 6 5 5 4 2 3 4 5 5 5 6 7 13 19 25 44 54 47 40 41 42 49 40 80 100 92 88 80 52 69 100 98 75 50 47 37 32 36 38 60 61
3 4 4 4 4 4 3 2 2 3 4 6 8 8 7 9 10 21 28 35 38 35 42 43 42 59 100 100 100 100 100 79 63 100 100 81 56 46 39 43 38 36 48 60
2 3 3 3 4 4 2 2 3 4 5 5 5 6 8 8 10 15 26 34 38 42 42 40 88 100 92 100 100 74 100 70 74 100 99 80 72 37 41 39 38 44 41 52
2 2 2 3 3 3 2 3 4 3 4 4 3 6 8 12 14 17 25 40 46 45 45 45 99 100 100 100 100 80 100 74 98 100 89 81 83 49 41 43 46 46 40 47
1 2 2 2 2 2 4 5 5 5 4 3 5 10 10 10 14 20 28 36 49 45 47 76 92 100 100 100 100 92 100 62 100 100 92 100 70 53 39 46 47 50 41 40
1 1 2 2 2 2 4 4 5 5 4 6 7 8 9 10 14 23 34 43 52 45 67 74 78 100 100 100 100 98 91 86 100 100 100 100 93 49 43 47 49 38 61 56
1 1 1 2 2 3 4 5 5 4 4 6 8 8 8 10 16 25 33 50 50 52 68 68 99 100 100 100 100 100 100 100 100 100 100 100 73 54 37 56 60 49 43 49
2 1 2 2 3 4 5 5 4 3 6 6 7 8 10 11 17 26 38 49 51 100 73 64 100 100 100 100 100 100 100 100 97 100 100 100 83 55 41 54 63 51 53 52
2 2 2 3 4 4 4 4 4 4 6 7 8 8 9 10 16 24 38 40 100 83 58 71 100 100 100 100 100 100 100 100 100 100 98 100 74 48 50 50 74 71 66 56
2 2 3 4 4 4 3 3 4 6 6 7 9 10 9 9 19 33 47 62 84 72 79 100 100 100 100 100 100 100 96 90 100 95 90 99 90 59 50 53 72 92 77 67
2 3 3 3 3 3 4 5 5 5 6 8 8 9 8 13 22 34 47 56 66 89 94 100 100 100 100 100 100 100 100 100 100 94 96 97 85 89 57 54 84 87 67 72
3 3 3 3 3 4 5 5 5 5 6 8 9 9 10 19 25 38 55 59 90 93 73 84 97 100 100 100 100 100 100 100 100 72 99 92 90 75 74 88 100 75 79 72
3 3 3 3 4 5 5 4 4 5 7 8 9 10 12 22 29 42 56 62 94 94 77 85 100 100 100 100 100 100 100 100 89 99 98 70 78 80 93 100 97 83 93 79
4 4 5 5 5 5 4 5 5 7 8 9 10 8 18 30 39 73 70 82 100 87 75 95 94 97 100 100 100 100 96 99 100 100 98 77 83 97 100 96 89 91 92 76
4 4 5 5 5 4 5 5 6 7 8 10 12 14 24 40 78 82 76 89 100 92 74 77 91 100 100 100 100 100 100 94 99 100 81 85 94 89 100 100 100 92 86 81
5 5 5 4 4 4 4 4 6 7 8 11 13 15 25 62 100 100 83 90 97 97 77 59 76 100 100 100 96 100 100 100 100 100 88 99 100 100 100 100 100 96 92 80
4 4 4 3 3 4 4 5 7 7 7 8 8 14 24 47 89 30 48 72 99 100 99 74 82 98 95 86 93 100 100 97 94 98 100 100 100 100 100 100 100 100 94 85
4 3 3 3 4 4 6 6 6 5 4 5 9 19 30 35 58 53 74 51 59 100 100 99 78 96 100 100 100 100 100 100 100 100 100 100 100 100 100 100 100 94 88 76
3 3 4 4 5 6 6 6 6 5 6 10 19 34 38 43 57 44 58 72 67 100 100 98 96 100 100 100 100 100 100 100 100 100 100 100 100 100 100 100 88 91 93 89
4 4 5 6 7 7 7 7 7 8 8 9 20 34 42 51 44 48 67 60 81 100 100 97 100 100 100 100 100 100 100 100 100 100 100 100 100 100 99 97 100 96 79 64
4 5 6 8 8 9 9 8 8 9 9 16 22 32 34 41 43 44 38 51 87 99 100 99 100 100 100 100 100 100 100 100 100 100 100 100 100 100 100 100 96 82 68 74
6 7 8 9 10 11 11 11 10 9 12 17 21 26 30 32 43 45 44 71 91 86 100 100 100 100 100 100 100 100 100 100 100 100 100 100 100 100 100 88 91 79 94 100
7 7 8 10 9 11 11 12 12 13 16 20 23 26 31 37 47 60 64 87 93 96 100 100 98 98 100 100 100 100 96 96 94 98 100 99 98 99 100 99 97 97 100 99
11 12 14 16 16 16 16 16 16 16 17 21 25 28 34 40 46 54 75 98 97 100 100 100 100 100 100 100 98 96 98 88 99 96 92 90 87 88 88 91 91 99 96 93
13 18 17 16 15 15 15 15 15 17 18 19 22 29 37 42 48 60 83 90 78 84 79 75 75 73 74 95 99 89 80 80 71 78 82 77 78 86 96 98 96 98 100 94

GFSNW_250_rhum_033.txt.gz
RH
8 8 8 8 8 8 7 7 7 9 9 10 9 10 16 20 26 48 49 100 100 100 100 100 100 100 100 100 100 100 100 100 94 91 82 79 41 96 94 64 44 42 35 35
12 11 12 13 11 9 7 5 6 7 8 7 6 6 8 14 17 18 29 46 94 99 100 100 100 100 100 100 100 100 99 95 100 93 100 70 50 100 99 73 45 47 40 42
12 13 14 14 14 13 10 5 5 6 5 6 7 7 8 8 9 12 18 31 47 87 100 100 100 100 100 100 100 100 100 94 92 100 99 64 52 100 100 72 52 42 47 36
8 8 8 9 9 9 9 5 3 6 6 6 9 8 9 8 7 7 12 24 31 44 92 100 100 100 100 100 100 100 97 75 85 100 100 93 43 97 100 91 56 44 45 38
5 5 5 6 7 8 6 4 2 6 8 9 6 5 4 6 8 8 8 14 28 42 55 100 100 84 91 95 100 100 97 82 67 92 98 94 46 73 100 97 60 55 44 44
3 3 4 4 5 4 4 3 4 5 6 6 5 6 8 8 8 7 9 12 19 30 42 62 98 85 83 70 86 98 100 67 53 100 100 100 98 93 94 94 60 60 47 46
2 2 2 3 3 3 3 4 4 4 6 8 7 9 10 8 7 9 11 11 13 19 28 36 47 51 49 57 80 81 62 52 100 100 100 60 99 80 100 77 68 62 47 56
2 2 2 2 2 2 3 4 3 5 6 7 8 6 7 6 6 8 13 11 16 21 21 28 32 37 40 50 48 42 46 100 100 100 92 99 100 100 99 93 73 59 48 63
2 2 2 2 2 2 2 3 3 4 5 6 6 6 8 7 7 10 10 12 16 17 18 23 33 36 38 37 40 41 52 100 100 100 100 100 100 94 95 86 90 34 73 54
1 2 2 2 2 2 2 3 4 5 6 5 5 6 9 10 9 10 13 10 9 14 16 22 34 38 40 44 45 65 62 99 100 100 99 100 100 100 100 96 85 37 64 49
2 2 2 2 2 2 3 4 4 4 5 5 6 7 8 7 8 9 13 13 11 13 13 27 32 42 47 50 95 69 92 100 100 100 92 76 100 100 84 100 60 50 51 50
1 2 2 2 2 3 3 4 4 4 5 5 6 8 8 9 10 13 11 13 12 14 20 29 34 44 56 65 98 80 100 100 100 100 100 100 100 100 100 98 77 54 54 60
1 2 2 2 2 3 3 4 4 4 5 6 9 9 8 9 9 9 7 10 10 12 21 30 41 60 98 64 79 95 100 100 99 100 100 100 100 100 100 86 63 67 79 81
2 2 2 2 3 3 4 4 4 5 6 8 8 7 6 7 8 8 12 12 8 10 20 31 38 47 77 76 69 86 100 87 100 100 100 100 100 91 100 85 79 74 96 89
2 2 3 3 4 4 4 4 4 5 6 6 5 5 6 6 7 12 11 10 16 24 26 38 46 68 64 78 100 99 100 100 100 100 100 99 99 100 100 100 81 69 80 98
3 3 4 4 4 5 4 5 6 6 5 4 5 6 7 8 10 13 12 14 16 20 36 75 85 74 60 88 100 100 100 100 100 100 100 100 100 100 69 62 95 91 99 100
4 4 4 4 4 5 7 7 6 5 4 5 6 8 10 11 14 13 12 15 19 28 47 82 64 61 100 100 100 100 100 100 100 100 100 100 100 78 88 78 97 93 75 68
5 6 6 7 6 5 4 4 4 4 5 6 8 10 11 14 17 16 17 22 25 41 64 64 76 100 100 100 100 100 100 100 100 100 100 100 100 82 72 76 78 69 62 68
6 7 7 6 5 5 5 5 5 5 6 8 9 12 14 19 17 18 22 24 32 50 62 63 97 100 100 100 100 100 100 100 100 100 100 97 82 75 83 81 62 58 65 80
6 6 6 5 5 5 5 4 4 5 7 11 11 13 18 20 19 24 30 37 59 68 100 99 100 100 87 97 100 100 100 100 100 100 100 100 99 88 78 56 61 75 85 93
4 5 5 4 4 4 4 4 5 6 9 11 11 15 19 26 31 33 41 56 70 91 100 99 99 86 86 92 86 94 100 100 100 98 78 77 82 76 73 95 100 100 100 100
4 4 4 3 4 4 4 5 6 8 8 8 11 14 16 18 25 31 35 70 89 100 100 96 99 98 94 90 94 100 100 96 96 88 86 67 60 67 92 100 100 100 100 100
4 4 4 4 4 5 5 6 9 11 11 12 15 18 20 18 13 24 26 52 48 62 84 100 100 91 84 77 69 83 91 77 76 83 80 77 74 85 100 100 100 100 100 100
5 5 5 5 5 5 6 7 9 11 14 16 22 26 24 19 14 22 23 36 50 73 99 100 100 100 100 95 87 83 80 92 97 100 99 100 100 100 100 100 100 100 100 100
8 8 7 7 7 7 9 10 11 13 14 18 25 30 28 26 28 32 41 45 52 79 93 99 100 100 100 100 100 100 100 96 95 98 100 100 100 100 100 100 100 100 100 100
10 10 10 10 10 11 12 12 15 18 22 26 30 37 39 42 55 60 46 41 58 77 83 81 85 96 97 92 91 93 94 96 100 100 100 100 100 100 100 100 100 95 86 90
17 18 18 17 16 16 17 19 21 22 24 27 34 47 58 63 70 71 63 48 54 64 61 68 88 88 89 90 91 94 100 100 100 100 99 96 98 96 92 88 83 81 83 83

GFSNW_250_rhum_036.txt.gz
RH
8 8 8 8 8 8 7 8 10 14 13 14 12 14 18 20 22 22 38 69 37 51 68 93 86 100 100 100 100 100 100 100 100 100 100 100 100 100 80 60 42 97 99 70
10 10 10 10 10 10 9 8 8 10 10 6 7 9 11 14 16 20 24 27 40 54 50 63 97 100 100 100 100 100 100 100 100 100 100 100 100 100 61 71 65 76 100 82
10 10 11 11 10 9 8 7 6 8 6 7 7 9 10 10 13 13 16 20 23 37 83 60 80 100 100 100 100 100 100 100 100 100 100 100 100 100 82 86 79 54 93 100
17 18 21 23 22 20 15 6 5 6 6 8 10 9 15 10 10 9 9 12 16 21 34 95 57 100 100 100 100 100 100 100 100 100 100 100 100 100 99 95 96 51 52 100
16 18 20 21 20 20 18 8 5 7 10 12 12 10 13 12 10 10 8 7 9 18 24 44 68 86 99 100 100 100 100 100 100 100 100 100 100 100 98 100 100 79 46 100
10 10 10 10 11 12 8 7 6 6 8 12 13 11 21 22 24 9 9 8 12 14 18 28 33 56 80 91 100 100 100 100 100 100 100 100 88 95 100 78 79 51 63 100
7 6 6 6 7 7 8 6 7 6 6 8 10 15 23 25 16 15 12 9 11 12 12 19 25 26 43 95 100 100 100 100 96 100 100 100 94 96 100 84 82 96 98 100
3 3 3 3 3 4 4 5 5 5 5 6 8 10 9 12 8 8 10 6 9 14 13 14 20 25 26 52 91 86 100 93 89 96 100 100 84 88 97 99 100 100 53 100
2 2 2 2 2 2 3 3 4 3 4 4 8 7 8 8 8 10 8 8 12 15 14 13 20 16 20 32 43 48 69 74 81 82 77 79 84 76 94 100 100 96 100 100
2 2 2 2 2 2 2 2 2 3 3 5 5 5 6 7 7 9 9 10 16 14 11 13 9 10 13 19 25 33 44 50 59 66 70 67 60 73 95 96 100 98 98 70
2 2 2 2 2 2 2 2 2 2 3 4 5 6 6 7 5 7 10 12 12 12 13 12 8 8 15 22 28 35 37 49 62 70 71 47 58 94 100 100 100 97 84 87
2 2 2 2 2 2 2 2 2 3 3 4 4 5 5 6 6 8 10 11 15 18 14 14 12 13 16 18 22 30 32 35 43 46 35 54 100 100 100 100 100 100 71 49
2 2 2 2 2 2 2 2 2 2 3 4 4 4 5 6 7 9 9 11 12 13 9 11 9 12 16 16 22 30 32 30 32 40 48 100 100 100 100 100 100 80 53 100
2 2 2 2 2 2 2 2 2 3 3 3 4 5 5 6 8 9 12 17 9 10 9 10 9 15 18 23 27 33 34 30 41 62 99 100 100 100 100 100 97 92 88 100
2 2 2 2 2 2 2 2 3 3 4 4 5 6 6 8 8 8 10 10 8 12 11 11 16 17 20 25 29 37 39 47 68 100 100 100 100 100 100 92 100 100 100 100
2 2 2 2 2 2 2 3 3 4 4 5 6 7 7 8 9 8 7 6 9 12 10 15 19 23 22 29 43 54 50 75 99 100 100 100 100 100 100 100 88 100 100 100
2 2 2 2 3 3 4 4 5 5 6 6 7 7 8 9 9 8 6 7 9 12 18 19 22 27 33 50 59 66 89 100 100 99 100 100 100 100 100 93 100 100 100 98
3 3 3 4 4 4 5 6 6 7 8 7 8 8 9 9 8 7 7 11 12 15 20 23 29 36 48 66 82 87 80 79 93 80 100 100 100 100 99 92 100 100 100 87
5 6 5 6 6 6 8 7 7 7 8 8 8 7 7 8 7 7 8 11 13 18 20 27 35 50 38 62 100 100 99 84 97 100 94 96 100 100 100 89 72 76 63 55
6 6 6 6 6 6 6 6 6 7 8 9 8 8 7 7 7 9 10 12 18 21 42 47 51 45 53 76 100 100 95 100 100 100 100 100 100 100 100 84 85 78 68 63
6 6 7 7 7 6 6 7 8 8 8 7 7 8 9 10 11 11 13 23 23 41 59 58 58 61 87 100 100 100 100 100 100 100 100 100 100 100 85 72 100 100 77 68
6 7 7 6 6 6 6 7 6 6 7 7 9 11 10 14 13 12 22 27 36 52 50 56 77 92 100 94 95 100 100 100 100 100 100 100 99 85 82 100 100 100 100 100
5 6 7 6 5 5 6 6 6 7 8 9 11 11 15 16 20 24 28 38 53 54 58 86 100 100 100 80 75 94 100 100 100 100 100 100 100 100 100 100 95 96 100 100
5 4 4 4 5 6 6 7 6 8 10 10 12 11 12 17 28 37 38 48 55 58 88 100 100 100 96 86 87 98 100 100 100 100 99 94 76 82 82 71 92 95 92 90
6 6 6 6 6 7 8 8 7 11 12 12 14 15 16 20 36 33 36 45 58 75 91 93 90 94 95 95 94 99 96 86 81 78 79 78 75 77 92 98 94 93 94 82
8 7 7 7 7 8 9 9 9 12 14 16 16 16 16 26 38 30 24 35 46 59 68 87 82 87 98 100 97 94 94 97 93 81 80 78 75 72 72 71 70 71 82 92
9 8 8 8 8 10 13 14 16 19 22 25 25 22 26 30 34 33 33 31 43 48 49 67 80 86 93 97 95 93 92 92 88 84 88 89 90 96 97 99 100 100 100 100

GFSNW_250_rhum_039.txt.gz
RH
13 14 15 16 16 18 18 19 21 27 24 22 22 25 27 35 36 39 46 45 55 53 69 73 65 47 66 81 100 100 71 67 88 100 100 100 100 91 100 100 100 100 87 85
8 9 11 12 13 14 15 14 16 18 17 15 16 17 18 20 23 22 27 27 34 45 44 54 54 58 58 68 88 100 100 68 86 92 87 100 100 100 100 100 100 98 93 100
8 9 8 8 8 8 8 8 8 10 10 12 12 13 15 15 15 17 18 18 21 23 26 29 40 50 71 62 66 98 100 100 99 94 100 100 100 100 100 100 100 100 100 100
7 8 9 10 10 11 11 9 8 10 10 11 11 10 10 12 10 10 12 15 16 20 20 24 29 39 58 99 88 75 100 98 100 100 100 100 100 100 99 100 100 100 100 100
13 13 14 14 14 14 11 7 7 9 8 9 9 8 12 14 17 13 11 11 12 14 13 15 19 28 39 76 100 78 82 92 100 100 100 100 100 100 96 98 100 100 100 93
15 15 17 18 18 17 11 9 9 8 10 11 10 14 32 25 32 14 15 17 17 8 11 13 14 19 21 35 85 92 70 80 86 89 99 100 99 100 100 100 100 100 100 88
19 21 23 25 24 18 18 12 9 6 4 10 13 18 20 33 31 30 16 13 8 14 17 14 11 13 19 26 41 97 88 59 69 76 94 92 95 100 100 100 100 100 100 92
15 15 16 18 21 20 16 11 9 8 5 7 10 13 13 23 26 21 16 15 22 30 19 11 11 11 16 23 29 58 100 96 71 53 76 89 100 100 100 100 100 100 100 98
10 10 10 10 10 11 10 7 6 5 6 4 9 11 13 13 13 15 13 20 32 33 18 12 11 12 13 20 23 28 53 93 94 79 52 62 100 100 100 100 100 100 100 91
4 4 4 4 4 4 4 4 5 4 3 3 5 5 8 10 10 9 12 17 16 24 10 13 11 13 11 13 18 24 37 30 30 44 43 50 78 100 100 100 100 100 100 80
3 3 3 3 3 3 3 4 4 4 3 4 3 4 6 7 7 8 12 16 13 7 6 10 13 16 11 12 12 18 21 26 38 43 49 67 79 91 91 100 100 99 83 78
3 3 3 3 3 3 3 4 4 3 3 3 3 3 4 5 6 7 7 8 8 7 11 15 20 28 13 15 18 15 20 20 20 22 25 41 46 56 83 86 81 85 68 83
2 2 2 2 2 3 3 3 3 3 2 3 3 3 4 5 5 5 6 7 8 9 13 17 19 26 20 11 16 17 17 18 21 19 28 31 44 46 57 74 75 79 75 73
2 2 2 2 2 2 2 3 3 3 3 3 2 3 3 4 4 6 7 8 8 11 14 16 15 13 16 17 23 22 26 21 18 19 30 39 40 48 54 63 67 62 64 90
2 2 2 2 2 2 2 2 3 3 3 2 3 3 4 4 5 6 7 8 11 13 14 13 14 12 13 18 19 19 39 39 22 27 38 36 47 49 74 62 78 100 100 100
2 2 2 2 2 2 2 2 2 2 2 2 3 4 4 6 7 8 9 11 12 12 12 13 12 14 12 15 21 45 61 32 22 22 30 44 49 45 97 100 100 100 76 100
2 2 2 2 2 3 2 3 2 3 3 4 4 5 6 7 8 10 10 10 11 13 12 13 14 15 20 15 17 20 18 23 25 20 32 47 54 76 100 100 100 100 100 98
2 2 2 2 2 2 2 3 4 4 5 6 7 7 8 8 8 9 10 11 14 15 11 11 15 16 23 17 15 20 26 32 30 30 38 53 59 68 100 100 100 100 100 100
3 3 3 4 4 4 5 6 6 7 8 8 8 8 9 10 10 10 10 10 10 10 10 9 15 16 14 19 24 27 30 36 42 33 45 66 75 85 100 100 100 100 100 100
5 5 5 5 6 7 7 7 7 7 7 8 9 11 12 11 12 12 11 12 10 9 12 16 12 12 17 26 33 42 48 63 64 47 58 84 100 96 100 100 100 100 100 100
5 5 6 7 7 7 7 7 8 9 10 10 11 12 13 15 15 17 18 16 12 14 18 17 18 23 26 37 44 60 77 84 80 72 71 75 90 98 100 100 98 100 100 100
7 7 6 7 7 8 9 10 10 10 9 9 11 12 12 12 12 13 14 16 19 20 21 18 26 37 46 57 78 93 97 89 95 100 100 99 95 97 99 98 99 96 92 97
10 10 9 9 10 11 10 10 12 12 12 11 12 11 12 13 13 15 16 18 19 20 23 32 53 59 65 79 91 100 96 98 99 100 99 99 100 100 100 99 100 100 100 100
8 9 12 13 14 11 12 11 12 11 11 10 11 12 13 14 16 20 20 22 19 26 37 55 65 64 70 85 92 94 99 100 100 100 100 100 100 100 100 100 100 100 100 100
6 6 7 8 12 11 10 10 10 11 11 12 14 14 16 18 24 27 23 24 34 48 63 61 60 72 83 97 100 100 100 98 96 99 99 97 98 100 99 99 99 100 100 100
6 6 7 7 8 9 9 10 12 13 15 16 17 19 21 26 38 38 45 46 49 53 70 69 72 80 84 92 94 85 86 90 93 91 91 93 97 99 97 92 92 98 98 98
7 7 7 7 10 11 12 13 15 16 19 19 24 24 27 29 38 41 37 37 34 41 48 56 71 79 83 94 98 96 96 92 89 90 94 93 91 91 93 90 85 74 69 64

GFSNW_250_rhum_042.txt.gz
RH
8 10 12 14 16 18 20 22 24 30 30 31 37 49 63 79 85 79 79 80 81 93 96 91 70 65 68 79 74 62 78 86 77 72 70 55 37 45 96 97 91 60 90 100
6 8 9 11 13 14 15 15 18 20 20 22 29 39 37 48 60 60 64 77 78 75 77 69 74 76 66 86 80 80 85 83 85 76 65 63 61 70 94 100 99 66 79 100
6 7 7 8 10 12 13 12 12 13 15 19 20 22 25 30 38 39 42 45 50 69 70 65 71 75 70 70 96 100 93 81 93 83 83 87 76 87 94 100 92 79 78 100
6 7 7 8 8 9 9 8 10 12 14 16 18 18 20 22 25 24 24 26 32 39 45 40 42 51 57 58 57 94 100 98 77 74 91 86 72 73 90 93 99 84 100 100
8 8 8 9 9 9 7 6 8 9 11 12 13 14 18 21 20 19 20 21 23 20 23 23 25 25 27 33 48 60 56 65 60 57 78 98 100 79 100 97 89 82 82 96
8 7 7 8 9 9 8 8 8 10 11 11 11 13 18 12 9 10 13 14 16 13 15 17 20 20 21 24 30 36 28 44 55 60 76 91 100 85 95 100 100 100 100 100
10 10 11 12 12 12 10 9 9 8 10 10 20 20 14 16 17 14 14 13 10 15 14 11 10 11 15 18 19 22 21 29 32 34 61 63 81 100 85 89 94 100 100 100
10 11 12 13 13 12 11 10 7 7 7 14 15 26 31 20 20 18 19 18 19 24 14 11 10 9 10 14 16 18 21 24 25 27 38 43 74 100 100 100 96 100 100 100
15 17 18 20 21 20 16 11 12 10 10 13 31 23 29 24 21 24 26 32 31 32 33 10 9 11 10 12 12 11 18 24 25 26 24 31 56 99 100 100 90 100 100 100
15 16 17 18 18 17 15 12 11 8 7 10 13 15 21 30 24 19 26 32 26 28 29 12 9 12 12 13 13 14 14 18 25 24 24 24 38 75 95 99 98 89 94 94
11 12 12 12 12 12 9 9 9 7 6 7 7 12 14 18 17 18 30 33 20 18 14 11 11 16 20 14 16 18 15 16 25 27 26 29 35 42 69 67 79 89 80 71
4 4 5 5 5 4 4 4 5 6 4 4 4 6 8 11 14 14 12 12 13 9 7 8 11 17 23 21 19 15 16 21 21 26 34 36 32 37 35 47 68 77 74 71
4 4 4 4 4 4 3 4 4 4 4 4 4 4 5 6 8 9 8 8 7 7 8 8 10 13 18 23 25 15 16 18 22 32 28 45 35 30 32 38 50 69 75 78
3 3 3 3 4 3 3 5 6 4 4 4 5 4 4 5 5 5 5 6 6 8 8 8 10 14 18 22 25 19 17 18 26 42 64 49 37 63 55 39 43 52 56 81
2 2 2 2 2 3 3 4 3 4 4 5 4 4 4 4 4 4 5 5 6 7 8 9 12 15 18 22 22 24 19 15 15 20 29 53 60 70 61 67 57 39 40 45
2 2 2 2 2 2 2 3 4 4 4 3 3 4 3 4 4 4 4 5 6 8 9 10 12 14 18 19 20 19 18 20 17 21 48 84 58 37 45 42 46 46 69 76
2 2 3 3 3 3 3 3 4 4 4 4 4 4 4 4 5 4 5 6 7 7 9 11 12 14 17 16 17 24 23 18 18 29 40 58 36 34 54 60 57 75 100 100
2 2 2 2 2 3 3 3 4 4 4 5 5 5 4 5 5 5 5 7 7 8 9 10 11 12 14 16 17 16 23 23 36 36 34 45 24 37 63 67 62 80 100 100
3 3 3 3 3 4 4 4 4 5 6 5 5 4 4 5 5 6 7 7 8 9 10 11 11 12 14 19 23 23 19 19 28 42 38 42 32 60 54 71 65 86 100 100
3 4 4 4 4 4 4 4 4 5 5 5 5 6 6 6 6 6 7 9 9 8 8 8 9 11 15 18 20 25 28 22 17 23 34 53 42 55 76 86 70 64 99 100
3 3 3 3 3 4 4 5 5 5 6 5 6 6 6 7 8 9 9 8 8 8 7 9 15 22 24 20 19 19 21 19 18 25 38 53 56 56 68 81 81 72 92 100
4 4 5 5 6 6 6 6 7 8 7 8 8 9 9 9 11 11 11 12 12 13 18 26 41 40 41 32 26 21 22 21 19 26 34 48 66 73 71 84 100 100 100 100
8 8 8 8 8 8 9 9 10 9 10 10 10 10 10 12 15 17 17 18 20 20 38 62 52 36 31 28 24 22 24 27 31 43 61 71 74 99 98 90 99 98 99 100
8 8 8 8 9 9 10 10 12 12 14 14 13 13 14 16 18 17 18 18 18 33 46 45 33 30 33 30 32 34 42 48 55 62 82 94 94 97 96 94 94 93 91 97
8 8 8 9 10 11 11 12 14 15 15 16 18 17 15 19 22 24 26 29 34 38 37 30 28 26 35 49 61 73 83 84 89 94 95 95 91 95 96 94 92 88 90 89
8 8 8 9 10 12 13 16 18 19 20 21 20 19 19 19 29 31 28 31 38 39 42 40 39 40 46 77 97 97 93 88 84 73 68 74 81 79 74 72 69 68 72 76
10 8 8 7 9 13 14 18 22 23 28 26 23 21 23 20 23 29 41 37 29 43 49 62 69 70 64 68 76 67 59 56 63 65 64 67 71 72 71 71 69 67 67 68

GFSNW_250_rhum_045.txt.gz
RH
15 14 13 12 11 11 13 14 14 22 24 28 41 64 73 100 90 99 100 100 100 99 75 100 100 100 100 100 100 100 100 100 100 100 100 100 100 90 68 66 66 58 42 90
9 8 8 8 8 7 8 8 11 15 16 20 28 40 64 91 98 99 89 98 100 100 100 89 77 90 99 100 100 100 100 100 100 100 100 100 96 94 98 95 68 59 47 94
8 8 8 8 7 7 6 6 8 11 13 17 21 24 31 56 81 75 88 82 90 100 100 100 100 89 70 66 88 100 100 100 100 100 100 99 96 100 98 96 69 60 54 91
8 7 8 8 8 7 5 6 8 10 12 15 17 20 24 26 37 78 87 90 95 92 92 87 86 95 99 98 92 70 65 75 86 96 100 96 82 89 95 87 91 69 64 66
7 8 9 9 8 7 5 6 8 9 11 14 14 17 20 20 22 26 36 57 87 91 89 88 88 89 86 83 80 80 72 76 77 74 77 99 96 99 100 96 86 76 78 72
10 10 9 9 8 6 5 6 8 8 10 12 15 17 14 18 20 23 25 28 27 28 42 35 38 45 58 62 63 63 63 53 58 59 72 76 77 77 70 89 98 100 83 89
10 10 10 10 9 7 7 7 8 9 10 12 13 13 14 15 16 17 18 20 19 23 25 26 28 28 29 32 37 36 36 47 33 31 54 49 65 67 66 66 100 92 96 100
9 10 9 8 8 8 8 8 10 12 14 13 15 12 11 11 12 14 16 18 20 21 20 19 21 22 22 23 22 23 22 23 24 22 21 25 30 38 55 56 61 92 75 82
11 12 12 13 12 10 8 7 7 10 18 23 12 12 12 16 16 14 13 16 14 12 14 15 14 13 14 14 15 15 16 17 18 19 16 16 26 36 47 57 51 84 95 88
10 10 11 11 11 10 8 7 9 10 21 25 23 25 22 17 14 14 19 20 14 13 12 11 11 12 12 12 12 11 12 10 12 13 12 12 25 34 36 38 45 84 84 84
11 13 13 15 16 16 14 15 16 18 20 22 31 34 34 42 32 39 51 31 16 13 14 15 22 18 16 16 18 16 14 13 12 10 10 14 22 23 29 25 29 46 46 70
15 15 16 17 18 16 15 14 17 17 14 24 24 32 46 49 50 57 40 32 31 22 18 23 24 24 18 21 23 26 23 19 12 10 11 14 16 17 20 22 24 32 42 55
9 10 11 11 11 12 10 12 13 12 11 18 16 24 26 25 34 40 35 40 35 28 21 20 17 22 26 21 26 30 22 18 13 11 19 16 15 15 20 20 23 29 31 40
4 4 4 5 6 6 6 6 12 7 7 7 15 15 10 18 23 23 21 28 25 22 18 13 14 15 19 18 21 29 23 14 13 13 17 16 19 22 20 21 36 33 28 29
4 4 5 4 5 5 5 5 6 6 5 6 6 6 8 9 10 13 14 14 14 12 10 8 8 9 9 13 17 24 19 17 16 20 19 32 47 40 34 32 46 64 41 39
4 4 4 4 5 5 6 7 8 8 8 9 8 8 6 7 7 8 9 9 6 5 5 5 6 9 11 15 18 18 18 21 22 23 22 38 39 41 47 59 56 34 37 33
2 2 2 3 3 4 4 5 4 5 6 6 6 6 5 5 6 6 6 5 5 5 5 6 7 8 10 12 12 12 18 22 26 28 33 40 42 40 41 42 38 45 39 39
2 2 2 2 2 2 3 3 4 4 4 5 6 9 8 7 6 6 6 6 5 5 6 6 7 8 9 10 11 14 22 27 28 32 31 30 30 41 51 50 45 46 65 100
3 3 3 3 3 3 3 3 3 4 4 6 7 6 6 5 5 4 5 4 4 5 5 6 7 7 7 11 13 16 24 29 33 36 28 30 32 40 62 44 45 56 98 94
3 3 3 3 3 4 4 4 5 5 5 4 4 4 4 4 4 4 4 4 5 6 6 6 8 10 11 12 13 15 19 20 24 29 32 28 28 45 62 78 37 37 48 66
3 3 4 4 4 4 5 5 5 4 4 4 4 4 4 4 4 5 5 6 6 6 7 8 9 10 11 12 15 15 17 19 20 23 26 26 25 32 44 68 40 50 68 96
3 3 4 4 4 4 4 4 4 4 4 4 5 5 6 6 6 6 6 6 7 8 8 11 15 20 20 20 19 17 17 17 20 23 24 23 24 33 47 52 47 54 91 82
4 4 4 4 4 4 4 5 5 6 6 6 6 7 8 8 8 8 9 11 13 17 21 20 18 18 18 17 21 24 26 26 25 21 24 30 36 42 48 78 45 76 78 89
6 5 5 6 7 7 8 8 9 8 8 8 9 9 9 11 12 12 13 17 19 22 26 29 24 23 22 26 26 24 25 27 26 26 28 30 33 38 41 45 49 52 60 74
8 9 9 9 9 10 10 10 11 11 12 12 14 13 13 14 16 17 19 22 24 29 32 29 25 26 28 30 38 38 32 31 32 31 35 39 36 40 53 56 52 65 76 82
10 10 11 12 12 12 12 14 14 16 17 19 19 18 19 19 19 21 23 24 28 29 30 26 23 26 31 29 37 37 35 39 41 44 44 42 42 42 40 47 59 70 76 73
13 12 12 12 14 14 15 15 17 17 19 17 17 17 21 22 21 23 24 22 22 29 29 31 42 44 44 26 23 23 25 30 32 31 30 33 42 49 57 67 75 72 68 61

GFSNW_250_rhum_048.txt.gz
RH
22 22 22 22 23 21 18 17 16 24 18 16 17 23 36 85 100 100 100 99 68 90 100 85 68 100 100 100 97 84 90 100 100 100 100 100 100 100 100 71 75 98 100 96
16 15 14 13 15 13 12 12 14 16 16 12 16 20 25 60 89 100 100 99 100 100 84 86 91 69 72 78 78 72 84 87 80 76 86 87 72 81 89 91 75 83 99 99
13 12 11 11 11 10 8 8 9 10 10 9 11 17 22 29 72 85 100 97 100 100 100 100 85 89 80 90 77 73 85 90 73 65 98 93 95 96 100 100 100 100 100 100
9 8 9 9 9 8 7 8 10 9 9 9 9 11 18 22 30 63 90 100 100 100 100 100 100 98 91 81 95 100 91 98 100 100 100 100 100 100 100 100 99 86 95 86
6 6 7 7 7 6 8 9 8 8 8 8 8 9 12 18 24 29 46 88 91 82 90 90 93 97 99 100 100 100 100 100 96 100 100 100 100 100 94 96 95 94 79 68
5 5 6 6 7 7 8 8 10 10 8 8 8 9 10 14 20 24 28 34 44 86 100 97 93 87 94 98 92 90 98 94 93 89 82 77 84 100 92 95 87 74 75 88
5 5 6 7 7 7 8 12 11 12 9 8 9 10 11 13 17 22 24 25 28 31 45 70 93 100 98 89 89 90 94 85 90 99 99 88 99 100 100 92 92 88 90 99
5 6 7 6 6 8 11 12 15 12 9 9 9 9 10 12 15 19 21 24 25 24 26 28 33 39 57 73 75 74 73 78 76 71 72 69 78 85 95 99 92 92 79 79
6 6 6 7 8 8 11 12 14 12 10 11 9 10 10 11 14 16 19 21 19 19 21 22 23 25 27 29 33 39 46 46 47 51 45 53 66 53 45 43 48 77 68 67
6 7 9 8 8 8 10 10 11 13 14 13 12 11 11 11 12 15 16 17 17 17 18 20 21 21 22 23 24 24 25 26 27 26 28 33 40 26 24 26 30 36 41 37
8 9 9 9 9 9 12 16 15 11 12 13 13 14 14 14 14 17 17 12 12 13 15 15 16 17 17 18 21 22 23 22 22 21 22 24 23 22 19 15 19 24 24 31
9 10 10 10 10 9 10 14 22 26 19 15 12 14 16 15 22 18 16 15 14 14 16 16 14 15 16 15 14 14 15 14 12 12 13 13 13 12 11 12 13 16 22 23
9 9 9 10 11 12 13 13 15 22 33 30 28 31 21 20 29 23 22 19 15 15 14 15 17 16 17 18 19 19 17 18 15 13 18 14 11 12 9 9 10 13 17 22
10 11 13 14 15 16 18 23 20 21 28 31 51 35 33 48 35 29 33 34 22 17 15 20 23 27 28 32 28 24 23 24 22 19 20 16 19 11 14 11 9 12 17 21
8 9 9 10 11 12 13 17 15 15 15 22 30 38 45 46 48 50 54 53 41 30 19 14 26 28 28 29 26 31 32 31 23 25 20 21 21 15 15 15 10 13 18 23
4 5 5 5 6 7 6 8 12 16 15 18 22 23 22 26 38 49 66 56 47 41 36 25 19 20 20 20 18 19 23 22 16 18 18 25 28 20 18 15 17 15 17 19
7 7 8 8 8 7 7 8 15 12 8 13 14 16 15 17 26 22 44 34 26 23 19 20 16 15 13 11 11 14 18 18 18 15 17 24 26 21 23 19 14 14 17 17
4 5 6 6 7 7 8 9 8 9 9 9 10 11 10 11 16 18 25 19 17 12 15 11 9 8 6 6 11 12 12 12 12 14 15 28 27 22 23 22 18 14 15 16
3 3 3 4 4 5 6 7 8 8 9 10 10 10 10 10 9 8 8 8 7 8 7 6 5 6 7 7 7 8 9 10 10 11 16 29 25 24 22 21 22 19 20 26
3 3 3 3 3 4 4 4 4 5 6 7 8 9 11 12 11 10 9 8 7 6 6 6 6 6 5 6 7 8 9 10 11 14 24 29 29 28 27 30 34 38 39 40
3 4 4 4 4 4 4 4 4 5 5 6 6 7 8 8 8 8 7 6 6 6 6 6 6 6 7 9 9 9 11 11 12 15 21 26 29 27 29 35 35 37 38 40
3 3 3 3 4 4 4 4 5 5 6 6 7 7 6 6 6 6 5 5 6 8 8 9 10 11 10 11 11 12 12 12 13 18 22 23 21 23 26 29 34 35 40 52
4 4 4 4 5 5 5 5 5 5 5 5 5 5 5 5 5 6 7 8 8 9 12 13 12 10 11 12 12 12 14 16 17 18 20 21 22 22 23 24 26 30 39 52
5 6 5 5 6 5 6 6 6 6 6 6 6 7 8 8 8 10 10 10 12 15 14 12 10 12 12 12 12 13 14 15 17 19 20 21 24 27 30 35 34 34 39 44
6 6 6 6 7 8 8 8 8 8 9 9 9 10 10 10 10 10 11 13 13 12 12 14 15 16 16 17 18 18 19 21 23 24 25 26 27 28 30 36 39 39 45 51
9 9 10 10 10 10 11 11 11 11 12 12 12 12 13 13 14 12 13 13 14 15 19 19 20 22 22 22 24 29 38 41 44 43 39 37 34 33 32 31 32 32 34 40
12 13 14 14 15 16 16 17 18 16 16 17 18 19 21 19 20 19 20 19 20 21 21 22 28 31 30 31 38 36 26 29 27 21 18 18 22 27 28 30 33 34 36 41

GFSNW_250_rhum_051.txt.gz
RH
15 16 17 17 17 16 17 18 22 29 27 20 16 17 24 34 42 43 77 91 100 100 82 85 90 100 79 100 100 100 100 100 100 100 100 96 86 76 60 43 50 50 79 100
14 14 14 14 15 14 13 15 18 21 23 19 19 20 20 26 33 36 51 80 80 100 97 91 74 86 98 95 87 98 94 99 100 99 100 98 78 60 47 41 53 64 82 100
8 9 9 10 11 10 9 10 13 15 13 14 15 18 19 22 26 29 34 61 70 87 100 80 81 70 79 83 84 70 68 56 87 100 96 96 100 100 100 100 100 100 100 97
6 6 6 7 8 7 8 10 13 12 12 12 11 10 12 14 20 25 27 44 70 70 69 95 100 78 83 71 82 100 98 71 100 100 100 100 100 100 92 87 89 84 82 73
4 4 5 5 6 6 7 8 10 9 9 9 8 8 10 11 12 18 26 27 40 66 94 87 82 83 72 90 99 77 80 89 93 94 90 97 92 79 80 78 81 64 56 68
3 4 4 4 4 5 6 8 9 8 8 7 8 9 10 9 9 13 20 24 25 38 71 78 100 90 80 71 75 85 90 90 82 78 69 77 93 85 77 88 90 76 67 98
3 3 4 4 4 4 6 8 7 7 9 10 9 8 8 8 9 11 13 18 22 23 31 58 77 87 95 100 100 91 78 87 74 73 86 79 75 100 100 100 100 100 100 100
3 3 3 4 4 4 6 7 8 10 9 8 9 10 10 9 9 10 11 13 17 18 19 31 54 76 86 94 100 100 97 100 99 93 99 88 98 100 100 100 100 100 86 83
4 4 4 4 4 5 6 8 9 9 9 11 10 10 10 9 9 9 12 11 14 17 18 23 32 53 77 93 100 96 98 96 97 93 97 100 93 79 81 86 92 96 94 93
4 4 4 4 5 6 8 9 9 11 14 12 12 12 11 10 10 11 11 11 12 14 18 24 26 30 39 64 93 100 99 99 95 87 90 99 90 86 82 84 84 76 76 79
4 4 5 6 7 8 8 10 13 13 14 14 13 13 13 12 11 11 12 11 11 14 19 23 27 28 30 33 36 43 55 72 91 100 100 100 91 74 68 71 69 63 56 53
5 5 6 6 7 9 11 13 13 11 13 16 15 14 14 13 12 11 10 11 12 14 18 22 25 28 28 28 30 30 31 30 32 33 37 38 38 34 31 29 36 33 28 26
6 6 7 8 9 13 14 14 12 12 12 11 14 17 16 16 14 13 14 13 11 15 17 19 21 23 24 24 25 25 26 26 26 27 29 28 26 23 23 21 22 23 22 20
6 7 8 9 9 14 16 15 13 13 13 13 14 18 23 18 18 18 16 13 10 11 14 15 17 18 20 20 20 22 21 21 22 20 20 21 20 18 19 18 18 19 17 12
6 7 8 8 9 11 13 14 14 14 10 15 16 20 18 14 13 15 16 15 12 12 13 15 16 15 15 18 21 22 20 19 18 19 21 20 17 12 13 12 12 14 17 12
8 8 10 10 11 11 13 15 17 25 25 25 31 30 28 25 26 28 27 21 19 16 16 19 23 21 24 33 30 30 31 32 23 22 26 22 23 18 15 12 15 21 21 16
5 7 8 9 9 9 13 22 27 26 34 37 39 35 31 32 37 44 42 38 32 31 24 24 28 37 48 53 53 51 39 38 34 34 31 25 28 25 16 14 19 28 23 16
7 7 7 7 7 8 9 14 11 11 16 25 36 45 45 50 48 58 66 58 52 34 21 26 23 22 19 20 29 33 33 32 29 25 18 16 12 11 14 17 19 26 20 18
6 7 7 8 9 10 10 11 9 7 10 16 21 24 26 40 47 51 53 57 58 57 39 30 30 22 13 14 14 18 20 20 14 14 16 15 13 12 19 20 19 20 17 20
4 5 6 6 8 8 9 10 12 12 11 12 11 12 11 12 18 21 26 28 29 30 28 16 16 18 13 9 11 15 16 10 10 9 9 9 9 9 10 12 13 15 18 19
4 4 5 5 5 6 7 7 9 10 11 11 12 13 11 10 13 13 11 11 11 13 13 10 13 13 13 10 9 10 11 9 8 8 8 9 10 10 11 11 11 15 20 25
4 4 4 5 5 6 6 6 6 7 8 9 10 12 13 12 13 13 12 12 11 13 14 15 16 12 12 10 9 7 6 8 9 9 10 12 13 12 12 13 15 18 23 24
4 4 4 4 4 5 5 5 6 6 6 7 7 8 9 10 10 11 12 13 14 15 16 14 11 10 8 8 8 9 12 12 11 12 13 14 15 15 15 16 18 23 27 27
5 6 6 6 6 6 7 7 7 7 7 7 8 9 10 10 10 10 11 12 12 10 8 8 7 7 9 10 11 11 12 13 15 16 16 16 17 20 22 24 25 24 25 28
7 7 6 6 6 6 7 8 8 8 8 8 8 8 8 7 7 7 7 7 7 8 9 9 10 12 14 14 13 14 15 17 17 18 20 21 21 22 22 22 22 23 24 25
7 7 7 7 7 7 8 8 8 9 9 9 9 9 9 10 10 10 10 11 11 11 16 16 18 18 16 18 20 22 21 18 18 18 18 18 18 19 21 25 27 28 29 32
11 11 10 11 11 11 11 11 11 12 13 13 13 14 14 13 12 12 14 15 21 24 23 22 22 25 28 28 28 30 32 37 39 46 50 43 41 44 46 44 43 44 44 45

GFSNW_250_rhum_054.txt.gz
RH
10 11 12 13 14 12 13 14 18 17 17 16 19 26 22 32 23 21 34 71 92 95 100 100 100 64 100 100 100 100 81 100 100 100 100 100 100 100 100 99 88 84 86 76
9 9 10 11 13 12 12 13 17 17 16 17 23 28 26 26 31 18 24 37 69 82 90 100 100 80 66 100 100 100 100 100 100 100 100 100 100 100 100 95 80 69 68 71
5 5 6 7 8 8 9 11 13 16 15 19 21 24 27 26 29 21 21 23 39 73 76 83 100 100 60 82 100 100 100 100 100 100 99 94 84 82 93 98 93 86 78 76
4 4 4 4 5 5 6 7 9 11 12 15 16 18 21 24 27 23 18 23 25 36 61 72 81 100 100 60 82 100 100 100 100 100 100 100 100 100 98 91 76 82 88 76
3 3 4 4 4 4 4 6 8 9 10 10 11 13 16 17 16 18 17 19 22 26 34 51 76 77 92 97 65 79 100 100 100 100 100 100 100 100 100 100 93 82 78 71
2 3 3 3 3 3 5 6 7 8 9 9 10 11 11 12 11 11 12 14 20 22 27 29 50 89 97 100 78 90 90 99 93 95 96 99 100 100 91 94 100 100 99 100
2 2 2 3 3 4 5 6 6 7 9 7 9 8 7 8 8 9 11 12 14 19 21 27 28 55 98 100 99 79 76 75 83 83 92 88 93 90 96 100 100 100 93 85
3 3 3 3 3 3 5 5 6 6 7 7 6 6 7 8 8 9 9 11 10 14 18 21 23 31 63 99 98 100 80 73 71 69 74 83 100 98 97 73 79 73 63 74
3 3 3 3 3 4 4 4 5 5 6 6 6 7 8 8 8 8 8 8 9 10 14 18 21 22 34 61 95 100 100 84 73 81 100 100 96 95 95 91 87 77 81 77
3 4 4 4 4 4 4 5 5 5 6 5 7 8 8 9 8 8 8 8 8 9 11 15 20 22 23 39 67 79 99 100 100 96 85 78 79 79 84 87 82 81 86 89
3 4 4 4 4 5 5 4 5 6 6 6 8 9 9 9 9 8 8 8 8 10 11 14 18 22 24 28 48 90 98 100 98 87 90 100 100 99 96 92 100 100 91 80
4 4 4 4 5 5 4 5 6 6 7 9 9 10 11 13 12 12 10 9 9 11 11 13 15 21 24 27 30 52 85 99 100 100 100 90 92 100 100 93 100 99 77 74
4 4 5 5 5 5 6 6 7 8 9 9 12 15 14 14 14 12 10 11 10 12 12 14 15 19 24 29 32 33 54 85 94 92 100 95 94 99 100 99 97 92 94 75
4 5 5 6 6 6 7 8 8 10 11 12 14 16 17 15 16 14 12 11 10 14 14 14 15 18 21 27 30 33 33 36 54 79 87 79 75 77 78 62 56 54 55 54
6 6 6 7 7 8 8 10 12 12 11 13 14 15 17 18 16 16 15 13 12 14 16 16 17 18 19 21 25 30 32 34 35 36 35 33 30 30 32 30 30 28 26 25
8 8 8 9 9 9 10 11 12 14 15 15 14 14 14 16 17 17 15 14 13 14 18 17 19 19 20 21 23 25 28 28 29 30 30 28 28 25 24 22 21 20 19 17
8 10 10 11 14 15 16 18 16 16 19 18 16 16 16 17 15 17 18 18 16 17 20 20 19 19 20 23 26 26 23 22 23 24 23 21 21 20 19 15 13 12 11 10
7 9 10 13 16 14 14 13 14 15 15 15 15 20 20 19 19 18 16 16 15 16 18 19 19 22 22 26 28 22 21 20 21 21 19 20 18 16 14 13 11 9 9 13
7 6 7 10 15 18 19 17 18 18 20 25 24 19 20 25 25 22 23 20 22 17 18 20 23 22 39 50 45 40 30 24 23 21 21 21 19 19 16 15 16 15 14 16
8 9 9 9 9 11 14 12 15 18 35 47 37 28 33 37 39 38 37 37 36 29 27 24 26 39 44 52 56 54 56 52 41 32 32 28 23 18 20 15 12 11 11 11
6 8 9 8 9 10 12 12 13 29 48 46 41 46 46 44 46 45 46 43 40 38 33 24 17 22 24 22 22 19 20 18 16 15 12 10 9 9 7 7 7 8 8 9
5 6 7 8 9 10 13 14 16 18 22 29 34 38 42 44 52 53 47 43 32 25 26 17 22 21 13 13 14 13 12 11 9 8 8 8 7 7 7 8 8 9 9 9
4 5 5 6 6 7 8 9 11 12 13 14 15 16 17 18 19 19 17 16 15 16 17 18 18 14 14 15 17 13 11 9 9 9 8 8 8 9 9 10 10 11 12 13
5 5 6 6 6 7 7 7 8 8 9 10 11 11 12 12 13 13 16 14 14 14 14 14 14 15 14 13 10 10 10 10 10 12 13 13 14 14 14 15 15 15 17 18
6 6 6 6 6 6 6 6 7 7 7 7 7 8 8 9 10 10 10 10 10 10 10 11 11 10 9 9 9 10 12 16 16 15 14 14 14 15 15 14 14 15 16 18
7 7 8 8 8 8 8 8 8 8 9 8 8 8 8 8 9 8 8 10 10 10 10 11 11 12 11 12 13 15 17 16 17 17 16 17 19 20 19 19 20 21 22 23
8 8 8 8 9 9 10 10 10 10 11 11 12 11 11 12 12 11 12 12 13 15 16 17 17 19 23 25 28 31 37 35 38 45 46 58 48 51 59 59 51 42 38 33

GFSNW_250_rhum_057.txt.gz
RH
9 10 10 9 9 10 10 10 14 18 22 23 26 34 35 34 34 28 24 19 20 30 81 99 86 97 97 100 100 100 100 56 56 88 100 100 100 100 100 89 82 92 99 100
7 7 8 8 8 8 10 10 12 14 12 14 19 25 25 27 31 24 21 21 20 24 43 98 93 96 82 100 100 100 100 100 100 74 83 94 100 100 100 100 91 79 86 100
5 5 5 6 6 6 6 7 9 12 12 15 18 20 22 23 30 22 17 21 21 24 29 79 100 94 88 92 100 100 100 100 100 96 87 100 100 100 99 99 100 100 100 100
4 4 4 4 4 4 4 4 7 8 8 12 15 15 19 21 24 25 17 18 21 22 24 31 89 100 73 86 92 100 92 97 100 82 84 73 90 100 100 100 87 88 99 100
3 3 4 3 3 3 3 4 6 6 6 7 10 13 16 19 21 24 18 16 18 22 23 21 36 77 85 68 71 94 100 100 100 100 100 95 82 100 100 100 100 100 90 82
2 2 3 3 3 3 4 5 5 5 6 7 8 10 13 16 17 20 17 15 15 20 22 17 19 37 74 99 65 62 81 100 100 100 100 100 100 93 81 92 100 94 78 80
2 2 3 2 2 3 4 4 4 4 5 5 6 8 11 11 12 14 16 17 17 16 21 20 16 18 40 90 97 71 68 71 90 100 100 100 100 100 100 100 100 100 100 100
3 3 3 3 3 3 3 3 4 5 5 6 7 8 8 9 10 12 13 15 13 14 15 21 21 17 20 56 94 99 88 76 58 71 100 100 100 100 100 100 100 100 98 99
3 3 3 3 3 3 3 3 4 5 5 6 6 6 7 7 9 10 11 12 11 10 10 14 21 20 18 25 55 92 100 98 89 75 63 97 100 100 100 100 100 100 100 100
3 3 4 4 4 4 3 3 3 4 5 4 4 5 6 6 8 8 8 9 9 9 10 11 17 21 18 19 26 51 77 93 100 98 92 78 74 85 98 100 89 86 86 86
3 3 4 4 4 4 4 3 4 4 3 3 4 5 6 7 7 7 7 8 8 9 10 11 13 18 20 18 22 29 59 78 89 100 99 86 86 89 99 98 85 88 93 93
4 4 4 4 4 4 4 4 4 4 4 4 5 6 6 6 6 7 7 8 10 11 11 11 12 15 18 21 21 26 36 78 100 96 100 100 99 83 93 100 100 91 83 86
4 4 4 4 4 4 4 4 4 4 4 5 6 6 6 7 8 9 10 10 10 10 10 11 12 13 15 20 22 24 31 39 62 86 100 100 100 100 100 100 96 93 82 75
5 5 4 4 4 4 5 4 5 5 6 6 6 7 8 9 10 11 11 10 12 13 11 11 11 13 14 17 22 24 26 29 43 52 69 93 100 93 100 99 93 92 88 87
5 5 5 5 4 5 5 5 5 6 6 6 7 9 10 12 14 14 13 15 16 15 14 13 11 12 14 15 18 22 26 28 31 39 51 66 71 91 95 91 95 92 86 72
6 6 6 5 5 7 7 7 8 9 8 9 9 12 14 18 18 17 16 16 19 20 16 13 13 13 14 16 18 20 25 28 29 32 33 41 48 56 75 72 78 77 74 72
8 8 7 7 7 8 8 8 9 10 13 15 15 16 15 18 21 21 19 20 24 24 18 17 15 15 16 17 19 20 22 25 27 29 29 29 30 32 38 38 42 47 49 46
10 10 8 8 9 9 9 11 12 14 16 15 17 19 20 21 22 24 22 21 25 25 24 20 17 18 19 21 22 21 21 22 25 26 26 28 30 30 31 30 29 28 27 25
10 10 10 10 11 12 13 14 16 17 18 19 19 18 16 18 20 22 22 24 24 26 26 21 22 23 29 27 20 21 21 22 23 22 22 23 23 23 23 22 22 20 18 15
10 12 13 13 13 14 14 16 16 16 18 18 18 18 19 18 22 22 23 23 22 24 26 27 31 35 32 28 22 19 18 17 18 17 17 17 17 17 16 16 14 12 10 10
8 11 12 12 14 16 16 17 21 26 28 27 26 25 26 26 29 28 30 32 30 27 26 27 36 50 44 38 32 25 18 17 17 16 16 18 17 19 17 15 13 13 14 16
13 12 12 13 14 14 18 23 32 33 32 30 32 35 36 34 33 34 36 33 32 29 30 28 40 58 36 35 35 32 32 37 41 40 39 36 29 22 17 15 14 12 10 9
8 10 12 16 21 26 24 30 42 44 32 31 34 39 36 33 33 35 30 24 22 24 22 24 43 24 25 28 34 38 38 36 32 30 23 17 14 12 10 9 8 8 8 7
7 9 11 14 20 22 22 30 40 42 44 38 34 32 29 27 26 21 14 14 14 15 15 16 18 19 16 16 16 16 18 18 15 13 13 12 12 10 9 8 8 8 8 9
7 7 8 8 10 11 12 14 17 21 23 26 28 25 27 25 26 27 25 21 22 20 18 20 19 17 16 16 15 14 13 14 14 13 12 10 10 11 11 11 11 12 13 13
6 6 7 7 7 7 7 8 8 9 10 10 11 12 12 12 13 14 14 14 15 14 14 16 16 17 17 17 16 16 13 12 12 14 15 15 15 15 17 19 19 19 18 17
8 9 9 10 10 9 10 10 11 11 11 12 13 14 16 16 17 16 16 17 18 17 16 15 14 14 12 12 14 16 18 18 18 24 29 28 26 28 27 26 29 25 22 20

GFSNW_250_rhum_060.txt.gz
RH
16 16 13 11 11 10 10 10 11 12 11 11 16 25 35 33 33 36 47 50 47 36 28 32 29 35 78 100 100 100 88 100 100 100 100 96 95 100 100 100 100 100 100 100
10 8 8 8 8 7 7 7 8 11 10 10 11 15 20 31 36 38 39 41 46 34 29 30 29 27 80 100 100 94 96 100 100 100 100 100 100 96 100 100 100 96 100 100
7 7 6 6 6 5 5 5 6 7 6 7 10 13 15 18 23 26 30 36 40 32 30 28 27 26 57 100 100 85 99 99 100 100 100 100 100 100 100 100 100 100 87 100
6 6 5 5 4 4 4 5 6 5 5 6 7 9 12 15 17 19 21 26 33 28 26 25 22 22 37 99 100 100 100 100 100 100 86 87 91 100 100 100 100 100 100 85
4 4 4 4 4 3 4 4 4 4 5 4 5 6 9 13 15 17 18 20 25 23 21 20 19 19 47 56 94 100 100 100 94 100 100 100 77 87 100 100 100 100 96 100
4 4 3 3 3 3 3 4 4 4 4 5 5 6 8 10 12 14 15 16 18 24 16 16 18 19 25 64 73 92 100 100 100 100 100 100 100 92 100 100 100 99 82 100
3 3 3 3 3 3 3 3 3 4 4 4 5 5 6 7 8 11 14 14 16 15 13 15 17 16 19 50 77 84 89 100 100 100 100 100 100 100 97 98 100 100 100 100
3 3 3 3 3 3 3 3 3 3 3 4 5 5 6 7 7 9 11 13 13 15 15 15 17 15 14 22 62 80 78 77 97 100 100 100 100 100 99 77 80 92 92 90
3 3 3 3 3 3 3 3 3 3 3 5 4 5 6 6 6 8 9 10 12 14 16 16 18 20 16 17 30 66 78 85 70 88 100 100 100 100 100 100 90 58 74 83
4 4 4 4 4 4 3 3 3 3 3 4 4 4 5 6 7 8 8 9 11 14 15 17 20 22 20 18 22 38 54 81 83 69 97 100 100 100 90 100 100 100 88 72
4 4 4 4 4 4 4 4 3 3 3 3 4 4 5 6 7 8 8 9 11 12 13 16 19 20 22 20 19 21 37 53 80 87 69 91 98 100 100 100 100 100 100 100
4 4 4 4 4 4 4 4 4 3 4 4 5 6 7 7 8 9 10 10 10 11 12 12 14 16 17 22 22 20 21 30 61 81 99 84 66 68 83 99 100 100 100 100
4 4 4 4 4 4 4 4 4 4 4 5 6 5 6 8 8 8 10 10 11 12 12 12 13 13 12 15 21 22 20 21 24 55 94 100 91 87 80 66 64 66 66 76
5 4 4 4 4 5 4 4 4 5 5 4 5 6 5 7 9 9 9 10 11 12 11 11 11 11 11 13 15 20 22 21 25 28 55 86 100 100 100 100 90 79 79 87
5 5 5 5 5 5 5 5 5 5 4 6 6 6 7 8 8 8 10 10 11 12 12 12 12 11 12 12 14 17 19 21 22 25 28 38 73 95 56 78 100 100 97 90
6 5 6 6 6 6 6 6 6 6 8 7 8 8 8 8 8 10 11 15 16 17 16 14 13 13 13 14 14 15 17 21 22 25 26 26 31 68 54 55 76 83 92 95
8 6 6 6 6 6 5 5 6 6 7 8 9 10 10 11 11 13 18 21 21 20 18 17 16 14 14 14 14 14 17 18 20 23 24 27 31 35 40 53 60 70 74 78
9 8 7 7 7 6 8 8 8 7 8 10 12 13 14 16 18 20 26 28 24 22 20 18 17 16 15 14 14 15 16 17 18 20 23 26 27 31 32 32 33 37 38 38
10 9 8 8 7 8 8 8 9 10 10 11 15 20 23 24 26 27 26 29 28 21 20 20 20 18 18 16 14 14 13 15 17 18 20 22 24 26 28 28 28 29 28 28
12 12 12 9 9 9 9 11 13 15 17 20 20 20 20 22 24 26 28 30 28 25 22 22 23 22 20 18 18 16 16 17 17 18 19 19 20 21 23 25 26 27 28 27
11 13 12 11 11 14 17 20 23 26 23 22 24 24 27 28 30 28 28 31 31 31 29 28 27 26 21 18 17 18 19 19 19 19 20 19 20 21 20 20 20 19 19 18
10 13 15 16 18 20 22 22 25 23 22 23 26 27 27 32 33 29 29 32 34 35 33 35 38 33 27 21 19 18 18 18 18 17 19 20 20 20 19 18 17 16 14 13
10 17 18 19 22 26 25 24 25 24 24 26 30 35 34 37 34 37 44 37 40 43 42 55 59 35 28 33 29 26 25 23 20 19 20 19 19 19 18 16 16 16 17 18
12 15 17 19 19 18 17 17 20 27 29 32 32 32 34 34 38 37 35 38 41 41 42 49 50 42 43 46 44 44 35 34 32 30 28 30 32 31 27 26 25 21 16 13
19 18 15 15 16 23 26 27 26 24 25 27 29 28 29 33 32 33 28 33 38 32 28 38 46 48 44 40 40 40 39 38 38 38 37 34 31 27 19 14 13 12 11 11
23 26 26 28 29 30 29 28 29 22 22 21 23 26 27 26 27 25 25 26 24 23 29 25 22 22 21 20 20 21 21 21 20 20 18 16 16 16 14 12 11 12 14 13
12 16 17 19 23 25 26 25 26 25 25 24 24 20 20 23 21 21 20 18 17 16 15 15 15 15 15 15 15 16 17 18 18 17 14 12 13 15 15 15 15 16 17 17

GFSNW_250_rhum_063.txt.gz
RH
12 12 13 14 14 14 13 13 15 14 10 10 10 12 13 16 23 19 19 29 45 46 42 38 58 38 34 46 56 100 97 100 95 93 100 100 100 100 100 100 73 93 100 100
15 15 13 11 10 9 9 9 11 10 9 8 10 11 14 15 16 15 17 24 40 37 33 31 39 42 27 40 45 100 99 100 96 99 100 98 100 100 100 100 100 96 99 100
12 11 9 8 7 6 6 6 7 6 6 6 6 7 9 10 14 14 14 18 27 34 33 30 32 35 25 42 39 97 100 100 96 92 100 100 100 100 100 91 100 100 97 100
8 8 8 6 5 5 5 6 5 5 5 5 5 5 7 8 10 12 12 15 17 26 27 29 32 29 26 33 38 74 100 100 100 100 100 100 100 100 100 100 100 100 100 100
7 6 4 4 4 4 4 4 4 4 4 5 5 5 7 6 8 9 11 14 16 18 20 26 28 25 27 34 37 79 100 100 100 100 83 100 72 94 100 100 81 100 100 100
5 4 4 4 4 4 4 4 4 4 4 4 4 5 6 6 6 7 8 11 14 15 16 20 24 25 32 33 34 74 100 100 100 100 100 92 98 100 100 100 100 100 100 100
4 4 4 4 3 3 4 3 3 4 3 4 4 4 4 6 6 6 7 8 10 12 15 15 16 18 27 28 30 44 100 100 100 100 87 84 100 100 100 100 100 100 100 100
4 4 4 3 3 3 3 3 2 3 3 4 4 4 4 5 5 6 6 8 10 13 15 15 15 19 22 26 28 29 97 100 100 100 100 83 93 100 100 100 100 100 100 100
4 4 4 3 3 3 3 3 3 3 3 3 3 3 4 5 5 6 7 9 8 10 12 16 19 20 20 23 26 23 39 97 100 100 100 88 80 73 100 100 100 100 100 80
4 4 4 4 4 4 4 3 4 3 3 3 3 3 4 5 5 4 5 7 8 9 12 16 19 21 18 23 24 23 22 64 96 100 100 100 91 90 69 80 82 100 100 100
5 5 5 4 4 4 4 4 4 3 3 3 3 3 5 6 6 6 8 7 8 11 13 16 19 21 19 21 22 24 19 22 49 94 87 100 100 100 100 71 73 90 100 100
6 5 5 4 4 4 4 4 4 4 4 4 4 4 5 5 5 6 8 8 10 12 12 14 16 20 21 20 21 22 18 20 34 56 82 100 100 100 100 100 100 97 92 99
6 5 5 5 4 4 4 5 5 5 4 4 4 4 5 7 6 7 9 11 12 13 13 14 16 20 21 21 20 21 22 20 22 44 78 76 97 92 100 100 100 100 100 100
6 6 5 5 4 4 4 5 5 4 4 4 5 6 7 9 10 9 8 9 10 11 12 14 15 16 16 18 20 20 22 24 24 24 38 86 91 96 77 98 100 100 100 100
6 6 6 5 5 5 5 5 5 6 6 6 5 6 8 8 9 10 12 13 13 14 14 15 16 16 16 16 18 18 22 23 22 22 23 30 88 98 86 82 80 88 100 84
8 6 6 5 5 5 5 5 6 6 5 6 7 7 7 8 10 11 12 14 15 14 13 13 13 13 14 16 16 16 18 21 20 21 26 28 22 36 80 79 67 64 76 82
9 8 6 5 6 7 7 6 6 6 7 7 8 8 8 10 12 13 13 14 14 14 13 12 12 12 12 12 14 14 15 17 15 17 21 23 23 21 20 26 48 54 52 61
9 9 7 7 7 7 6 7 7 8 8 9 10 10 10 11 12 13 13 13 13 13 13 12 12 12 13 14 14 13 14 14 14 16 18 20 24 26 27 27 26 25 27 38
12 10 8 8 8 7 7 8 9 9 9 10 11 11 12 11 13 14 15 17 20 20 20 19 18 17 18 17 16 16 17 16 16 17 16 17 20 23 25 26 28 28 27 26
12 11 8 9 8 9 9 10 9 10 11 11 13 12 15 18 21 24 24 24 24 25 22 21 22 21 21 20 19 17 16 17 17 18 19 19 20 21 22 25 27 27 27 27
12 13 11 11 10 11 12 13 14 14 15 16 16 19 23 31 33 33 30 27 25 24 23 25 25 24 21 19 18 17 16 16 16 16 17 19 19 20 21 22 22 24 26 26
11 14 13 13 14 14 15 18 21 25 26 24 25 28 30 27 31 32 32 33 31 30 31 30 29 26 27 23 20 18 17 17 17 18 18 18 18 18 19 19 21 21 21 21
15 17 16 15 16 19 22 22 23 23 25 27 27 28 29 28 30 32 39 41 38 34 36 37 32 31 29 26 23 22 23 22 22 22 22 21 22 22 22 22 20 20 19 19
16 17 18 17 18 17 15 16 18 24 28 28 30 29 34 36 35 47 40 45 52 45 33 33 42 43 38 34 33 31 28 30 28 24 22 22 22 21 22 21 22 22 22 20
13 15 15 19 23 26 28 30 32 30 28 30 33 36 41 44 48 50 54 62 55 46 59 56 57 54 52 40 31 29 28 29 27 25 25 26 26 27 28 29 29 31 30 26
15 18 20 20 19 18 20 20 22 24 27 32 32 34 38 44 45 47 51 52 41 49 55 57 52 50 46 41 37 34 31 32 34 34 32 33 31 27 27 27 24 20 18 16
21 20 20 20 18 19 20 20 22 22 26 32 35 35 38 40 30 29 33 26 26 23 23 24 24 23 23 23 22 21 20 20 20 20 20 19 19 18 19 18 17 16 14 11

GFSNW_250_rhum_066.txt.gz
RH
23 16 12 11 11 11 12 15 17 15 12 11 10 12 12 12 16 12 12 14 18 21 23 23 26 31 53 73 76 70 61 72 71 100 94 100 100 100 100 100 83 100 100 97
13 11 12 13 14 13 11 10 12 10 10 8 9 8 9 12 16 13 11 12 13 16 17 20 30 29 38 45 60 70 67 70 67 100 72 100 100 100 100 100 83 61 100 100
11 13 15 14 10 8 9 9 8 6 6 5 6 6 7 9 10 10 9 11 13 18 14 12 22 26 28 38 43 43 64 67 64 100 97 85 100 100 100 100 100 54 89 100
15 17 13 10 9 7 7 6 4 4 4 4 5 5 7 6 6 7 6 8 11 16 13 10 13 19 23 32 52 49 52 71 72 91 100 97 88 100 80 100 100 96 74 100
15 13 10 8 7 6 5 4 4 4 3 4 4 4 5 6 5 6 6 7 8 9 11 11 13 15 22 23 36 47 55 65 63 72 93 100 100 98 100 100 100 100 100 100
13 10 9 7 5 5 4 3 3 3 3 3 4 4 4 5 6 5 5 6 7 8 10 12 13 14 20 31 31 40 51 56 56 69 92 100 100 100 87 100 100 91 100 100
10 9 6 5 4 4 4 4 4 4 3 3 4 4 4 4 5 5 6 6 6 6 8 11 15 14 16 22 27 33 40 46 52 79 99 98 100 100 100 76 100 97 95 100
9 6 5 4 4 4 3 3 4 3 3 3 3 4 4 4 5 5 5 6 8 7 9 10 14 15 18 21 27 34 40 47 48 87 100 100 100 94 80 100 100 100 100 100
6 5 5 4 4 4 3 3 4 4 3 3 3 3 4 4 5 5 5 8 7 7 8 9 13 18 23 21 27 34 41 47 46 83 100 100 100 87 83 86 100 100 100 93
6 5 4 4 4 4 4 4 4 4 3 3 4 3 4 4 4 5 5 6 6 7 9 11 12 17 27 24 22 26 34 47 48 48 100 100 100 100 82 100 100 100 81 74
6 5 5 5 5 4 4 4 4 4 4 4 4 4 4 4 4 5 5 5 6 7 9 11 14 17 19 20 19 24 32 41 46 36 86 100 100 100 100 76 100 100 100 81
6 6 6 5 5 4 4 4 4 4 4 4 4 4 3 3 4 5 7 8 10 10 11 13 14 16 22 24 24 23 29 30 38 40 44 100 100 100 100 87 74 96 100 97
7 7 6 5 5 5 4 4 4 5 5 4 4 4 4 4 4 7 7 7 7 9 10 13 14 16 22 25 24 23 22 23 29 36 35 70 100 100 100 100 85 84 81 88
8 7 6 6 6 5 5 4 5 5 5 5 5 4 4 5 6 7 7 10 13 10 12 13 15 17 19 22 22 19 21 21 25 28 32 32 83 100 100 100 100 100 86 71
10 9 7 6 6 6 5 5 5 5 5 4 4 4 5 5 6 8 8 8 9 11 11 12 14 14 15 18 20 22 24 25 22 24 24 30 29 76 100 100 100 100 100 88
10 9 8 7 8 8 7 6 5 5 5 5 5 5 5 7 8 8 9 11 11 11 12 14 13 13 12 13 17 19 23 23 20 20 20 24 26 24 51 93 86 100 100 100
11 10 10 8 8 7 6 7 6 5 5 5 6 6 6 8 9 11 12 12 12 12 12 13 12 12 14 16 18 19 20 19 18 19 19 22 21 19 20 25 47 62 72 84
13 11 12 9 8 8 7 8 7 6 6 6 6 6 7 8 10 11 12 12 12 13 14 14 14 15 15 16 15 14 15 15 15 16 18 20 22 23 19 16 17 20 30 35
13 12 12 9 8 9 9 8 7 7 7 7 7 8 8 7 8 10 11 12 12 13 14 15 16 16 17 15 14 14 14 13 14 14 16 17 19 21 24 26 27 26 24 23
15 16 11 8 9 9 8 9 8 8 9 9 9 10 12 12 10 10 12 11 12 11 12 14 15 15 14 14 13 13 13 11 11 12 14 15 15 17 19 20 22 24 26 25
19 15 10 10 10 10 9 9 9 9 10 10 11 12 14 17 17 15 14 14 15 16 19 21 21 20 19 18 18 17 16 15 14 14 15 16 15 15 15 16 17 18 19 19
16 14 11 10 10 11 12 11 12 12 14 14 16 17 18 20 22 23 22 22 24 23 26 27 24 22 22 20 19 19 20 19 19 18 16 16 15 15 16 16 17 17 17 17
17 14 12 11 10 10 11 11 12 13 15 18 20 24 26 28 32 31 32 27 29 29 29 28 29 29 28 27 26 24 22 22 21 20 19 18 17 17 16 17 17 18 19 20
16 14 12 12 12 13 14 18 22 23 25 28 34 36 36 40 41 39 37 35 34 32 35 39 38 37 36 33 30 28 27 26 26 25 22 21 21 20 19 18 17 16 16 16
14 14 14 16 21 25 29 31 30 28 29 34 37 44 51 54 52 51 52 47 39 38 40 42 41 38 34 30 28 28 27 28 28 26 25 23 22 21 21 21 20 19 19 19
20 22 24 25 24 24 26 29 34 32 33 38 45 49 45 48 53 55 49 52 78 71 59 59 54 49 41 35 31 27 27 27 29 27 26 27 27 26 25 26 24 23 23 22
23 22 24 24 24 24 27 31 39 44 49 53 52 55 59 58 64 71 68 70 64 62 62 58 58 59 57 49 43 39 37 36 34 31 29 27 27 28 26 24 24 24 22 21

GFSNW_250_rhum_069.txt.gz
RH
25 23 22 19 17 18 17 12 12 11 11 12 15 17 16 16 16 15 13 13 11 11 13 21 26 31 37 42 54 58 50 62 58 71 79 72 100 100 100 100 86 100 100 100
22 20 19 19 17 12 10 12 14 10 12 13 12 12 12 11 11 10 10 14 14 14 13 12 13 18 32 39 50 46 49 55 64 85 74 80 100 100 100 100 95 100 100 100
20 20 19 14 10 10 12 14 15 9 9 9 8 7 7 7 7 6 7 10 10 13 16 13 13 14 17 28 37 41 58 62 71 74 76 92 100 100 100 100 82 100 100 100
20 16 12 11 11 14 15 14 12 7 7 7 5 5 5 5 5 5 5 7 8 10 11 13 14 16 16 18 24 35 48 70 86 63 68 92 94 100 100 100 81 100 100 100
14 12 12 14 15 14 14 11 8 7 5 5 4 4 4 4 4 4 5 6 7 8 10 11 12 15 17 18 19 30 39 66 83 60 64 86 85 100 100 100 100 91 100 100
15 16 16 15 14 14 11 8 6 5 4 4 4 4 3 3 4 4 4 6 7 8 8 8 9 13 17 19 19 29 35 42 62 74 59 78 94 78 99 100 100 100 73 98
18 17 15 15 13 11 8 6 5 4 4 4 4 4 4 4 4 4 4 6 6 7 8 8 8 12 14 19 21 28 36 38 42 62 57 67 81 70 74 100 100 100 100 68
18 15 15 13 11 8 5 5 5 4 4 4 4 4 4 4 4 4 4 6 6 7 8 8 8 11 13 20 21 24 36 36 36 48 55 72 75 72 58 94 100 100 100 100
16 12 14 12 8 6 5 6 6 5 4 4 4 4 4 4 4 4 5 5 6 6 7 7 8 11 14 17 21 20 28 35 41 51 57 69 62 63 66 67 100 100 99 95
14 13 14 9 6 7 6 6 6 5 4 4 4 5 4 4 3 4 5 5 5 6 6 8 8 12 13 17 20 23 24 36 40 43 51 65 49 53 65 66 86 100 100 97
14 14 10 7 8 7 6 6 6 5 4 4 5 4 4 4 4 4 4 5 5 7 7 8 9 11 14 18 19 22 28 36 43 39 44 59 45 46 64 65 83 82 93 100
15 12 9 8 8 7 6 6 5 5 4 4 4 4 4 4 4 4 4 5 6 6 7 8 10 12 16 16 19 24 26 30 35 36 35 43 36 40 62 85 82 90 100 100
14 11 9 9 8 8 6 5 5 4 4 4 4 5 5 4 4 5 4 5 6 9 10 11 11 12 14 17 21 22 23 23 26 32 36 39 38 39 48 87 82 80 93 100
12 10 10 10 10 7 7 6 5 4 4 5 5 4 4 4 4 4 4 5 8 11 11 12 12 13 15 16 18 21 23 18 23 30 40 44 46 47 46 94 100 84 76 97
10 11 11 11 10 7 6 5 5 5 5 5 4 4 4 4 4 5 5 8 8 8 9 9 12 13 14 16 16 18 16 19 25 32 38 45 48 53 50 77 100 100 91 80
10 12 13 12 9 6 6 5 5 6 6 6 5 4 4 4 5 5 7 7 7 9 10 10 10 11 12 10 12 16 20 24 26 29 32 36 39 45 47 45 99 100 100 100
12 13 14 12 9 7 7 6 5 6 6 6 5 5 5 5 6 7 7 8 9 9 10 10 10 12 12 11 15 17 20 23 22 23 25 27 29 31 38 42 41 75 100 100
13 15 15 12 9 7 7 7 6 7 8 6 6 6 6 7 8 8 8 9 10 11 11 12 13 15 15 17 18 18 19 18 18 18 20 22 26 27 28 30 34 35 36 66
16 16 15 12 10 7 7 7 8 8 8 7 7 7 7 7 7 8 10 10 10 11 12 13 15 15 16 16 17 16 15 15 16 18 18 20 22 23 26 25 28 29 28 23
19 20 13 13 9 8 8 8 8 8 9 8 9 10 11 10 11 10 11 11 12 13 14 16 16 18 17 16 18 17 15 15 15 16 16 18 21 22 22 24 27 30 29 27
14 14 14 12 10 10 8 9 9 8 9 10 11 10 11 13 15 15 13 13 15 15 16 15 14 14 14 14 15 15 15 16 16 16 17 18 18 19 19 20 20 22 25 26
11 15 14 10 9 10 10 11 10 10 11 12 12 12 10 11 12 15 14 14 14 15 16 14 14 16 16 16 16 16 16 16 16 16 16 16 15 15 15 14 15 15 16 17
17 16 13 10 10 9 9 9 10 13 12 13 14 12 12 14 14 15 18 22 22 21 22 24 28 29 31 31 30 27 24 23 22 22 21 19 18 18 18 17 17 16 16 15
14 12 10 10 9 10 11 12 12 14 14 15 17 18 22 24 27 29 29 28 30 35 36 34 32 31 30 29 28 27 27 27 25 23 23 21 19 17 16 15 15 15 14 14
14 13 13 14 14 16 16 17 19 21 22 27 32 33 32 30 34 35 40 40 44 53 57 46 42 41 38 34 31 29 28 27 26 26 25 24 24 23 22 20 19 18 18 18
16 14 14 14 16 19 25 25 28 33 32 31 34 37 38 36 36 40 46 67 82 63 50 50 45 36 33 31 33 35 36 39 38 37 34 32 31 30 30 30 28 27 25 23
17 16 18 21 24 24 25 28 31 33 36 44 47 46 58 68 75 80 72 70 66 62 62 67 72 73 71 67 62 55 48 40 33 28 25 24 22 19 18 17 16 15 15 14

GFSNW_250_rhum_072.txt.gz
RH
72 40 35 27 27 23 22 21 19 20 20 15 12 11 13 14 14 11 12 14 13 15 14 14 15 18 30 45 65 84 97 100 88 99 81 88 96 48 80 74 87 78 62 98
33 28 28 23 24 24 22 21 19 16 11 11 12 16 15 12 11 9 8 8 10 11 12 16 15 17 20 28 36 44 58 70 97 93 72 75 70 74 98 91 100 75 74 99
26 23 26 27 26 22 22 20 13 10 12 15 14 11 9 8 8 7 6 6 7 8 11 12 13 18 21 19 21 24 45 49 78 82 60 62 81 91 99 100 96 72 87 100
27 27 27 25 22 20 17 13 12 13 14 12 10 7 6 6 5 5 5 5 5 6 8 10 13 13 18 23 18 19 26 42 52 45 50 61 93 95 100 100 79 66 88 100
30 30 24 22 20 15 14 16 16 13 12 10 8 7 5 4 4 4 4 4 4 5 7 8 10 12 14 20 22 20 19 21 35 39 36 61 97 99 94 100 93 64 96 100
26 22 21 18 15 16 18 16 15 12 8 8 6 5 4 4 4 4 4 4 4 4 6 7 9 10 11 13 20 21 20 19 27 38 35 61 100 90 89 96 100 61 99 100
23 19 18 18 19 18 16 15 12 9 9 6 4 4 4 4 3 4 4 4 4 4 5 6 8 9 11 14 18 20 22 21 24 39 35 59 84 79 89 98 100 89 79 100
20 20 20 22 20 19 15 13 11 9 5 5 5 5 5 4 3 4 5 4 4 4 5 6 8 10 10 12 16 18 18 20 24 31 36 62 66 89 87 94 100 100 67 100
21 22 23 22 19 16 14 13 10 6 5 6 6 5 5 4 4 4 5 5 5 5 6 6 8 9 12 13 16 18 19 21 20 31 37 53 52 83 91 90 100 100 90 71
23 23 21 19 17 15 14 11 8 7 6 6 6 6 6 5 5 5 4 5 5 6 5 5 6 7 10 13 15 17 19 22 24 27 34 55 51 82 87 92 84 100 100 76
22 20 18 17 16 16 13 9 9 7 6 6 6 6 5 5 5 6 5 5 5 5 6 7 9 10 11 12 14 16 19 24 28 31 38 57 46 60 81 86 91 75 100 100
19 17 17 16 16 15 10 9 10 7 6 5 6 5 5 6 5 5 5 4 6 6 6 8 9 10 12 11 13 16 19 26 28 32 41 46 42 51 75 78 95 66 75 100
16 16 17 16 16 13 9 9 8 7 6 6 5 5 4 4 4 5 5 4 6 7 7 8 9 10 11 12 14 17 22 24 28 28 33 40 40 47 56 68 82 79 52 86
16 16 16 15 14 10 11 10 7 7 6 5 5 5 5 5 5 5 5 5 6 7 7 8 10 10 11 12 14 18 20 23 20 21 24 37 44 45 50 56 67 71 59 62
15 15 15 14 10 9 10 12 7 7 6 6 5 7 6 6 5 4 4 5 7 7 7 8 10 10 11 13 15 18 20 24 23 29 30 36 43 46 49 55 61 58 54 45
15 14 13 12 9 9 10 10 8 7 6 6 5 6 6 5 5 4 5 6 5 6 7 8 8 10 11 12 15 16 16 18 21 27 28 30 36 44 45 43 45 51 54 55
14 12 12 10 10 10 11 8 8 7 6 5 6 6 6 5 5 5 4 4 5 7 7 8 9 9 10 11 12 12 12 18 23 30 29 25 28 35 41 42 39 40 50 66
12 11 10 10 12 14 10 8 7 7 6 6 6 6 6 6 5 6 7 8 8 8 8 9 9 9 9 9 10 12 15 18 19 21 23 24 24 26 29 31 34 40 42 53
10 10 11 12 15 13 10 9 8 8 7 7 8 7 7 7 7 8 9 10 10 11 11 12 13 14 14 16 19 22 22 20 20 22 24 25 25 26 26 28 36 37 38 40
11 12 11 12 14 13 10 9 7 8 8 9 9 9 10 10 11 11 10 11 12 13 16 16 15 15 15 17 19 18 17 17 17 18 20 23 25 28 28 26 27 29 32 32
12 12 16 16 15 12 10 9 9 8 9 9 9 9 10 12 14 15 16 16 16 16 15 15 17 19 19 20 22 21 20 19 19 19 19 20 21 21 24 27 28 30 30 31
14 16 17 17 14 11 10 10 10 10 10 10 10 10 10 11 13 16 18 17 18 21 20 18 20 21 20 20 20 21 20 20 20 20 20 20 20 20 20 21 22 22 23 24
12 15 18 16 11 10 10 12 13 13 12 12 13 14 14 13 14 15 17 18 20 20 19 20 21 21 22 23 23 22 21 19 18 18 18 18 18 17 17 17 17 17 17 17
13 15 13 12 11 13 14 12 12 13 13 14 17 16 17 16 16 19 22 25 27 29 29 30 31 30 30 30 28 26 25 24 23 22 21 21 21 20 19 18 18 18 18 17
16 16 12 13 14 14 13 13 14 16 16 17 17 18 19 22 28 34 37 39 39 34 33 34 37 35 33 32 33 34 33 32 32 32 32 32 31 30 27 24 22 20 18 18
17 14 12 13 14 14 14 15 15 17 19 24 27 30 33 39 42 45 42 40 38 44 47 43 46 54 63 68 65 59 51 46 44 42 41 41 40 37 35 33 31 29 27 24
14 13 12 14 16 18 21 25 31 35 37 38 39 42 43 43 50 52 53 60 68 78 80 78 78 80 88 86 86 87 84 83 72 62 51 39 32 28 24 21 20 20 19 18

GFSNW_250_rhum_075.txt.gz
RH
59 50 49 57 61 48 55 45 47 46 31 22 24 22 19 15 10 8 10 13 13 14 13 15 13 17 16 17 22 25 34 80 89 91 86 92 88 82 71 63 64 69 65 70
48 50 40 48 51 59 47 62 45 20 23 23 22 19 13 10 10 11 12 11 11 10 10 12 14 18 20 19 17 16 20 40 76 88 83 95 93 78 69 61 74 79 64 90
38 44 48 45 46 53 67 32 22 26 25 23 18 13 12 12 11 10 9 9 8 7 7 8 12 14 18 22 20 15 17 23 54 71 78 97 99 88 72 77 88 75 70 100
32 38 34 35 56 45 25 25 28 25 20 16 13 14 12 10 8 7 6 7 6 6 6 6 9 10 13 18 22 17 16 18 21 26 40 67 89 81 63 84 69 89 77 100
34 31 30 29 29 33 30 27 25 21 14 13 14 12 10 8 7 6 5 4 4 4 4 4 6 8 11 14 18 20 18 18 15 17 31 45 68 61 56 100 94 93 94 100
33 31 35 35 34 31 27 24 20 15 14 14 13 9 8 8 5 4 4 4 4 4 4 4 5 6 7 11 14 15 18 14 12 13 16 30 50 43 74 100 97 93 96 100
38 36 34 32 30 26 24 19 16 17 15 12 11 9 8 5 5 5 4 4 4 4 4 3 4 5 6 8 9 14 12 14 15 14 15 24 39 45 64 97 97 100 92 100
31 29 29 27 26 22 19 19 21 19 13 10 11 9 6 5 5 5 5 4 4 4 4 3 4 5 6 8 9 10 12 16 19 20 19 24 33 47 56 100 99 100 81 100
30 28 26 22 20 21 22 23 22 16 11 10 9 7 7 6 5 5 5 5 4 4 4 4 4 5 6 7 9 12 16 16 23 25 23 24 29 53 57 99 100 100 90 100
26 25 23 22 23 24 24 20 17 13 10 10 8 8 8 6 6 5 5 5 4 4 4 4 4 5 5 7 10 11 14 18 22 23 20 28 35 47 59 95 93 100 100 97
24 24 25 26 28 22 19 17 15 11 11 7 9 8 7 6 5 5 5 5 4 4 5 5 5 6 6 8 10 12 16 19 20 24 25 24 28 51 71 86 93 99 98 92
27 26 26 24 22 17 15 16 14 11 9 9 9 9 6 5 6 6 5 5 5 5 6 6 7 8 9 10 12 12 16 17 20 24 25 21 23 48 81 83 95 100 100 97
24 23 20 19 17 16 14 13 14 11 7 8 8 8 6 5 6 5 5 5 6 5 6 6 6 6 9 11 13 12 14 17 20 24 25 23 23 38 83 89 86 100 100 98
18 17 17 16 15 16 15 13 11 9 10 7 7 8 6 6 6 6 6 6 6 5 7 7 7 7 9 10 11 12 14 17 20 21 19 22 22 31 59 91 97 98 100 100
15 16 16 15 15 14 14 15 9 10 10 8 7 7 6 6 6 6 6 6 6 5 6 6 7 8 9 10 11 13 14 16 17 17 20 23 24 27 45 63 80 96 99 100
15 15 15 16 14 12 14 15 11 10 8 8 7 7 7 6 6 6 5 6 5 5 6 6 8 9 10 11 13 14 15 14 15 20 25 28 29 30 39 52 59 71 90 96
14 15 16 15 13 12 12 14 15 12 9 8 7 7 6 5 5 6 6 6 5 5 6 7 8 9 10 10 12 14 14 13 15 19 26 29 30 30 36 44 51 51 53 72
13 15 14 14 13 12 11 15 14 10 9 8 7 6 6 5 5 5 5 5 6 8 8 9 8 8 9 10 10 11 10 17 18 20 26 28 26 26 29 35 43 48 47 47
13 13 15 13 12 11 14 14 11 10 9 8 8 6 6 6 6 7 7 9 10 11 10 10 10 10 10 10 10 12 16 18 20 22 25 24 27 27 25 29 36 41 46 47
13 14 12 10 12 16 16 13 11 10 9 8 8 7 8 8 9 10 11 12 13 14 14 14 14 16 17 20 23 28 29 27 28 25 26 30 31 32 30 29 30 34 43 48
12 10 10 13 17 19 16 12 11 10 9 8 8 7 8 10 11 12 13 13 15 15 16 18 20 20 21 21 21 20 16 14 15 17 19 21 22 26 29 31 32 31 32 34
11 10 14 19 20 19 14 12 10 10 10 9 9 9 9 10 12 12 14 17 18 17 17 17 18 19 20 21 21 22 22 22 22 22 22 22 23 23 25 26 27 27 26 28
10 16 20 20 20 15 13 12 12 12 12 12 13 13 13 13 14 16 17 19 22 22 22 22 22 22 22 23 24 24 23 22 21 21 20 20 20 19 18 18 19 21 22 23
17 16 16 18 17 15 14 13 13 13 14 15 15 17 19 20 20 20 22 21 20 22 23 22 21 22 23 23 24 25 27 26 25 23 22 21 20 19 19 19 18 18 20 20
13 17 21 20 14 13 14 12 13 14 14 16 19 21 21 22 24 26 28 28 31 34 34 37 36 39 40 41 44 44 42 41 39 36 34 31 28 26 24 23 22 20 19 18
20 19 14 13 13 15 15 15 16 16 19 25 27 30 32 30 31 33 36 46 49 50 56 54 56 55 55 54 54 54 56 54 49 45 42 38 36 34 31 29 26 23 21 18
16 12 13 13 16 18 17 19 22 23 30 35 37 38 39 43 44 47 63 68 62 60 68 67 63 56 49 44 41 38 36 34 33 33 32 31 28 26 25 23 22 20 19 18

GFSNW_250_rhum_078.txt.gz
RH
58 55 52 51 50 51 46 40 40 46 39 34 30 26 24 30 22 22 21 17 13 9 10 12 13 14 12 18 13 16 19 28 35 48 74 93 97 100 97 95 100 97 88 74
50 53 53 49 47 45 38 38 35 32 34 30 28 27 25 23 22 20 16 11 10 11 12 12 14 14 14 18 16 12 13 16 31 40 47 82 100 100 96 100 97 85 80 79
52 48 45 50 45 40 37 29 30 32 31 24 25 23 24 23 20 14 11 11 10 10 9 8 10 10 11 15 17 15 12 14 20 28 35 45 71 94 100 100 100 92 80 75
42 45 43 40 37 32 29 30 33 31 25 26 31 30 22 20 13 11 12 10 7 6 6 6 6 7 8 12 16 15 15 14 16 20 27 35 51 70 84 94 98 92 71 61
53 53 56 36 32 28 27 34 29 34 30 31 31 23 20 14 13 12 10 8 7 6 5 4 4 5 6 8 12 12 15 17 16 18 21 16 28 48 86 90 87 84 67 75
38 35 33 33 37 35 34 32 40 32 31 27 23 22 14 14 12 10 10 7 5 4 4 4 4 4 5 7 10 12 14 16 17 16 15 10 21 29 55 92 91 76 65 86
36 37 41 41 46 42 37 37 32 29 24 23 18 16 17 14 10 10 7 6 5 4 4 4 4 4 5 6 9 11 9 10 14 15 14 14 17 21 37 74 81 80 79 87
45 46 48 47 46 40 35 30 28 25 20 17 17 18 14 12 12 7 6 7 6 5 4 4 4 4 5 6 7 10 8 8 11 11 18 19 16 16 23 40 53 60 79 90
38 37 35 37 37 32 30 25 22 20 20 20 20 15 12 13 10 7 6 6 5 5 4 4 4 4 5 6 6 7 7 8 12 14 24 25 23 19 20 30 43 55 88 96
33 33 36 37 31 26 24 22 22 22 22 22 16 13 13 13 8 7 6 6 6 6 6 4 5 5 6 6 5 6 6 10 12 18 24 27 25 20 19 28 42 62 76 96
30 32 32 30 27 25 24 24 24 23 20 15 13 12 14 10 7 6 6 6 6 6 6 5 5 5 5 6 6 6 9 14 17 23 23 27 26 22 22 28 39 55 74 99
28 28 28 29 27 26 26 28 22 17 15 13 12 12 13 10 6 6 6 6 6 6 6 5 6 6 6 6 6 8 12 15 19 19 23 26 25 21 22 28 42 54 84 100
31 31 31 29 28 25 24 23 19 14 10 11 12 11 11 10 5 6 5 6 6 6 6 6 6 6 6 7 8 10 12 16 19 18 20 21 22 21 22 25 45 57 88 100
26 24 24 22 22 21 18 18 19 14 10 10 11 10 9 8 6 6 6 6 6 5 6 5 6 6 6 8 10 12 15 17 19 19 17 16 22 26 28 28 47 60 79 100
17 17 18 17 17 18 18 17 14 13 12 10 9 10 7 6 5 6 7 7 5 5 5 6 7 8 8 8 10 12 15 16 17 17 15 15 20 26 29 35 48 71 78 97
15 16 16 15 15 17 22 18 12 11 12 11 10 7 6 6 6 7 7 6 5 5 6 6 7 8 9 9 10 12 14 16 15 14 16 18 23 27 30 37 44 64 74 90
16 16 15 14 15 19 21 17 12 12 10 12 8 6 6 6 6 6 6 6 5 5 6 7 8 8 9 10 10 12 14 12 12 14 17 21 26 29 33 34 40 60 73 74
14 13 13 14 16 18 17 17 14 11 12 8 8 7 6 6 6 6 6 5 6 6 7 9 8 8 9 10 11 11 11 12 13 14 17 21 25 27 30 31 34 45 66 73
12 13 14 16 15 14 16 15 13 14 10 8 7 8 7 7 6 6 6 6 7 8 9 9 10 10 10 10 11 10 10 12 16 18 20 23 24 26 28 29 31 34 44 56
14 15 15 13 13 16 14 14 15 12 8 8 8 8 8 7 6 6 6 7 8 10 11 13 13 14 14 14 16 18 20 20 22 21 22 23 24 25 27 29 28 29 32 40
13 13 12 15 16 13 14 17 13 9 9 9 10 10 9 7 7 7 7 8 9 11 13 16 16 18 20 23 23 23 23 25 25 24 22 21 22 24 25 28 31 32 30 30
10 11 14 15 12 15 17 12 10 10 10 11 12 11 10 9 9 9 9 10 11 12 13 12 13 14 15 15 16 15 16 18 19 19 20 22 23 24 26 27 28 29 28 26
10 13 12 12 16 18 13 12 12 12 13 13 12 11 11 11 12 13 14 14 16 17 17 19 20 20 21 22 24 24 23 22 22 22 22 22 23 24 24 24 24 25 25 25
12 11 14 20 22 14 13 12 14 16 16 15 15 16 17 17 15 16 17 19 20 22 23 23 24 25 26 28 28 28 28 28 27 26 25 24 23 23 22 22 21 21 20 20
12 17 22 23 16 13 14 16 18 18 16 17 16 16 17 18 21 24 22 22 22 25 26 25 27 27 27 26 26 26 24 24 22 22 22 21 21 21 20 19 18 18 17 17
19 20 18 15 14 15 19 22 19 19 19 18 19 19 19 20 21 21 21 26 28 33 41 43 44 46 47 49 50 49 46 41 38 36 33 30 29 28 26 24 23 22 20 19
18 18 14 16 17 20 23 21 21 16 20 24 22 23 27 32 36 39 46 50 50 50 54 53 50 54 57 58 58 55 50 48 44 42 37 34 33 32 31 29 27 25 23 21

GFSNW_250_rhum_081.txt.gz
RH
56 60 63 69 73 79 68 71 71 75 81 74 63 61 57 48 35 31 29 26 21 20 19 17 17 16 15 10 13 13 12 12 16 20 28 36 73 86 100 100 100 100 100 100
53 62 68 60 53 57 61 72 71 66 60 58 55 50 44 34 30 24 22 21 22 21 18 14 12 10 11 10 15 13 11 11 12 13 22 31 52 90 95 98 100 100 100 100
63 55 55 51 54 62 64 59 53 46 49 51 46 42 36 30 24 21 23 24 22 17 13 9 10 10 10 10 12 11 14 15 13 13 18 26 36 58 98 93 100 100 100 100
62 54 64 58 58 53 53 49 49 48 54 51 47 38 30 23 22 25 26 20 15 12 9 9 8 7 6 6 8 12 13 16 15 14 14 23 36 47 86 86 91 100 99 100
46 57 65 57 52 62 66 59 51 43 56 50 38 30 31 29 27 23 18 15 11 12 10 8 6 5 6 6 7 8 11 13 12 16 16 16 24 26 47 80 100 100 100 95
49 50 51 52 48 48 55 54 54 44 40 40 36 34 38 31 22 18 15 12 13 11 8 7 5 4 4 4 5 7 10 13 13 15 16 17 19 24 37 65 96 99 100 90
44 46 44 46 48 49 41 35 34 32 41 41 40 38 28 21 19 14 15 15 10 8 7 5 5 4 4 4 4 6 9 12 14 17 17 18 17 17 20 41 60 94 95 100
51 50 49 51 46 46 47 43 42 40 36 35 31 27 23 19 16 18 16 12 9 7 7 6 5 5 4 5 5 6 7 11 15 16 14 18 17 14 15 24 52 74 90 91
47 52 51 47 44 45 43 40 37 32 35 30 25 20 18 18 20 16 12 10 9 7 7 6 6 5 5 5 6 6 6 8 10 8 11 13 17 16 19 25 38 67 89 92
45 45 42 41 38 38 36 36 35 31 26 24 20 18 21 21 17 14 11 9 9 8 6 6 6 5 6 6 7 6 6 6 7 7 12 17 20 18 22 21 25 44 90 99
43 45 42 40 39 38 32 28 27 23 23 22 22 23 22 17 14 11 10 8 10 8 6 6 6 6 6 7 6 7 7 6 6 9 18 22 23 22 26 24 21 29 49 83
34 35 34 32 31 30 27 26 23 25 27 26 23 20 16 15 13 11 8 8 8 7 6 6 6 6 6 7 7 7 7 7 7 11 19 25 26 29 29 30 25 24 29 43
30 30 30 31 29 29 29 28 28 27 25 22 19 14 14 13 11 10 8 8 7 7 6 6 6 6 6 6 6 6 6 7 8 13 18 24 26 29 27 27 24 22 22 32
33 33 33 31 28 29 31 29 25 18 16 17 14 12 12 11 9 10 8 8 7 6 6 6 6 5 6 6 6 6 7 8 10 15 21 24 26 28 25 23 23 21 20 37
23 23 24 25 25 25 26 24 17 15 15 12 13 13 10 10 10 8 7 8 6 6 6 6 6 6 7 7 7 7 9 12 16 20 20 21 17 18 21 25 27 22 23 35
19 20 21 20 20 21 20 18 16 16 13 12 12 10 10 10 9 7 7 7 6 7 7 6 6 6 7 7 7 7 9 14 17 17 14 12 12 17 22 27 28 26 25 37
18 17 16 17 18 18 19 16 15 13 13 14 11 8 9 10 8 7 7 7 6 7 6 6 7 7 8 8 9 10 11 13 12 11 11 12 14 25 27 28 28 28 28 40
15 15 15 16 18 21 19 15 13 12 12 11 11 10 8 7 7 6 6 6 6 6 7 7 7 8 8 10 11 13 14 12 11 12 17 18 21 29 27 28 31 31 30 34
14 15 16 19 22 19 16 16 12 11 11 11 11 8 7 7 6 6 6 6 7 7 7 7 8 8 10 11 13 12 12 11 16 18 20 21 22 25 27 26 28 30 30 30
14 16 18 20 17 17 16 14 12 11 11 12 9 8 8 8 7 6 6 6 6 7 7 8 9 10 12 12 12 13 14 16 17 22 23 26 25 24 27 28 30 32 33 32
14 16 16 15 16 16 14 14 12 13 14 10 9 9 8 8 8 7 6 7 8 8 9 9 10 12 14 18 20 20 21 22 23 22 25 25 24 24 23 24 25 27 29 31
12 12 14 16 15 14 15 13 16 15 11 10 10 10 9 10 11 10 9 9 9 9 8 10 11 13 15 17 16 16 16 17 17 18 16 17 19 21 22 23 24 25 27 28
12 15 14 13 14 15 14 17 16 13 12 11 11 12 13 13 13 12 12 12 11 10 10 10 10 13 14 15 17 20 22 23 23 24 24 23 22 22 22 23 22 22 22 23
10 11 14 15 14 18 19 16 15 12 11 12 13 14 15 15 14 14 16 16 16 16 17 18 20 23 24 24 24 25 25 25 25 24 23 23 22 21 20 20 20 20 20 20
11 13 15 15 21 21 17 14 13 13 15 14 15 16 16 16 17 16 17 17 18 20 22 23 25 26 26 26 27 28 28 28 28 27 26 25 24 23 23 22 21 20 19 18
13 13 16 23 21 17 15 13 15 16 16 17 18 18 19 17 18 21 21 21 23 24 25 28 30 32 32 31 32 34 36 38 39 41 40 42 42 40 38 35 31 28 24 21
13 19 25 22 17 16 15 18 18 17 18 19 18 21 22 21 24 23 24 24 28 34 43 52 62 76 86 87 83 80 76 72 69 64 60 52 49 47 43 40 37 34 30 28

GFSNW_250_rhum_084.txt.gz
RH
32 45 47 60 75 95 92 100 100 99 100 100 99 100 100 96 100 96 88 75 64 60 49 33 30 30 23 17 15 18 19 19 16 15 16 20 19 28 46 70 100 100 100 100
38 56 78 66 75 98 100 100 100 100 95 100 99 83 85 92 89 75 57 51 41 35 31 29 26 21 15 19 19 12 14 13 12 12 12 17 16 30 40 64 100 100 100 100
54 69 80 82 99 100 99 100 92 100 97 98 78 65 60 56 46 51 53 40 40 42 41 25 17 17 19 16 13 9 10 12 12 12 15 14 15 26 32 40 83 100 100 100
50 63 70 75 91 89 92 99 87 91 89 79 67 61 61 60 54 49 48 48 42 34 25 17 20 18 13 10 9 9 8 9 10 12 12 14 14 17 26 48 81 99 100 100
49 61 65 65 81 80 95 96 95 76 64 63 67 64 62 55 57 46 43 40 32 25 23 20 15 12 8 8 6 6 5 6 6 10 12 13 14 19 30 31 94 84 85 86
44 42 50 64 69 82 94 74 88 79 62 62 72 73 50 42 40 38 38 36 29 23 18 14 11 10 7 6 5 5 5 6 8 11 9 11 17 24 24 40 73 36 57 82
48 57 57 61 64 57 60 70 69 65 75 73 66 41 39 44 46 46 33 27 22 17 12 12 11 7 6 5 5 5 5 5 7 9 10 13 24 21 22 29 28 37 47 88
59 57 56 58 57 50 56 56 63 65 64 52 47 53 53 50 39 32 25 21 15 11 11 10 8 7 5 5 5 5 5 5 6 9 14 22 20 21 24 20 18 40 62 71
53 56 59 56 57 58 56 57 58 51 54 54 51 44 38 31 27 23 21 16 14 14 10 8 7 6 6 6 6 5 6 7 7 10 17 25 13 20 26 22 23 38 38 56
42 44 47 48 52 53 56 57 54 48 43 35 35 34 30 27 24 20 17 16 14 11 9 8 7 7 6 6 6 7 6 8 9 11 14 18 10 15 22 19 24 26 28 49
45 43 45 46 48 45 46 46 45 39 36 33 28 26 25 22 22 21 19 14 10 9 9 7 7 7 7 7 7 8 8 9 9 9 9 9 6 11 17 18 22 25 28 48
49 52 52 51 51 49 47 45 43 41 35 26 24 23 23 25 24 21 16 10 10 8 9 8 7 8 7 8 7 7 8 8 9 9 7 8 10 14 19 19 23 28 27 38
51 46 46 44 42 38 35 30 33 31 26 24 24 24 25 22 19 16 12 10 10 7 9 8 8 8 8 7 6 6 6 8 9 8 8 8 13 22 25 25 28 34 30 29
38 38 36 34 34 34 31 31 32 27 25 27 26 23 18 15 15 14 11 10 9 8 8 8 8 8 8 7 7 6 7 7 7 8 10 10 16 24 26 28 30 33 31 28
37 37 36 36 35 36 36 32 26 26 27 24 23 17 13 13 13 14 11 8 9 8 7 8 8 8 8 7 7 7 7 8 8 9 11 14 24 25 24 20 21 26 29 30
32 32 32 32 31 29 28 23 22 22 20 19 18 14 11 12 12 11 9 9 8 8 7 8 8 7 8 8 7 7 7 8 9 10 13 20 25 20 15 14 18 24 29 29
22 22 23 24 24 25 23 20 19 19 16 15 15 12 11 13 10 10 10 8 7 7 8 8 8 7 8 8 8 8 9 10 8 9 14 16 14 12 10 15 23 26 28 29
20 21 22 23 25 26 20 17 18 17 14 15 14 12 10 9 10 9 8 8 7 8 8 8 7 7 8 9 10 9 8 8 7 7 7 8 8 9 14 22 25 29 30 30
20 22 24 26 26 20 17 18 15 15 15 15 14 13 9 11 8 8 8 7 7 7 7 7 7 8 10 9 9 9 9 9 9 9 10 15 18 17 22 23 24 27 27 27
22 24 25 25 20 18 19 17 16 14 15 16 12 12 12 9 8 8 7 7 7 7 6 6 8 9 10 10 9 10 11 11 14 18 22 25 25 24 25 26 26 27 30 30
20 21 23 20 18 18 19 17 14 15 14 12 13 11 9 9 8 7 7 7 7 7 7 8 9 10 10 11 13 15 17 19 23 28 27 27 26 24 23 23 23 23 25 28
16 18 16 16 19 19 15 14 16 14 12 13 11 10 10 9 9 9 8 7 8 8 8 10 10 11 12 15 17 20 22 24 24 24 25 23 23 23 24 25 25 25 25 25
15 15 16 18 16 15 16 16 14 13 14 12 11 11 11 11 10 10 11 10 10 10 10 9 9 10 12 14 16 16 17 20 22 25 26 26 27 26 25 25 24 22 22 22
15 16 16 15 16 17 16 15 16 16 12 12 12 11 11 12 12 13 14 14 15 15 15 15 18 18 19 20 22 23 23 24 26 28 28 28 27 26 24 23 23 23 23 22
14 14 15 16 17 16 15 17 16 14 13 12 12 12 13 15 15 16 16 16 16 18 17 18 21 21 21 23 25 25 26 27 28 30 32 32 33 32 30 28 26 24 22 21
13 13 15 15 15 15 18 15 14 13 14 13 14 16 17 18 19 21 20 22 22 22 24 26 29 32 37 43 53 62 68 72 74 73 69 64 59 52 46 42 38 34 28 24
12 13 14 14 17 19 15 15 16 18 15 17 19 23 25 22 22 25 25 25 28 32 40 42 52 67 80 82 81 82 80 79 78 75 71 66 61 56 51 47 44 39 35 31

GFSNW_250_rhum_087.txt.gz
RH
20 19 25 29 38 56 74 66 100 100 85 100 93 98 100 99 87 92 99 100 99 82 73 69 74 62 46 44 31 25 20 14 11 23 27 22 22 21 18 20 26 30 77 100
21 21 25 35 38 42 61 71 78 94 100 100 93 79 85 98 94 100 100 100 94 86 75 67 60 46 38 40 28 18 17 12 14 20 27 17 16 19 17 20 24 36 82 100
24 24 30 42 51 66 73 83 90 100 99 93 100 100 100 100 100 98 100 100 83 77 75 54 50 46 35 24 19 13 13 17 16 16 17 12 13 15 15 19 27 44 83 100
29 29 34 47 56 70 87 97 77 79 86 95 100 98 98 98 90 88 86 73 75 73 62 54 48 34 23 19 16 18 15 15 10 10 12 10 10 14 15 15 25 28 66 93
40 32 38 52 61 62 70 82 100 100 100 100 100 100 91 86 93 83 78 70 63 56 54 46 31 16 16 24 18 13 10 11 9 9 8 8 11 15 16 15 22 30 46 90
45 51 42 52 65 73 85 69 85 91 79 83 82 85 84 78 70 79 70 63 57 48 36 26 19 23 23 17 12 9 10 8 7 7 7 7 10 17 18 17 20 29 52 64
53 51 56 63 59 65 78 82 80 83 73 86 78 77 73 72 72 66 60 58 46 32 27 27 25 20 15 12 10 8 7 7 6 5 5 7 14 13 18 17 22 43 93 59
47 51 60 60 63 69 75 77 83 71 63 68 70 72 77 76 60 62 53 50 41 34 28 22 19 13 14 11 8 8 7 6 6 5 6 7 9 14 20 18 21 32 42 28
49 56 60 66 71 67 62 70 62 60 67 65 69 67 54 58 59 56 47 38 28 24 21 14 13 14 11 9 8 7 6 6 6 6 7 9 12 18 24 23 22 24 31 31
41 48 55 61 66 66 70 70 69 77 73 70 65 61 54 50 45 39 34 28 25 20 15 18 16 11 10 8 8 7 6 6 7 7 10 11 11 12 20 24 27 26 24 27
41 44 50 53 58 63 63 62 59 57 55 52 46 43 42 38 34 29 24 21 19 18 19 15 10 11 9 8 7 7 7 8 8 8 9 10 10 10 15 20 24 19 20 23
42 44 44 45 44 48 53 53 54 51 45 37 37 37 37 32 25 23 23 22 20 16 14 10 10 10 10 8 7 7 7 7 7 8 9 9 8 8 8 15 19 16 17 20
46 45 42 43 43 47 46 48 53 44 34 30 30 28 29 28 25 25 25 19 15 13 11 10 10 10 9 8 6 6 8 8 8 7 6 7 7 7 9 16 20 24 20 23
45 44 44 44 48 49 50 48 40 33 27 31 29 30 28 25 24 23 18 15 12 11 11 10 11 9 8 7 7 7 9 10 9 8 8 9 10 9 12 13 20 27 27 27
39 41 45 44 42 42 38 35 33 32 35 33 29 26 24 22 19 17 15 13 10 10 11 10 11 8 8 8 7 8 10 10 10 10 12 13 12 12 16 20 25 31 36 34
38 37 37 38 37 37 33 34 36 34 32 28 26 21 19 17 14 13 13 12 11 10 10 10 10 8 8 8 7 9 11 11 11 12 14 16 14 16 19 24 26 26 28 31
36 38 38 38 39 35 30 27 27 27 26 25 21 18 14 13 13 12 11 12 8 10 9 8 9 8 9 8 7 9 10 11 11 12 15 15 16 18 23 24 22 19 21 25
26 28 30 30 28 24 23 24 25 25 25 23 16 14 13 13 13 11 10 10 8 8 8 8 9 9 9 7 7 10 11 11 10 11 12 12 13 18 20 20 15 12 18 23
24 26 26 25 22 22 27 25 26 24 22 18 14 15 11 12 10 10 11 9 8 7 7 8 8 8 8 8 8 8 8 8 8 7 7 8 10 10 12 12 12 22 22 25
24 25 24 22 22 25 25 26 24 19 17 16 16 13 12 11 10 10 8 8 7 7 7 8 8 8 8 8 9 10 10 10 10 12 14 15 16 20 24 26 28 26 25 26
25 22 23 23 24 26 27 23 18 16 18 18 14 12 11 11 10 9 8 8 7 7 7 8 7 8 9 10 12 13 14 17 20 25 27 28 30 31 32 31 28 27 26 27
21 24 23 22 26 25 23 16 17 18 16 15 14 13 13 10 10 9 8 7 7 7 8 9 9 10 11 15 16 17 18 21 25 25 25 24 24 25 26 25 25 25 24 24
21 21 21 21 23 21 15 18 17 15 15 14 15 13 11 11 10 10 8 8 9 10 10 9 11 12 12 14 15 16 16 17 19 22 24 25 25 25 26 26 26 27 26 26
17 17 18 19 18 15 18 16 16 15 16 15 13 11 12 11 12 12 14 13 13 13 14 15 16 15 17 19 19 22 22 22 24 27 28 29 29 29 28 27 26 24 23 22
14 16 17 14 16 17 15 16 16 16 16 13 12 12 13 13 13 13 14 13 16 19 14 18 20 19 21 23 23 30 32 32 34 33 34 37 41 44 47 45 44 42 38 34
15 13 13 16 15 16 17 17 17 16 14 13 14 14 14 14 15 18 20 21 17 19 22 24 27 29 30 32 38 47 53 58 66 73 74 71 69 67 66 65 63 58 52 46
11 14 15 16 15 18 17 18 16 15 15 16 16 17 20 20 20 22 27 28 28 29 30 30 39 53 68 79 84 84 81 82 84 85 86 82 76 70 65 58 50 43 37 30

GFSNW_250_rhum_090.txt.gz
RH
16 16 17 16 18 19 23 27 25 43 73 100 95 96 93 100 90 88 78 76 66 66 74 81 74 69 57 55 50 41 44 41 36 44 48 39 28 20 21 16 20 22 21 34
17 18 19 18 23 24 26 32 44 55 86 98 88 92 92 97 95 85 83 76 84 74 68 80 82 77 68 68 61 57 52 30 18 18 30 44 25 18 21 19 20 21 22 43
17 19 21 23 24 28 29 39 51 73 86 95 97 85 100 95 96 91 96 91 86 89 94 91 84 81 73 78 62 47 40 27 13 11 19 27 24 21 21 18 18 18 26 33
19 22 24 28 28 31 38 45 80 99 100 100 100 100 100 100 100 100 100 84 83 94 81 82 85 76 78 77 54 29 22 22 14 14 18 21 18 16 16 14 15 17 28 53
22 22 28 32 33 39 50 63 68 75 100 100 100 100 100 100 100 100 99 85 85 92 91 88 86 65 59 58 28 14 15 19 18 17 12 11 12 14 14 14 13 18 22 24
24 25 30 34 35 37 43 52 60 66 82 90 96 98 95 92 82 84 85 89 91 91 97 75 56 55 42 30 20 17 18 14 10 11 9 10 10 10 11 11 13 17 17 19
29 31 36 37 46 46 52 70 81 81 83 84 88 76 77 78 82 86 90 89 83 76 64 55 35 31 28 28 21 16 12 9 10 9 8 7 7 7 8 9 13 20 21 20
30 32 44 47 50 53 60 69 75 82 70 67 71 70 74 76 76 78 78 73 75 64 47 38 28 30 26 19 15 12 15 12 8 7 6 5 6 7 8 9 11 19 24 20
30 35 50 57 55 61 67 72 70 89 81 75 72 76 78 81 80 75 73 65 53 51 47 40 28 24 22 14 16 14 9 8 7 6 6 6 7 8 8 10 14 19 27 26
30 44 53 57 63 69 66 70 67 67 66 73 78 79 85 82 80 73 71 68 52 38 30 26 22 21 16 17 14 9 8 7 7 6 6 6 6 9 9 10 14 19 26 26
33 45 47 53 59 64 67 73 69 78 84 83 82 82 84 82 81 71 55 42 34 30 24 20 20 20 18 14 9 9 8 8 7 6 6 6 8 9 12 15 16 19 28 27
35 42 48 53 58 57 57 67 69 67 70 76 79 77 71 65 57 47 36 32 28 22 19 20 20 15 13 12 8 9 9 8 7 8 8 9 8 8 10 16 20 22 24 25
35 40 44 47 50 55 56 61 61 64 72 74 67 62 54 47 37 30 27 24 23 20 21 16 14 13 12 10 8 9 9 8 9 10 9 9 10 10 12 15 17 20 20 23
36 41 46 51 52 53 53 53 56 60 55 47 50 47 38 33 29 26 25 23 21 19 14 13 13 13 12 9 9 9 10 10 10 12 11 12 11 11 9 10 11 14 18 22
33 36 39 43 46 44 49 45 41 41 43 38 33 31 31 31 26 24 22 20 17 13 12 12 12 11 10 9 10 10 10 9 10 11 14 15 14 13 10 14 16 21 24 28
32 38 39 40 42 42 45 32 38 40 39 36 33 33 28 23 20 18 17 15 11 10 11 11 11 10 10 8 9 10 9 9 10 11 14 18 19 18 17 15 16 19 30 34
31 37 40 42 40 40 37 37 41 42 42 36 27 22 20 19 17 14 12 12 11 10 10 11 10 10 9 8 9 10 9 10 12 12 13 18 24 22 21 21 23 26 34 37
27 29 34 37 40 41 38 41 43 38 30 24 19 18 20 17 13 11 11 10 9 9 9 12 10 9 9 9 9 9 9 11 12 12 12 13 18 21 19 20 22 27 30 30
27 27 28 27 28 32 38 35 33 30 26 20 19 21 15 13 12 12 10 9 8 9 9 9 9 9 9 9 9 9 9 9 10 10 12 13 16 17 18 15 14 15 14 10
26 25 25 26 29 28 30 32 33 29 24 21 21 14 12 13 11 10 9 9 8 7 8 8 8 8 8 8 9 11 13 12 12 12 12 11 13 13 13 12 12 21 25 22
23 22 24 25 28 30 33 32 29 25 23 21 16 15 14 13 11 10 9 8 7 7 8 8 7 8 9 10 12 12 14 14 14 13 15 19 22 25 24 24 26 30 29 28
22 23 24 26 30 31 30 27 24 24 22 18 16 14 13 12 11 9 8 8 8 7 8 8 10 10 11 11 12 14 14 13 14 15 19 22 24 25 25 26 27 29 28 28
23 22 24 29 32 31 25 20 21 21 18 17 15 14 12 12 10 11 10 9 8 8 8 9 10 11 10 10 12 13 13 16 19 20 22 24 26 27 30 30 30 30 30 29
21 23 27 30 31 24 20 21 21 19 18 16 15 13 13 12 14 12 9 10 10 10 11 12 12 12 14 16 19 22 23 24 24 25 28 29 29 30 32 34 33 31 28 27
24 24 26 27 20 19 20 20 19 18 18 16 15 13 14 14 13 12 12 12 12 12 12 14 16 18 23 22 23 28 30 32 33 34 37 43 48 49 49 51 52 52 50 46
21 22 19 16 18 19 18 19 18 18 16 16 14 14 14 15 14 15 17 18 14 17 19 21 23 28 27 28 31 39 45 56 62 64 66 68 69 70 68 65 62 57 50 44
16 14 14 18 17 18 18 18 17 18 17 16 15 16 17 16 16 17 19 23 22 24 26 30 36 34 36 52 63 66 69 76 81 84 80 74 73 71 72 74 70 66 61 56

GFSNW_250_rhum_093.txt.gz
RH
12 11 12 14 16 17 17 17 35 39 35 36 29 26 30 44 47 83 84 69 83 87 74 67 71 81 87 93 100 92 80 76 88 100 92 71 66 66 57 42 26 25 22 28
13 12 13 15 16 19 19 22 33 37 37 54 41 60 64 77 100 100 100 100 100 100 99 96 90 87 84 88 84 68 56 54 60 62 62 70 79 70 31 23 21 25 19 28
15 14 15 16 17 20 22 23 22 28 36 67 83 84 100 100 100 100 100 100 100 100 96 90 98 93 96 84 59 49 50 53 55 48 54 74 69 39 23 20 18 17 20 33
15 15 14 17 20 21 25 23 25 28 60 74 86 90 94 100 100 100 100 100 100 100 100 100 91 75 79 68 61 58 56 59 49 29 29 36 22 21 18 13 19 18 26 28
16 16 18 21 22 24 25 26 28 32 56 77 97 100 96 98 100 100 100 100 100 100 100 94 98 88 81 79 66 57 52 46 29 26 19 13 15 28 20 16 19 17 19 25
19 19 20 22 24 27 28 25 29 37 52 81 100 100 100 100 100 100 100 100 100 100 100 92 88 90 76 69 49 31 41 24 20 28 21 14 17 17 14 12 13 14 15 21
21 22 23 25 29 31 33 39 45 56 65 78 97 100 100 100 100 100 97 99 95 96 100 96 86 73 61 53 39 30 21 22 23 19 14 11 9 9 8 10 10 12 13 19
25 23 25 29 32 38 44 44 46 61 71 81 97 96 95 96 95 96 98 96 90 88 78 72 72 68 48 31 26 28 26 17 14 11 9 9 8 6 6 7 8 11 15 19
26 25 28 31 35 41 50 54 56 63 70 82 90 85 79 82 87 89 85 88 85 84 66 58 46 37 28 28 27 20 15 13 12 10 7 6 6 6 7 8 8 10 15 21
27 28 31 36 37 44 56 67 67 70 71 78 85 82 89 92 88 86 86 81 77 67 59 42 42 38 22 26 22 14 14 12 10 8 7 7 6 6 6 8 8 11 14 16
29 31 35 39 43 52 60 59 63 75 83 91 95 92 87 86 85 82 80 75 65 55 48 36 31 26 22 23 16 15 14 10 8 8 7 7 7 7 7 8 9 12 15 18
32 34 36 38 48 57 63 67 68 72 84 84 88 92 88 88 93 84 66 57 51 44 37 30 27 20 20 24 18 12 11 10 9 7 7 8 8 8 8 9 10 12 14 18
34 36 35 43 51 55 63 69 76 84 92 86 86 89 83 74 64 59 62 54 42 34 28 24 23 21 21 18 12 11 12 10 9 8 9 10 10 9 10 11 12 14 14 15
35 33 38 44 47 52 57 68 70 72 76 75 70 64 69 66 64 59 48 36 28 24 24 23 21 20 14 13 10 12 12 11 9 9 10 11 13 13 13 13 13 16 19 20
34 32 38 44 50 51 54 60 62 63 65 66 66 66 64 59 48 37 28 24 24 23 21 19 18 14 12 13 11 13 11 11 10 10 11 13 12 13 13 14 15 17 18 18
36 34 38 42 52 58 61 68 65 64 69 70 56 51 40 33 31 30 27 23 19 18 17 16 12 12 12 13 11 12 11 11 11 11 12 14 15 16 16 17 17 15 17 18
36 34 38 43 53 58 59 58 62 58 48 38 36 36 34 35 30 25 20 17 17 16 13 12 11 12 11 12 12 10 10 11 11 11 12 14 17 18 18 18 19 20 25 29
32 30 32 37 40 41 43 45 43 42 34 34 37 38 31 24 19 16 16 15 13 12 11 12 11 10 11 12 10 10 10 11 10 13 14 15 15 18 21 26 24 22 23 30
28 27 28 30 34 36 41 43 41 38 37 37 31 26 20 16 16 14 14 11 10 10 10 10 10 10 10 9 9 10 11 10 10 12 16 18 19 24 24 26 31 34 36 35
33 34 33 32 35 37 38 36 34 31 30 30 26 19 18 17 16 13 12 12 10 9 9 9 9 8 8 9 9 10 10 10 11 12 13 15 17 22 24 24 25 24 25 18
33 36 36 34 34 33 32 32 29 28 29 27 22 20 18 16 13 13 11 10 10 9 8 8 8 8 9 9 10 10 11 11 11 11 10 10 12 13 14 18 20 17 16 21
31 32 35 37 36 32 31 30 29 30 29 25 22 20 17 15 14 11 11 10 9 8 8 8 8 9 9 9 9 8 9 10 10 10 11 12 14 17 19 22 21 23 25 26
31 33 35 35 34 32 30 28 30 30 27 24 20 17 15 14 12 12 10 9 8 8 7 7 8 9 9 9 9 10 13 14 14 15 16 18 22 26 29 31 30 30 30 31
30 31 31 32 32 31 31 32 30 26 24 21 18 15 14 14 12 10 9 9 8 8 8 8 9 10 11 12 16 18 16 20 22 24 26 27 29 30 31 33 35 38 41 44
28 28 30 32 28 31 32 29 25 24 21 19 16 14 15 13 12 12 12 10 10 10 10 10 13 14 16 19 22 23 24 25 25 29 33 33 36 44 59 66 67 65 63 62
25 28 29 26 28 28 26 24 23 20 19 18 16 16 13 14 15 15 14 13 14 14 13 14 16 18 22 23 24 25 27 32 41 52 63 71 78 76 72 67 65 66 68 70
24 26 26 25 24 22 23 22 20 19 19 18 17 15 17 15 15 15 16 16 17 17 18 17 22 23 26 26 26 37 54 69 75 76 73 72 69 70 74 76 76 75 77 78

GFSNW_250_rhum_096.txt.gz
RH
13 14 14 14 12 11 12 15 15 16 18 22 26 28 28 24 22 24 34 51 48 40 49 54 63 57 68 78 72 73 75 87 93 95 71 76 87 83 70 72 74 66 62 58
14 13 13 13 13 13 13 16 17 18 23 23 36 48 47 45 30 31 42 67 67 79 88 89 94 98 100 89 82 84 91 87 92 91 79 80 81 93 79 61 50 54 33 35
15 15 15 14 15 15 14 17 17 21 24 29 53 62 58 65 50 60 94 83 96 94 98 95 95 97 100 100 100 100 97 90 94 92 96 99 98 84 55 43 36 31 31 32
16 16 16 16 17 16 16 18 19 23 25 40 51 53 66 86 76 64 84 100 100 100 100 100 100 100 99 99 96 91 92 90 90 84 68 62 52 52 46 39 35 25 36 19
19 19 18 18 18 18 17 18 22 26 30 31 41 43 73 92 95 86 96 100 100 100 94 100 99 96 96 98 94 80 79 94 82 68 64 58 39 35 35 33 26 13 13 26
21 21 21 22 20 19 18 19 24 28 30 29 33 52 75 92 100 100 99 100 89 100 100 99 96 100 100 79 77 86 93 78 74 63 40 24 26 26 20 16 17 13 18 28
22 22 22 22 21 19 20 24 26 30 29 32 42 51 66 94 100 100 100 100 100 99 97 98 96 88 81 81 85 89 84 65 45 32 29 24 20 23 20 18 17 15 15 18
23 23 24 23 22 19 23 27 29 36 38 40 48 64 80 93 96 98 98 98 100 100 99 88 86 86 87 94 75 56 44 25 22 26 30 23 19 16 13 12 12 12 12 12
24 25 26 26 22 24 26 31 38 43 53 58 69 79 87 95 100 100 100 100 98 100 100 100 95 94 84 74 62 36 27 27 26 21 18 15 12 10 10 10 9 9 11 14
24 25 27 24 27 31 35 42 47 54 66 73 79 82 91 95 95 97 100 99 100 100 98 94 79 70 57 47 49 45 26 22 20 14 14 14 11 8 8 8 8 9 10 12
24 28 29 28 28 36 45 46 57 63 68 71 80 88 89 92 94 95 84 77 79 83 86 76 64 55 48 48 41 24 20 16 16 15 12 9 8 8 7 7 8 9 11 13
28 32 31 28 32 40 47 52 66 71 73 76 77 83 88 89 88 86 82 89 85 78 74 66 56 45 36 36 30 18 17 19 14 10 11 9 8 7 8 8 9 10 11 14
33 32 32 31 37 41 46 64 72 75 80 85 89 84 80 81 85 84 89 83 84 77 68 54 42 32 27 24 25 20 20 16 11 10 11 9 8 8 9 9 10 12 13 18
35 34 33 32 38 45 51 56 66 69 74 75 89 83 83 80 80 79 75 77 76 61 45 38 36 24 22 23 21 18 16 13 12 10 12 9 8 9 11 11 12 14 16 19
35 33 33 34 40 48 55 58 60 66 71 72 68 70 71 74 74 68 66 62 48 45 42 30 24 24 21 19 18 13 14 13 14 11 10 9 9 10 13 16 15 16 16 15
35 34 37 38 44 52 58 63 66 61 63 64 65 71 70 66 60 56 51 47 41 28 25 27 24 18 16 16 13 11 14 13 13 11 10 10 10 12 13 17 18 17 20 19
37 41 39 40 50 53 52 56 62 58 60 64 64 64 66 66 59 51 40 27 25 25 21 18 17 15 13 13 12 12 13 14 14 11 11 10 11 14 16 17 19 23 25 22
40 42 42 40 45 48 49 54 58 61 65 70 68 69 57 47 33 26 25 24 21 18 16 15 14 11 11 12 12 12 13 14 12 11 12 11 11 15 19 20 22 23 28 32
42 44 40 37 39 46 55 56 60 63 70 69 65 49 36 31 28 25 21 17 17 14 13 13 11 11 11 11 12 13 12 12 11 12 13 10 10 15 19 21 22 23 34 40
44 44 43 39 40 47 52 54 59 62 53 46 42 36 32 28 24 17 17 15 13 10 11 10 10 11 11 11 11 11 11 12 13 13 12 11 11 12 17 22 26 27 27 31
45 48 45 39 40 42 43 44 43 42 43 39 34 31 28 22 17 17 15 11 11 10 10 10 10 10 10 10 11 11 11 10 10 9 9 10 11 12 12 17 21 29 24 21
34 36 36 36 35 33 33 34 36 36 33 32 30 26 22 19 20 16 13 12 11 10 9 9 9 9 10 10 10 9 9 9 11 13 15 15 15 13 13 18 26 24 24 25
36 37 37 35 36 34 34 34 34 32 31 30 27 24 20 20 18 15 13 12 10 10 9 8 8 9 8 8 9 10 12 12 13 13 13 14 15 17 20 23 25 28 32 33
43 40 39 40 42 40 39 39 37 33 30 27 23 21 20 19 16 14 12 11 10 10 9 8 8 8 9 11 13 15 15 15 15 15 15 17 20 24 29 32 38 44 47 52
41 39 40 40 39 40 39 39 34 31 28 24 22 21 19 16 15 14 13 12 10 9 9 10 11 12 14 15 17 18 17 19 23 24 27 31 36 46 57 68 74 74 78 80
35 37 38 38 38 39 38 34 31 28 25 24 22 20 18 16 15 14 12 11 10 11 13 12 12 14 18 17 19 21 24 27 30 41 52 60 74 84 87 86 83 79 78 80
32 33 32 38 36 33 33 30 27 25 25 22 20 20 18 15 14 14 14 13 13 15 14 14 14 17 19 24 24 28 31 40 67 78 83 90 87 74 77 83 84 81 76 74

GFSNW_250_rhum_099.txt.gz
RH
15 17 18 16 15 20 18 14 13 14 16 13 12 14 15 17 20 20 18 21 19 18 27 32 40 49 27 41 38 41 48 50 54 67 78 76 84 86 78 79 83 72 60 72
10 11 12 13 14 16 15 14 13 15 16 14 14 15 17 20 25 21 28 29 20 24 26 49 72 68 66 82 77 72 70 64 62 67 76 76 71 70 72 73 65 68 62 79
10 11 12 14 15 15 15 14 15 17 16 15 15 18 20 22 25 29 45 36 30 30 53 79 88 86 74 96 97 96 97 95 98 98 98 94 90 89 72 58 66 72 79 61
8 10 12 14 15 16 16 16 17 17 18 16 17 21 25 25 28 43 47 35 39 59 88 97 92 90 100 100 100 100 100 100 100 99 98 99 97 87 76 67 63 64 66 43
8 9 12 14 16 16 17 17 18 17 17 18 21 22 26 30 41 47 64 81 85 84 96 96 100 100 100 100 100 100 100 100 100 100 96 96 94 84 81 70 60 49 42 42
9 11 12 15 17 17 18 18 18 18 19 21 22 22 26 33 55 54 78 98 99 94 95 100 93 99 99 97 100 100 95 98 94 81 77 73 66 60 56 54 50 34 27 24
9 11 14 17 19 19 19 20 20 20 18 20 22 28 35 48 64 70 82 100 94 91 100 97 95 88 94 100 100 96 99 93 78 72 68 61 57 51 45 36 24 18 17 17
8 11 15 19 21 20 21 22 22 20 22 26 28 35 42 44 60 73 83 100 100 100 100 99 100 94 100 100 100 98 92 76 71 67 56 51 48 39 28 22 23 20 16 14
9 12 16 20 22 22 24 25 23 24 26 27 34 35 35 48 63 64 91 100 98 100 95 96 100 100 96 92 87 79 71 63 57 50 48 42 31 27 23 22 17 14 13 11
11 14 17 21 23 25 26 24 24 26 30 34 38 41 51 63 69 76 94 100 100 99 98 100 99 86 90 96 85 74 56 44 46 44 32 25 22 18 16 14 13 12 11 10
12 15 21 24 25 29 26 24 27 31 34 42 50 54 66 78 87 92 95 96 97 94 91 90 91 93 95 96 79 53 46 45 33 24 21 17 17 14 12 10 10 10 10 10
14 20 23 27 31 29 25 24 33 44 46 53 59 58 68 83 96 100 100 96 98 100 96 90 86 83 76 69 60 52 40 31 24 18 23 18 13 11 10 10 10 10 10 10
20 25 28 31 31 27 27 34 47 49 56 62 72 85 85 84 85 84 88 92 88 85 82 79 72 71 60 60 57 37 27 23 20 18 18 12 12 12 11 10 10 10 11 13
25 28 30 31 29 31 34 43 54 61 69 71 77 77 80 76 78 84 82 82 82 84 82 72 61 50 42 38 38 27 23 24 18 16 14 12 14 13 11 10 11 12 14 15
28 31 31 30 30 31 41 54 61 70 75 75 77 82 86 89 90 88 88 91 90 82 68 54 44 35 30 25 25 28 22 20 16 13 14 14 14 13 11 11 13 14 16 20
32 32 32 33 32 33 46 64 67 74 78 87 86 91 90 86 89 94 90 82 69 53 48 41 33 28 25 25 22 19 17 17 14 12 15 14 14 14 11 13 16 17 20 20
33 33 35 35 32 33 45 52 61 66 73 80 80 79 84 80 75 69 62 54 48 44 38 34 29 27 22 17 17 17 14 15 14 13 13 15 13 13 13 15 18 22 23 24
34 38 38 36 36 40 48 54 60 61 72 82 74 72 66 63 55 52 49 43 36 29 27 28 24 18 16 14 14 14 13 16 15 13 12 13 13 13 14 20 22 25 28 30
37 38 37 38 37 36 46 49 51 60 73 71 73 68 64 55 53 47 39 31 26 26 21 16 15 14 12 12 12 12 12 14 15 13 12 11 13 14 13 18 27 31 39 40
40 38 40 41 37 40 47 55 61 71 78 72 61 62 60 52 44 33 28 26 21 17 15 12 13 11 12 11 10 11 12 14 14 13 12 11 13 15 14 15 21 25 36 57
40 43 43 42 43 41 44 59 63 65 64 61 59 55 51 41 33 27 23 18 15 14 12 11 11 11 10 10 11 11 11 11 10 9 10 11 12 13 13 13 17 25 34 39
39 39 39 43 43 40 46 54 61 58 55 53 53 45 36 30 23 19 17 16 13 11 10 10 10 10 10 10 9 8 9 10 11 13 13 14 15 17 17 19 22 20 23 28
40 42 43 45 47 49 49 47 48 47 47 43 36 30 27 21 19 19 16 14 12 11 10 9 9 8 8 9 10 10 10 11 11 11 13 16 18 20 22 25 30 29 29 33
43 41 43 47 52 52 52 47 40 37 35 32 30 26 21 21 20 18 16 13 12 10 9 9 8 9 10 10 10 10 11 12 12 12 14 14 16 19 25 29 32 33 32 40
44 44 51 50 47 46 42 38 37 36 36 34 28 21 21 22 20 17 14 13 11 10 10 9 10 10 10 11 12 12 13 13 14 14 15 18 21 25 27 34 44 52 64 75
45 44 42 41 40 38 38 38 37 37 35 30 22 20 22 20 18 15 14 13 12 10 10 10 10 10 11 12 14 17 19 20 22 23 24 26 32 44 56 70 82 90 88 89
38 38 39 41 41 40 40 39 37 35 31 24 21 22 20 18 17 15 15 15 13 11 11 12 11 12 15 18 21 23 25 27 27 35 52 72 81 90 93 87 90 90 87 88

GFSNW_250_rhum_102.txt.gz
RH
22 27 35 37 38 58 54 50 40 37 33 32 26 19 17 14 13 13 13 12 15 14 13 18 24 22 29 33 34 32 38 22 28 28 28 31 34 40 48 58 67 78 80 82
10 11 14 15 18 19 20 25 24 20 19 19 15 14 14 13 13 13 12 13 17 17 17 21 27 29 39 46 62 73 65 51 48 54 58 72 84 79 76 77 76 82 82 86
7 9 9 10 12 13 15 16 16 15 15 14 14 15 14 14 14 13 13 17 20 19 19 36 32 39 43 52 66 76 71 69 68 75 79 75 74 80 76 76 77 76 80 92
5 6 7 8 10 11 12 13 14 14 15 16 15 15 15 15 15 14 15 20 21 22 42 50 36 44 63 72 79 78 71 66 94 100 97 97 98 85 86 88 74 80 85 90
5 5 6 7 7 9 10 12 14 14 15 16 16 17 16 16 15 15 17 22 29 37 55 45 59 82 88 94 88 76 94 100 100 100 100 100 98 96 95 90 89 91 98 90
4 5 5 6 7 8 9 12 14 15 16 17 17 17 16 17 16 18 22 39 48 59 51 72 83 97 91 97 97 100 100 99 93 92 92 95 94 89 86 80 78 74 75 71
4 5 6 7 7 9 11 14 16 17 18 18 19 18 18 18 20 24 34 54 60 62 83 100 100 98 99 100 100 100 94 97 97 94 94 88 85 80 72 65 63 56 54 49
5 5 6 7 8 10 13 15 16 19 20 20 19 20 20 19 24 36 52 62 65 70 100 96 100 100 100 98 100 98 89 92 98 98 95 83 71 60 56 48 41 32 26 20
6 6 7 9 11 13 15 17 20 22 21 21 22 20 20 20 30 48 60 73 90 91 96 100 100 100 100 100 100 95 96 99 98 88 74 59 52 48 43 34 25 22 21 19
7 7 9 11 13 16 19 22 23 23 23 23 22 20 25 39 59 68 67 75 95 98 100 100 100 100 100 99 100 100 96 91 74 67 57 52 52 40 31 24 21 19 16 13
8 9 10 12 16 20 22 22 25 24 23 22 26 34 40 48 56 66 69 84 97 95 100 99 97 96 94 97 91 86 79 72 61 56 59 53 36 26 22 19 17 15 13 11
9 10 12 15 20 21 21 27 27 26 26 32 38 39 43 50 57 64 82 89 92 92 99 97 96 100 96 88 79 73 66 60 61 61 45 29 23 19 17 16 13 10 10 9
10 12 15 19 20 25 28 29 29 29 30 34 43 51 67 71 77 84 94 100 100 100 100 99 97 93 82 80 72 61 63 59 47 34 28 22 20 18 15 12 11 11 10 11
14 15 17 22 28 27 28 30 32 34 36 54 62 71 76 78 81 82 84 93 94 96 97 91 85 84 78 78 70 61 55 46 28 22 25 21 19 15 14 13 12 12 11 13
12 17 23 28 27 27 30 32 35 47 57 70 72 76 78 76 76 83 83 86 90 87 82 81 75 70 72 60 56 51 40 29 24 23 21 19 17 14 15 15 14 15 16 16
20 24 25 26 30 32 33 33 48 62 68 68 70 72 77 81 86 85 84 86 91 86 74 67 60 49 42 39 37 32 31 29 21 19 19 17 16 16 17 17 17 16 16 20
23 25 29 32 33 33 33 43 54 60 63 67 77 82 87 87 89 88 85 81 78 70 57 44 39 35 32 26 24 26 24 22 19 18 18 16 16 17 17 16 17 18 21 23
24 30 32 34 36 35 39 51 56 61 74 78 78 83 83 87 85 83 79 64 54 44 41 38 31 26 23 21 20 18 20 20 18 16 17 16 18 18 18 16 18 20 23 25
29 34 35 37 37 35 41 50 52 64 70 70 79 84 79 79 68 56 50 46 43 37 32 28 26 25 22 16 17 18 19 18 16 14 15 17 17 19 17 16 18 21 25 25
34 37 39 40 36 37 43 48 55 59 68 76 68 64 64 56 52 51 47 39 30 23 26 26 20 16 14 15 14 15 14 14 14 14 14 15 19 20 17 17 16 18 22 28
36 39 39 37 37 35 36 46 54 61 59 54 57 57 54 54 51 45 34 28 25 23 19 16 14 13 12 11 12 12 12 13 12 12 13 14 14 16 17 18 17 20 26 34
38 39 38 39 39 37 43 50 57 55 56 54 57 57 56 50 42 36 29 25 20 16 14 12 11 10 10 10 10 11 11 11 12 11 12 14 15 17 18 17 17 31 42 37
41 44 42 43 45 52 53 46 46 51 57 56 57 54 49 44 35 27 22 20 17 14 12 11 10 10 9 10 10 11 12 13 13 13 14 15 16 15 18 24 34 35 40 48
45 43 46 47 49 45 43 47 52 50 52 52 48 49 44 32 26 22 20 17 14 12 12 11 10 9 9 10 10 10 11 11 12 12 12 12 14 16 19 27 29 33 38 36
46 46 47 44 42 45 45 46 49 47 48 49 44 36 30 25 21 20 17 15 13 13 11 10 9 9 9 9 10 10 10 10 11 12 13 14 15 15 19 27 31 40 52 64
47 44 41 40 43 45 48 48 49 56 52 43 36 32 26 21 20 18 17 15 14 12 11 10 9 9 9 10 11 11 12 13 13 13 14 15 16 23 34 46 61 75 88 96
46 46 47 48 49 50 50 54 53 49 44 38 30 27 21 23 20 18 17 15 13 12 10 10 10 11 12 13 14 14 15 16 17 21 26 35 41 52 66 81 91 96 98 93

GFSNW_250_rhum_105.txt.gz
RH
24 23 27 31 34 39 41 45 52 48 45 50 57 68 53 76 77 52 52 64 31 28 17 15 15 15 15 20 22 25 28 20 28 29 42 38 24 27 47 76 90 100 100 100
13 13 12 19 26 33 35 31 32 37 42 35 46 59 61 66 59 51 42 24 21 15 14 15 16 16 18 28 30 32 37 28 42 44 42 48 37 37 44 50 82 100 100 100
8 7 6 8 10 11 12 12 13 14 19 26 36 51 53 55 39 24 19 17 16 14 15 16 16 16 25 32 33 37 36 48 59 66 62 60 42 43 83 95 95 100 100 89
5 4 4 4 6 7 8 10 11 12 14 18 26 24 25 22 22 19 16 15 15 14 16 16 18 21 28 35 46 48 54 57 45 59 72 71 77 76 84 93 100 98 90 97
4 3 4 4 6 7 6 8 10 11 12 14 16 16 17 18 18 17 16 16 15 17 17 20 24 29 42 51 54 61 54 67 79 90 97 93 82 97 100 100 95 95 100 94
3 3 4 4 5 5 5 6 8 10 11 13 14 16 17 17 17 17 18 16 17 18 20 23 36 49 53 59 65 60 89 96 94 97 99 96 99 100 100 99 99 100 100 92
4 4 4 4 5 5 6 6 8 10 11 11 13 16 16 17 17 18 18 19 18 20 24 37 54 67 70 75 77 92 98 98 100 100 100 99 96 91 92 94 94 94 96 88
4 4 4 4 5 5 6 7 7 8 11 14 15 17 17 18 19 19 19 20 21 30 40 67 80 82 77 84 97 100 100 98 98 98 95 98 93 95 94 93 90 83 78 71
4 4 4 4 5 5 6 7 8 10 14 15 17 18 19 20 20 20 20 19 29 45 73 87 91 94 100 100 100 100 100 100 100 100 90 80 79 75 70 65 64 52 45 38
5 5 5 5 6 7 7 8 10 13 17 17 20 20 21 21 20 18 20 26 49 66 85 83 92 100 100 100 100 97 99 100 97 91 81 73 68 60 55 52 44 30 26 23
6 6 6 6 7 8 9 11 16 17 19 22 23 23 22 22 22 23 31 47 68 77 93 95 97 100 97 96 97 100 97 92 89 84 72 65 60 57 50 40 30 23 18 15
7 6 7 8 9 10 13 16 17 20 24 25 25 23 23 22 23 33 48 64 76 86 89 94 97 99 91 97 94 91 96 85 80 69 57 59 55 44 34 25 20 18 15 14
8 8 8 10 12 16 16 17 24 27 27 26 27 26 24 30 39 48 57 65 77 84 100 100 94 98 98 99 91 80 68 65 60 55 60 51 39 30 26 21 18 16 13 11
10 9 11 14 16 16 22 27 28 27 27 27 29 33 47 56 57 60 65 71 78 94 99 92 94 94 89 83 74 67 63 63 59 59 52 39 29 24 22 18 15 12 12 12
12 13 13 13 18 26 28 28 28 29 30 32 37 52 57 63 76 83 84 91 97 94 88 86 90 85 83 71 69 64 59 59 59 49 35 26 25 21 19 17 14 14 15 14
12 11 15 23 27 28 29 32 32 33 36 46 63 59 62 77 86 91 96 95 93 86 83 83 83 80 73 66 61 57 54 56 50 32 27 25 20 18 18 16 16 18 17 15
13 18 24 27 28 31 34 35 37 41 51 60 65 76 81 86 91 92 91 86 84 80 74 70 71 70 66 60 50 45 46 42 34 30 24 20 20 20 19 19 19 20 18 17
21 21 23 29 33 34 34 35 39 42 58 68 75 79 79 82 86 85 92 84 79 71 68 66 60 54 46 44 39 31 29 30 29 22 19 20 21 20 19 22 22 21 19 19
22 28 31 33 34 36 37 41 48 64 71 65 70 80 83 88 83 83 80 73 67 63 54 44 41 39 34 28 24 25 24 22 20 20 19 20 21 20 21 22 23 22 20 23
30 32 35 35 36 36 36 45 56 64 71 80 79 77 79 75 72 70 63 58 52 42 39 37 32 27 22 21 18 16 17 19 18 18 17 17 19 19 21 22 22 22 21 25
34 38 38 37 39 39 42 56 61 64 67 65 69 72 72 69 66 61 51 45 37 33 27 28 23 19 16 14 12 13 15 14 14 15 16 17 18 20 21 21 21 21 20 18
34 36 36 39 42 44 50 57 60 56 58 66 65 63 64 61 54 46 38 31 29 26 22 18 14 13 11 11 11 11 11 12 13 13 14 16 17 19 21 20 20 20 19 24
32 38 41 43 46 42 41 46 52 53 55 58 58 56 53 48 38 31 28 25 22 20 16 14 13 11 10 10 10 10 11 11 12 13 14 16 16 17 19 20 22 22 27 39
43 45 48 46 44 42 42 46 49 51 52 52 52 49 44 35 29 26 24 24 20 18 16 14 11 10 10 10 10 11 11 12 12 12 13 14 16 17 16 19 27 34 32 42
46 46 48 46 46 45 45 41 41 43 47 48 45 39 33 28 26 26 26 21 18 16 14 12 11 10 9 9 9 9 10 10 10 11 11 13 14 16 15 17 28 30 45 45
44 43 45 44 44 44 42 43 42 41 40 38 36 34 30 28 29 30 24 20 16 14 12 11 10 9 9 9 10 10 10 11 10 11 12 14 15 16 18 20 31 35 39 50
46 47 48 45 44 45 47 47 46 41 40 41 39 36 34 31 28 24 21 18 15 13 12 11 10 10 9 9 10 10 11 12 12 13 15 16 17 20 20 21 34 54 64 76

GFSNW_250_rhum_108.txt.gz
RH
27 27 29 40 31 29 39 54 45 39 46 51 44 53 53 51 45 48 51 54 54 62 71 80 73 74 55 79 61 31 19 19 17 14 12 14 25 34 46 50 68 47 60 100
22 22 25 35 29 22 27 33 31 33 36 32 35 41 45 42 44 44 54 63 67 64 76 61 71 66 61 36 23 19 19 16 15 15 19 19 40 40 45 51 62 65 78 95
10 11 14 26 21 11 15 17 16 21 22 29 31 32 38 49 51 48 52 61 71 69 41 56 62 42 27 22 19 20 16 16 16 19 29 31 49 51 64 71 64 62 63 63
6 6 7 7 7 6 5 6 8 9 10 14 20 24 26 32 39 41 42 37 37 35 42 41 29 21 20 20 20 18 17 20 20 23 37 46 72 72 86 98 100 83 75 61
4 5 5 6 5 4 4 6 8 7 9 11 12 15 18 20 26 23 21 20 23 30 26 24 22 20 20 19 20 18 23 31 36 49 57 79 74 83 100 100 99 100 99 72
4 4 4 4 4 4 4 5 7 7 6 7 9 12 15 16 16 15 16 19 22 20 22 21 21 20 18 20 20 23 38 57 52 61 95 82 87 100 94 100 98 100 98 91
5 5 5 4 4 5 5 5 5 5 6 6 9 11 13 14 14 15 16 16 17 21 22 20 21 20 21 22 26 38 48 52 66 86 92 94 100 89 96 98 99 99 92 93
5 5 5 5 4 3 4 4 4 5 6 7 7 8 10 13 14 14 16 18 22 22 20 20 20 22 24 35 42 48 58 81 96 93 98 100 99 100 100 100 100 99 99 97
6 5 4 4 4 4 4 5 5 6 7 8 8 9 11 14 14 17 20 19 20 23 20 20 24 37 42 50 65 77 84 94 100 100 100 100 99 100 99 99 99 85 82 80
5 5 4 4 4 4 5 5 6 7 8 8 10 12 14 15 17 20 20 20 22 21 22 26 34 55 67 78 92 97 100 100 100 100 100 100 100 100 100 94 82 76 70 60
5 5 4 4 5 5 5 6 7 7 8 9 11 14 16 20 22 22 21 21 22 21 27 34 69 82 95 94 100 100 100 100 100 100 100 99 92 87 83 75 70 56 44 35
5 5 5 5 6 6 7 7 8 10 10 12 14 17 21 22 22 22 22 23 25 27 41 64 83 96 93 100 100 100 100 100 100 97 91 81 72 73 72 70 52 43 38 26
6 6 6 6 7 7 8 9 10 12 13 15 22 25 22 22 22 23 24 27 31 40 58 74 83 90 95 91 99 99 99 98 93 85 75 73 66 66 72 59 43 31 22 19
8 8 8 8 9 10 11 12 14 17 19 23 22 23 24 23 24 25 31 39 46 61 68 71 79 90 94 98 96 99 98 97 87 77 67 64 68 68 52 38 27 23 21 19
10 9 9 10 10 11 13 17 19 20 21 23 23 23 24 27 34 45 48 54 69 72 74 79 90 91 96 95 96 98 97 91 78 71 65 69 62 47 39 26 24 21 18 15
12 12 12 13 13 16 20 22 22 24 26 28 29 30 32 42 59 61 60 68 73 77 80 86 91 100 95 90 95 90 87 78 71 66 68 58 44 35 30 24 20 18 16 16
13 11 11 14 20 24 26 24 25 27 28 32 36 42 50 58 62 68 80 85 91 90 91 90 90 91 88 87 83 77 70 67 69 62 50 45 36 30 27 21 19 18 17 18
12 13 20 22 24 26 26 26 27 29 30 40 53 61 62 71 71 78 95 90 90 85 86 89 86 77 76 76 64 65 63 61 54 48 42 34 30 26 23 22 22 19 20 20
18 21 22 22 25 28 30 31 32 34 37 42 51 57 67 75 79 86 85 87 82 81 78 79 74 70 71 64 51 51 45 43 40 39 36 31 24 22 22 24 23 20 22 23
22 21 23 25 28 32 33 34 36 37 45 64 67 66 78 79 80 81 80 79 80 81 77 69 60 55 44 44 37 41 37 33 31 30 28 24 21 23 23 24 24 23 23 25
24 29 30 32 35 36 36 37 42 53 64 68 72 77 81 81 77 79 84 80 73 66 52 49 39 38 36 31 26 22 24 24 23 21 21 21 18 24 22 22 24 25 23 25
25 28 30 32 36 37 39 43 53 61 72 76 80 79 77 76 79 75 67 63 56 43 41 40 34 28 23 20 18 17 15 15 15 16 18 18 17 20 21 21 23 23 25 25
28 33 35 36 39 45 48 57 73 69 63 68 70 73 76 71 63 63 61 53 46 42 35 28 22 18 15 12 11 10 11 11 12 13 14 15 15 17 19 20 21 24 24 23
40 39 41 44 48 50 54 54 45 49 64 70 76 71 64 58 57 54 52 41 36 30 24 18 15 12 11 10 10 9 9 10 11 11 12 13 14 16 18 20 21 23 26 31
38 41 45 43 42 40 44 52 60 58 63 61 57 58 58 56 52 44 35 29 26 21 18 15 14 13 11 10 10 9 9 10 10 11 12 13 14 14 16 19 22 25 31 39
42 42 43 42 44 46 50 50 48 49 54 58 59 58 52 47 38 31 25 26 21 20 17 16 14 13 11 10 9 9 10 10 10 11 12 12 12 13 16 18 20 23 29 40
41 40 42 43 46 50 48 49 53 53 56 59 52 44 38 35 30 26 30 27 22 18 17 14 13 12 10 10 9 10 10 11 11 12 12 13 14 14 15 16 17 23 33 40

GFSNW_250_rhum_111.txt.gz
RH
26 26 28 30 37 41 39 47 47 59 77 68 63 65 57 45 42 65 56 51 53 54 50 50 55 47 65 54 55 62 53 55 60 56 59 47 21 19 17 16 18 24 28 33
25 25 27 32 34 29 38 29 38 41 40 44 46 47 51 42 44 54 55 53 45 49 45 45 57 51 55 49 56 67 82 66 52 45 39 21 17 17 18 17 34 39 32 41
22 24 25 28 28 31 34 28 28 26 25 25 26 27 30 43 51 47 56 57 46 46 54 45 42 47 56 52 77 66 45 50 40 19 18 16 18 17 18 26 40 48 60 42
8 9 12 16 16 18 20 18 14 15 18 28 30 34 30 33 34 35 36 36 46 44 48 46 36 43 57 53 56 42 40 37 22 19 17 19 20 21 26 42 55 58 47 49
5 6 6 7 7 9 10 8 6 7 9 10 11 16 17 18 22 29 28 27 31 30 33 29 29 35 31 31 35 37 30 21 18 17 17 20 22 40 75 57 58 75 69 78
6 6 6 5 6 6 6 6 5 6 6 6 6 7 8 10 11 11 12 14 15 18 21 22 29 30 22 29 33 24 20 20 19 19 22 25 45 97 83 62 74 84 79 92
5 5 5 5 5 5 5 5 5 5 6 6 5 7 8 9 9 10 11 13 14 16 20 20 20 20 26 31 22 20 20 20 20 23 32 46 89 78 78 84 95 97 99 98
5 5 5 5 5 5 5 6 5 6 7 6 5 5 6 6 7 8 9 11 16 16 17 18 19 24 20 23 20 20 20 20 23 36 61 78 96 92 84 97 98 96 89 100
4 5 5 5 5 5 5 6 6 5 5 6 5 6 6 7 8 8 9 16 19 18 20 19 20 22 22 22 21 21 21 28 48 76 78 83 100 86 94 100 100 99 99 100
5 5 6 6 6 6 6 5 5 6 6 6 6 6 7 8 8 9 15 17 18 21 21 20 19 22 23 23 22 26 32 63 70 80 94 96 91 98 97 99 99 100 100 91
7 7 7 7 6 5 5 5 5 5 5 5 6 7 8 8 10 16 18 18 21 22 21 18 22 24 24 24 29 47 66 75 89 96 96 97 98 100 100 100 96 98 94 85
7 7 6 5 5 4 5 5 5 5 6 7 8 8 9 11 15 17 20 21 23 23 22 23 25 24 28 34 60 79 86 90 99 100 97 99 100 100 98 100 96 84 75 57
6 6 6 5 5 5 5 5 6 7 7 8 10 11 13 15 17 19 21 24 25 24 24 24 25 26 34 61 82 93 97 100 100 99 96 100 100 100 100 89 79 67 52 53
6 6 6 6 6 6 7 7 8 8 9 10 12 14 16 18 20 24 24 26 26 26 26 26 30 45 67 92 95 99 100 99 99 99 100 100 100 93 81 77 73 61 51 35
7 7 7 8 8 8 8 9 10 12 13 13 15 15 19 24 24 26 26 26 27 27 28 32 51 70 84 91 99 98 99 100 99 99 100 100 93 86 86 82 65 50 36 28
10 10 9 8 8 9 10 11 13 15 18 18 25 22 24 26 26 26 28 28 28 32 43 60 66 84 90 96 99 99 100 100 100 97 100 90 88 81 85 69 52 36 31 25
11 10 9 10 13 14 16 19 20 22 24 24 24 26 27 27 28 31 34 35 43 56 71 78 85 82 89 96 98 88 98 98 97 94 83 80 80 79 70 55 41 33 27 24
12 10 11 15 16 18 21 24 24 25 25 26 28 31 36 38 48 53 57 62 66 71 79 84 80 87 95 95 91 93 99 93 88 86 79 77 75 65 54 42 37 30 24 26
11 10 12 16 19 21 23 25 29 29 29 29 30 32 41 47 66 74 74 74 77 79 84 81 86 90 93 82 84 78 81 79 77 73 70 62 56 51 38 34 35 26 25 28
14 15 15 15 18 24 27 30 31 31 33 35 41 43 51 58 61 67 71 80 83 89 83 89 86 84 84 74 74 75 73 64 59 53 53 50 43 36 35 34 29 28 28 28
18 18 21 28 30 31 32 32 34 36 41 47 53 65 69 64 72 70 74 78 85 90 91 84 81 76 74 65 51 51 46 44 42 40 36 33 33 32 32 29 26 29 30 30
17 24 29 32 33 33 35 36 38 41 47 58 64 66 70 70 78 83 87 92 87 86 78 74 64 56 52 47 42 35 27 24 25 24 26 26 27 27 25 24 25 28 28 28
26 31 33 32 34 40 42 40 41 45 48 51 57 68 74 84 89 89 85 80 72 64 60 53 47 42 30 23 20 19 18 17 16 16 16 18 19 21 22 23 24 24 26 26
32 35 38 41 42 42 38 41 49 52 55 65 79 85 90 92 87 78 75 68 60 55 46 37 30 23 20 18 16 14 13 12 12 12 13 14 16 17 16 20 21 21 23 24
39 42 42 41 41 44 47 54 51 53 67 81 88 95 95 82 75 69 61 56 48 41 33 27 24 20 16 13 12 11 10 10 10 10 11 12 13 14 15 17 18 19 22 25
39 38 40 43 42 43 47 47 51 64 75 91 88 78 74 70 64 56 53 44 37 34 29 23 19 15 14 12 11 10 10 9 10 10 11 12 12 13 14 16 18 19 22 27
40 37 36 35 38 44 50 56 58 65 65 71 69 72 70 60 55 48 40 39 35 29 22 17 17 15 13 12 11 10 9 9 10 10 11 12 12 13 14 15 16 18 20 21

GFSNW_250_rhum_114.txt.gz
RH
43 40 43 50 59 63 60 69 56 76 100 94 74 56 57 62 68 98 99 89 69 73 61 51 55 71 68 64 60 51 41 45 42 50 45 41 56 73 59 47 32 28 18 14
27 29 32 34 40 44 52 52 46 47 53 66 60 52 48 42 63 81 69 53 62 69 56 45 48 60 75 54 46 48 47 46 53 50 49 43 50 54 40 39 20 19 16 16
20 26 25 26 29 34 33 32 32 29 36 44 45 55 45 42 46 52 40 41 37 34 38 34 34 36 36 36 42 54 53 50 52 58 48 42 36 34 49 24 18 17 18 20
10 10 11 17 24 24 26 27 32 34 30 33 45 36 33 29 27 35 38 36 34 33 36 37 34 35 31 39 42 50 47 51 44 50 66 51 30 40 30 18 20 17 21 33
7 8 9 11 10 10 10 14 19 20 20 29 32 30 29 33 39 37 38 39 49 43 37 42 38 39 41 44 45 45 43 35 37 37 35 30 38 29 21 20 19 20 29 60
6 6 6 6 6 6 7 10 11 10 11 12 14 18 20 25 23 18 18 22 29 22 22 20 27 34 34 31 30 26 28 28 33 27 32 32 23 25 23 20 20 43 71 78
6 6 6 6 6 6 6 6 6 6 6 6 7 9 8 8 8 10 10 13 14 15 14 15 16 18 17 19 21 21 22 24 20 26 31 20 23 21 19 26 55 62 71 85
5 5 6 6 6 6 6 6 6 6 6 6 6 6 6 6 8 10 11 10 10 11 12 13 15 16 18 18 18 19 18 18 26 24 22 22 21 32 34 55 78 73 75 88
5 5 5 6 6 6 6 6 6 6 7 6 6 5 5 6 7 7 7 8 8 9 11 14 14 16 17 15 16 17 23 26 23 22 21 23 33 40 62 77 76 81 90 87
4 4 4 5 5 5 6 6 6 6 8 7 6 5 5 6 6 7 8 8 8 10 13 13 14 16 13 17 21 24 22 21 21 21 25 55 72 70 91 79 77 82 84 88
4 4 4 5 5 5 6 6 6 6 6 6 6 6 6 6 8 9 9 9 11 12 11 12 15 18 19 22 23 23 22 22 23 33 78 89 83 83 86 91 94 85 86 92
4 5 5 5 5 5 6 6 7 6 8 8 7 7 8 8 9 9 10 10 9 12 13 18 19 20 23 24 22 24 24 26 41 77 85 89 98 97 93 89 86 95 97 96
5 5 5 6 7 7 7 7 7 7 6 6 7 8 8 9 10 10 11 10 13 13 14 17 20 26 25 25 25 26 33 53 78 84 83 86 94 94 94 94 100 100 100 89
7 7 7 7 7 6 6 6 6 6 7 7 7 8 9 10 11 10 10 11 14 19 22 23 25 29 28 27 27 38 56 76 78 80 85 87 96 93 88 94 100 100 88 74
8 7 6 6 6 6 6 6 6 7 7 8 10 11 10 12 10 10 15 21 22 22 24 26 28 29 28 31 44 60 68 76 76 82 88 96 93 91 100 100 98 93 86 66
7 7 6 6 6 6 6 6 7 8 10 11 11 10 10 15 20 21 23 25 25 27 28 28 30 31 32 43 48 72 83 86 95 95 100 95 92 99 99 96 94 87 72 62
7 7 7 6 7 7 8 10 10 13 14 14 16 20 20 22 26 29 30 31 31 29 28 28 29 35 46 62 69 79 80 89 96 96 94 94 100 97 94 91 87 88 67 57
8 7 7 9 9 10 10 13 18 20 19 18 22 27 30 32 31 31 31 29 29 29 31 34 44 52 58 66 76 88 88 90 98 99 98 95 99 96 89 89 92 81 63 48
8 9 10 10 10 12 14 17 20 23 24 29 30 31 32 30 32 33 32 34 40 41 47 58 70 80 79 84 86 85 91 92 91 93 95 86 81 84 87 89 82 73 56 41
11 10 10 10 12 16 20 25 27 30 30 29 28 27 29 31 35 44 50 51 57 63 76 81 85 84 82 87 93 90 88 90 83 71 79 80 78 79 75 70 63 62 48 40
12 12 12 16 19 24 32 32 31 31 30 29 31 33 37 40 51 56 56 66 69 79 79 81 82 82 81 80 81 82 75 72 71 74 69 67 68 62 54 53 52 48 45 37
13 16 22 26 31 33 32 32 33 34 32 36 42 45 49 51 66 64 68 71 77 84 81 79 76 73 68 66 61 62 60 58 55 46 39 40 43 44 40 40 42 40 38 35
17 21 28 32 35 35 34 35 33 32 33 38 45 51 60 69 70 78 82 86 86 78 76 72 73 70 62 52 44 36 31 29 26 22 23 25 28 30 32 35 34 34 32 29
30 35 35 34 31 31 33 34 34 37 42 46 53 65 70 75 79 83 85 76 71 66 65 64 60 54 42 33 25 20 19 18 16 15 14 15 16 17 21 22 23 26 26 26
28 31 30 27 31 37 40 38 40 47 53 64 73 76 80 82 79 74 71 70 68 63 52 47 42 32 24 21 19 17 14 13 12 11 11 11 12 13 15 17 18 21 24 26
28 28 32 37 38 38 39 44 51 57 64 75 79 79 76 72 70 72 70 61 54 51 41 31 26 23 20 19 15 13 12 11 10 10 10 10 11 12 13 14 16 18 21 22
27 30 38 39 37 35 37 42 50 59 65 70 71 70 68 64 64 62 56 52 42 34 29 27 25 20 16 14 13 12 11 10 9 9 9 10 10 11 12 14 16 16 18 20

GFSNW_250_rhum_117.txt.gz
RH
33 40 44 35 42 47 54 60 97 100 100 100 100 82 91 100 100 96 94 80 82 93 100 90 74 80 86 85 68 69 76 79 70 70 65 64 51 41 42 44 37 33 38 39
18 22 40 55 79 69 57 43 74 91 86 80 72 79 72 69 85 100 91 85 95 99 87 78 75 77 74 61 56 52 60 68 53 36 42 42 38 50 46 41 35 45 40 42
10 18 22 23 33 51 68 65 67 64 62 62 69 62 58 60 70 69 66 62 54 46 40 48 50 50 47 42 41 39 46 44 42 37 37 41 44 54 50 32 40 51 40 31
6 8 12 18 21 27 30 29 29 40 43 58 78 70 54 41 42 45 53 50 48 53 44 47 41 49 52 47 45 38 41 42 44 44 51 48 49 57 56 34 37 31 29 30
6 6 6 10 12 13 18 18 19 24 35 38 52 53 41 42 41 36 40 36 40 32 27 37 44 44 44 44 37 40 49 52 53 52 54 50 48 46 41 34 36 25 34 24
6 6 7 7 8 8 8 12 12 16 24 32 29 34 44 40 36 32 32 38 41 32 48 48 46 54 42 40 43 42 42 43 42 39 40 39 23 29 31 42 31 36 24 24
5 5 6 6 5 6 7 8 10 9 11 10 12 14 15 18 21 18 21 21 22 30 34 41 54 29 23 25 25 27 27 32 26 22 21 16 20 30 36 32 33 23 24 23
4 4 5 6 6 6 7 7 7 8 8 8 9 10 11 12 12 10 10 11 14 19 26 32 28 21 16 12 17 23 18 15 15 15 17 17 27 29 35 32 21 25 26 33
5 5 5 6 6 6 7 7 7 7 7 7 7 8 9 8 8 8 11 10 12 12 11 12 12 11 12 13 14 14 14 14 15 17 18 22 31 32 28 21 26 26 37 66
4 5 5 5 5 6 6 7 7 7 7 7 7 8 7 7 8 10 10 10 10 10 9 9 9 10 12 11 12 14 14 14 16 17 20 33 34 25 22 25 32 44 70 84
4 5 5 5 5 6 7 7 6 7 8 8 9 8 7 8 9 8 8 8 8 9 9 9 10 10 10 11 12 13 14 16 19 21 31 31 22 20 24 37 57 80 100 96
4 5 5 5 6 6 6 6 7 7 8 8 7 7 8 7 8 9 8 10 10 8 8 8 10 10 10 12 14 16 19 22 21 25 26 24 21 26 42 64 89 100 96 88
4 5 5 5 6 6 6 6 6 6 6 6 7 7 7 8 9 9 11 10 10 9 8 8 9 11 14 16 17 19 23 25 26 26 26 28 41 55 76 98 96 96 87 88
5 5 5 5 5 6 6 7 7 7 7 7 8 10 11 10 9 10 10 10 8 8 10 11 14 16 18 19 21 23 27 28 26 29 36 56 74 85 97 99 92 90 90 89
5 5 6 6 6 6 6 7 8 9 9 11 11 8 8 8 8 9 9 9 9 10 13 15 18 22 22 23 26 31 30 28 34 47 79 84 92 100 100 100 100 93 87 95
6 7 7 8 9 9 9 9 9 9 8 8 8 8 6 7 8 7 8 11 14 16 17 22 26 29 26 27 26 26 32 40 53 77 84 87 89 89 91 100 96 90 93 90
9 9 9 8 8 7 7 7 6 7 7 8 8 9 9 10 12 15 18 19 20 20 24 26 27 29 27 25 28 30 35 44 62 84 84 84 91 92 95 95 92 93 93 89
7 7 7 7 6 6 6 7 7 8 9 10 9 11 15 19 22 21 20 22 23 24 27 32 34 31 28 26 30 39 47 60 79 88 96 97 92 93 95 96 96 89 92 92
7 7 7 7 7 7 8 8 8 10 11 15 19 20 22 23 25 28 27 29 32 34 33 30 28 27 28 29 36 44 59 77 85 89 89 93 94 98 99 94 92 84 87 94
8 8 7 8 9 9 9 10 10 14 20 24 24 24 28 30 32 36 36 34 32 31 29 27 27 28 34 42 55 68 80 88 90 91 92 90 87 91 93 86 78 80 86 87
10 10 11 12 12 13 12 15 19 25 29 28 32 35 37 41 35 32 31 31 34 33 37 42 55 70 75 83 89 92 97 96 94 88 86 83 80 72 72 79 80 78 75 71
10 12 14 16 17 18 22 28 32 36 38 38 35 32 30 33 34 34 38 50 55 66 67 77 88 82 84 88 88 87 82 76 70 67 66 66 66 64 63 60 59 61 63 60
16 18 21 22 27 33 37 37 38 36 32 31 31 39 44 46 53 60 75 86 87 79 86 86 81 79 78 74 73 72 70 64 55 50 48 45 41 39 38 40 45 46 48 51
20 25 30 30 29 30 33 34 34 36 39 42 46 57 66 73 80 84 90 82 81 84 82 76 71 68 65 59 51 43 36 31 28 27 26 26 26 26 27 28 28 29 31 34
20 21 24 27 33 34 37 42 47 49 51 55 63 73 79 83 82 76 78 79 76 74 72 70 63 55 44 36 27 23 20 18 17 16 15 14 14 14 15 16 19 21 23 23
18 21 28 33 33 36 41 44 45 46 54 59 71 85 85 84 77 77 75 71 66 63 59 54 46 36 29 24 21 19 16 12 12 11 11 10 10 11 11 12 14 16 18 20
24 32 35 33 37 40 43 45 45 48 58 70 73 76 76 70 74 70 66 62 54 52 46 38 33 28 24 22 19 16 14 12 11 10 10 9 9 9 10 11 12 14 15 18

GFSNW_250_rhum_120.txt.gz
RH
17 25 41 52 60 65 83 100 99 99 95 96 94 85 93 95 84 79 74 78 72 96 100 100 80 78 89 90 99 100 100 100 91 79 71 79 80 60 58 52 52 43 37 32
9 12 18 31 52 56 53 75 82 77 74 74 73 74 75 75 79 73 64 72 76 71 92 93 97 87 88 100 92 88 98 99 90 64 61 57 52 57 48 45 49 42 37 33
5 6 8 16 23 39 57 56 48 56 53 48 51 52 52 59 80 76 73 77 77 71 72 85 73 91 76 68 82 74 74 73 75 53 48 42 42 38 51 52 52 52 43 38
4 5 6 9 14 20 27 40 44 39 31 31 45 63 61 52 61 51 49 48 60 67 68 76 73 94 100 80 71 73 66 54 54 47 37 34 40 59 58 62 67 68 78 54
4 4 4 7 9 10 11 14 19 31 48 64 52 38 34 32 50 59 82 83 96 87 53 52 70 92 80 71 50 43 48 50 45 38 45 47 43 52 62 64 74 69 64 59
3 4 5 6 6 8 7 7 9 14 21 36 46 48 84 84 60 42 43 50 59 51 66 64 50 55 52 58 61 58 51 44 43 35 47 44 35 64 47 41 46 52 37 41
3 4 4 7 6 6 6 6 7 9 10 14 21 30 48 55 41 33 37 38 42 84 74 57 46 38 36 36 38 45 36 35 29 32 45 39 45 38 31 30 28 28 25 26
6 6 6 5 6 7 7 7 7 6 8 10 12 16 18 21 25 31 29 29 31 34 40 31 29 29 32 34 45 32 26 18 22 30 28 20 19 27 20 17 19 21 26 37
4 4 3 3 3 4 5 6 6 7 8 9 11 10 12 14 15 16 22 27 14 14 21 19 19 19 25 28 24 19 12 11 16 17 14 13 18 21 17 16 24 28 26 28
3 4 4 4 4 4 5 6 6 7 8 9 9 10 12 12 12 12 13 12 10 10 12 12 13 16 15 13 17 13 13 12 11 9 11 16 20 17 16 20 26 22 33 29
3 4 4 4 4 5 5 6 7 8 9 10 8 8 9 9 9 9 10 9 10 10 10 12 13 11 11 13 12 11 11 10 11 13 16 20 16 16 18 20 25 30 25 23
4 4 5 5 5 5 6 6 7 7 8 9 10 10 10 10 9 11 10 10 10 9 9 10 11 10 8 9 10 10 10 11 14 14 19 19 17 19 22 28 26 24 24 40
4 4 4 5 6 6 6 6 6 8 9 9 10 9 9 9 10 10 10 10 9 11 10 10 10 9 9 9 10 11 12 13 16 17 22 21 21 24 25 23 24 31 58 89
4 5 5 5 6 6 6 7 7 8 9 10 9 10 9 8 10 10 10 10 11 11 10 9 9 11 11 12 11 12 14 16 18 21 21 23 24 24 25 28 46 79 96 100
5 5 6 6 6 6 7 8 8 8 8 8 8 9 9 10 11 11 10 10 10 10 10 11 12 12 12 12 14 15 17 19 23 26 30 29 29 30 34 65 90 100 100 100
5 5 6 6 6 6 7 7 8 8 8 9 11 11 12 10 10 11 10 11 10 12 15 14 14 15 16 16 18 20 25 28 28 28 29 28 35 43 65 85 100 100 100 100
6 6 6 7 7 8 8 8 8 9 9 9 9 11 10 11 11 10 9 9 11 14 15 16 17 18 18 21 23 27 28 26 26 29 31 42 63 86 99 99 99 100 99 100
7 7 7 7 6 7 8 9 10 10 11 10 11 11 10 9 9 10 12 16 17 17 18 21 24 23 23 26 29 31 30 31 31 36 44 66 85 99 100 98 97 95 100 100
8 8 8 8 8 9 9 9 9 9 9 9 9 8 11 14 16 17 17 18 18 23 26 26 25 28 29 31 35 35 34 34 36 46 62 83 98 100 94 90 92 98 100 98
8 8 8 7 7 7 7 7 7 7 8 10 13 15 16 16 18 21 22 27 30 31 31 32 33 35 34 34 34 32 32 34 43 58 70 82 90 90 90 95 96 94 97 98
8 7 7 8 8 8 8 9 10 12 15 17 17 20 22 26 29 30 32 34 36 36 35 36 38 36 34 33 32 32 34 43 53 67 81 88 92 96 96 96 93 93 92 88
10 10 10 10 11 12 14 16 15 18 18 21 26 29 32 35 38 38 37 38 38 37 36 38 38 37 41 43 47 55 63 72 81 81 81 80 82 84 84 83 82 79 76 78
11 11 14 18 19 19 17 18 19 19 23 26 32 36 39 38 40 42 41 42 40 44 48 55 56 62 65 66 68 72 75 74 72 71 70 67 64 64 64 63 64 69 71 68
15 16 16 17 17 19 21 23 27 32 36 40 42 38 39 48 54 60 59 63 78 81 79 79 76 76 76 77 78 75 71 66 58 52 48 45 46 46 46 45 45 45 44 43
16 17 17 21 26 28 30 34 37 40 40 42 48 56 66 73 80 78 83 88 82 80 80 82 81 82 78 71 64 55 49 42 35 30 25 24 25 23 22 21 21 22 24 26
18 23 28 29 32 33 33 35 36 37 41 52 66 78 85 84 81 86 92 91 86 82 77 76 72 63 54 46 39 32 26 22 19 17 16 15 15 15 15 15 16 16 18 19
25 28 31 34 33 34 37 41 44 48 56 66 70 75 76 86 92 91 82 82 77 75 71 66 56 46 37 30 26 24 22 19 15 13 12 12 11 11 11 11 12 13 14 15

GFSNW_250_rhum_123.txt.gz
RH
8 9 8 14 18 30 46 50 54 69 80 81 73 69 100 100 100 100 100 100 100 100 100 100 100 92 94 100 100 94 89 76 61 60 62 72 89 87 74 72 73 71 52 43
6 7 9 9 11 14 19 33 46 61 70 70 69 81 96 84 100 96 100 100 100 100 100 100 100 100 100 99 98 92 96 89 78 63 65 77 82 98 85 76 72 60 54 45
5 6 7 9 9 7 12 13 28 62 57 64 69 63 76 91 99 100 100 100 100 100 100 100 100 100 99 100 99 97 94 87 79 74 78 72 67 75 91 77 55 56 45 58
4 4 6 7 7 8 8 8 12 27 35 52 46 54 92 96 84 88 94 97 99 100 100 100 100 100 100 88 77 76 83 71 78 77 72 62 72 63 63 60 54 56 58 56
4 5 5 5 5 5 5 4 6 11 17 24 28 43 40 53 78 88 95 90 94 90 89 93 93 90 79 71 70 72 71 65 74 76 84 78 64 54 60 56 57 56 77 59
4 4 5 4 4 4 3 4 6 8 11 13 16 18 28 55 59 48 60 66 73 69 76 73 72 76 60 53 59 62 80 94 75 55 67 57 26 51 45 48 58 73 54 50
3 3 3 3 4 4 4 4 7 8 9 12 13 16 23 34 38 46 50 43 44 52 52 53 54 55 54 50 45 46 56 59 52 51 58 41 34 33 50 46 62 44 29 40
3 4 3 3 4 5 6 7 7 8 6 7 10 11 15 18 19 21 25 32 38 43 45 31 22 25 23 35 34 33 48 55 52 58 48 27 13 33 49 55 35 32 33 26
3 3 4 4 4 5 5 7 8 7 5 6 8 8 10 13 14 16 19 25 22 18 19 24 24 15 29 29 41 51 70 67 52 31 25 13 15 26 44 34 19 30 18 16
4 5 5 5 6 6 5 6 5 4 5 6 8 10 11 10 10 13 15 18 19 17 20 20 20 19 21 22 28 35 37 45 30 20 10 10 15 22 26 15 16 19 17 18
3 3 3 3 4 3 3 4 4 4 4 6 8 8 9 9 10 12 13 13 13 13 14 13 14 15 16 17 20 19 16 15 14 13 10 11 15 15 14 15 15 16 17 17
3 3 3 3 4 5 7 7 6 5 5 6 8 8 9 10 10 11 10 10 11 11 10 11 12 13 14 14 12 12 12 11 10 9 11 13 17 15 14 15 15 18 20 20
3 3 3 4 4 5 5 5 5 6 6 6 7 9 8 10 10 10 10 11 10 10 8 9 10 11 12 11 11 10 10 11 10 11 14 13 12 13 15 17 18 19 21 27
3 3 4 4 5 6 6 6 5 5 5 7 7 8 9 9 10 11 11 10 10 10 9 10 11 10 10 9 10 10 12 12 12 13 12 13 16 17 18 22 23 29 33 28
4 4 4 5 5 6 6 6 6 7 7 7 8 8 9 10 11 11 10 10 10 10 11 11 11 10 10 11 13 15 12 12 13 12 13 15 17 18 20 24 29 28 24 27
5 5 5 6 6 7 8 8 8 7 8 9 8 8 9 9 10 11 11 11 10 11 10 10 10 13 14 13 12 11 13 14 14 15 15 18 21 24 28 28 26 29 44 74
6 6 6 7 7 7 7 8 8 8 8 9 9 9 10 11 12 12 11 11 12 10 12 14 15 14 14 13 14 14 16 17 17 18 21 25 28 28 27 30 37 63 85 94
6 6 6 7 7 7 8 7 9 10 10 10 11 11 12 10 11 10 11 12 12 15 15 15 16 16 15 15 17 20 22 23 25 26 27 26 27 28 30 50 76 92 100 98
7 7 7 6 6 7 8 8 10 10 11 12 10 11 12 13 14 16 16 17 18 16 17 17 17 16 18 22 26 24 25 27 28 30 30 29 30 34 51 70 88 98 100 100
7 7 6 7 8 8 8 9 10 10 12 15 15 16 15 14 14 15 16 15 15 17 20 20 21 24 28 28 27 28 29 31 32 32 32 35 40 53 73 90 98 96 95 97
10 11 11 11 10 10 12 13 13 13 13 13 14 14 13 14 17 18 19 22 22 23 25 27 29 32 29 30 32 33 35 34 32 31 35 41 48 59 73 93 98 97 98 98
8 8 8 8 8 8 9 10 10 10 12 14 15 15 19 19 19 26 28 29 31 36 35 36 35 34 35 35 35 34 32 32 32 33 40 51 59 70 81 91 96 95 93 93
8 8 8 9 10 9 10 10 11 12 15 15 17 22 23 26 30 34 35 38 38 37 39 37 35 34 33 33 33 33 34 38 42 46 51 58 67 71 73 78 82 84 86 86
9 8 8 8 9 9 11 15 18 19 22 25 27 30 33 36 36 36 40 40 38 37 39 41 45 47 50 56 64 70 72 71 70 66 63 61 60 57 56 58 62 66 68 66
11 10 10 13 15 17 21 24 26 29 33 33 38 41 40 39 38 41 52 58 66 68 69 75 74 79 83 84 82 76 70 64 58 52 46 40 35 35 39 41 40 40 40 40
15 16 17 19 22 25 26 29 32 36 37 37 37 40 48 52 61 74 82 85 89 92 84 84 84 82 80 73 69 63 55 46 38 32 26 22 21 21 21 21 20 20 20 20
20 23 22 23 27 31 32 34 34 33 33 37 45 54 68 75 91 92 88 94 87 88 89 88 82 74 68 64 54 43 33 28 25 22 19 16 15 14 14 14 14 14 15 15